<?xml version="1.0" encoding="UTF-8" standalone="no" ?>
<gpx xmlns="http://www.topografix.com/GPX/1/1" xmlns:xsi="http://www.w3.org/2001/XMLSchema-instance" xsi:schemaLocation="http://www.topografix.com/GPX/1/1 http://www.topografix.com/GPX/1/1/gpx.xsd" version="1.1" creator="VisuGPX - https://www.visugpx.com">
  <metadata>
    <name>Pierre-percé</name>
  </metadata>
  <trk>
    <name><![CDATA[Pierre-percé]]></name>
    <trkseg>
      <trkpt lat="48.46767" lon="6.92988">
        <ele>403.41</ele>
        <time>2013-08-25T07:02:05Z</time>
      </trkpt>
      <trkpt lat="48.46768" lon="6.92988">
        <ele>403.41</ele>
        <time>2013-08-25T07:02:06Z</time>
      </trkpt>
      <trkpt lat="48.46761" lon="6.92994">
        <ele>403.41</ele>
        <time>2013-08-25T07:02:21Z</time>
      </trkpt>
      <trkpt lat="48.46759" lon="6.92991">
        <ele>404.85</ele>
        <time>2013-08-25T07:02:27Z</time>
      </trkpt>
      <trkpt lat="48.46759" lon="6.92991">
        <ele>403.41</ele>
        <time>2013-08-25T07:02:29Z</time>
      </trkpt>
      <trkpt lat="48.46759" lon="6.92988">
        <ele>403.89</ele>
        <time>2013-08-25T07:02:45Z</time>
      </trkpt>
      <trkpt lat="48.46759" lon="6.9299">
        <ele>403.89</ele>
        <time>2013-08-25T07:03:07Z</time>
      </trkpt>
      <trkpt lat="48.46758" lon="6.92991">
        <ele>403.89</ele>
        <time>2013-08-25T07:03:09Z</time>
      </trkpt>
      <trkpt lat="48.46741" lon="6.92979">
        <ele>402.45</ele>
        <time>2013-08-25T07:03:16Z</time>
      </trkpt>
      <trkpt lat="48.46734" lon="6.9298">
        <ele>402.45</ele>
        <time>2013-08-25T07:03:19Z</time>
      </trkpt>
      <trkpt lat="48.46729" lon="6.9298">
        <ele>402.45</ele>
        <time>2013-08-25T07:03:22Z</time>
      </trkpt>
      <trkpt lat="48.46725" lon="6.92981">
        <ele>402.45</ele>
        <time>2013-08-25T07:03:24Z</time>
      </trkpt>
      <trkpt lat="48.46722" lon="6.92991">
        <ele>403.89</ele>
        <time>2013-08-25T07:03:28Z</time>
      </trkpt>
      <trkpt lat="48.46722" lon="6.92996">
        <ele>404.37</ele>
        <time>2013-08-25T07:03:30Z</time>
      </trkpt>
      <trkpt lat="48.46724" lon="6.93007">
        <ele>405.81</ele>
        <time>2013-08-25T07:03:34Z</time>
      </trkpt>
      <trkpt lat="48.46731" lon="6.93014">
        <ele>406.77</ele>
        <time>2013-08-25T07:03:39Z</time>
      </trkpt>
      <trkpt lat="48.46745" lon="6.9303">
        <ele>410.14</ele>
        <time>2013-08-25T07:03:51Z</time>
      </trkpt>
      <trkpt lat="48.46747" lon="6.93032">
        <ele>410.62</ele>
        <time>2013-08-25T07:03:53Z</time>
      </trkpt>
      <trkpt lat="48.4677" lon="6.93038">
        <ele>413.98</ele>
        <time>2013-08-25T07:04:06Z</time>
      </trkpt>
      <trkpt lat="48.46787" lon="6.9305">
        <ele>417.83</ele>
        <time>2013-08-25T07:04:18Z</time>
      </trkpt>
      <trkpt lat="48.46796" lon="6.93058">
        <ele>421.19</ele>
        <time>2013-08-25T07:04:27Z</time>
      </trkpt>
      <trkpt lat="48.46799" lon="6.93067">
        <ele>421.19</ele>
        <time>2013-08-25T07:04:33Z</time>
      </trkpt>
      <trkpt lat="48.46807" lon="6.93085">
        <ele>424.08</ele>
        <time>2013-08-25T07:04:48Z</time>
      </trkpt>
      <trkpt lat="48.46816" lon="6.93094">
        <ele>426</ele>
        <time>2013-08-25T07:04:56Z</time>
      </trkpt>
      <trkpt lat="48.46818" lon="6.93114">
        <ele>427.92</ele>
        <time>2013-08-25T07:05:06Z</time>
      </trkpt>
      <trkpt lat="48.46819" lon="6.93123">
        <ele>428.89</ele>
        <time>2013-08-25T07:05:11Z</time>
      </trkpt>
      <trkpt lat="48.46827" lon="6.93154">
        <ele>432.25</ele>
        <time>2013-08-25T07:05:26Z</time>
      </trkpt>
      <trkpt lat="48.46834" lon="6.93174">
        <ele>435.13</ele>
        <time>2013-08-25T07:05:39Z</time>
      </trkpt>
      <trkpt lat="48.46842" lon="6.93198">
        <ele>437.06</ele>
        <time>2013-08-25T07:05:55Z</time>
      </trkpt>
      <trkpt lat="48.46845" lon="6.93204">
        <ele>438.02</ele>
        <time>2013-08-25T07:06:11Z</time>
      </trkpt>
      <trkpt lat="48.46845" lon="6.93204">
        <ele>438.02</ele>
        <time>2013-08-25T07:06:19Z</time>
      </trkpt>
      <trkpt lat="48.46848" lon="6.93215">
        <ele>438.02</ele>
        <time>2013-08-25T07:06:25Z</time>
      </trkpt>
      <trkpt lat="48.4685" lon="6.93223">
        <ele>438.5</ele>
        <time>2013-08-25T07:06:39Z</time>
      </trkpt>
      <trkpt lat="48.4685" lon="6.93223">
        <ele>438.5</ele>
        <time>2013-08-25T07:07:00Z</time>
      </trkpt>
      <trkpt lat="48.4685" lon="6.93223">
        <ele>438.5</ele>
        <time>2013-08-25T07:07:21Z</time>
      </trkpt>
      <trkpt lat="48.4685" lon="6.93223">
        <ele>438.5</ele>
        <time>2013-08-25T07:07:47Z</time>
      </trkpt>
      <trkpt lat="48.4685" lon="6.93223">
        <ele>438.5</ele>
        <time>2013-08-25T07:08:16Z</time>
      </trkpt>
      <trkpt lat="48.4685" lon="6.93223">
        <ele>440.42</ele>
        <time>2013-08-25T07:08:31Z</time>
      </trkpt>
      <trkpt lat="48.4685" lon="6.93223">
        <ele>438.98</ele>
        <time>2013-08-25T07:08:33Z</time>
      </trkpt>
      <trkpt lat="48.46849" lon="6.93225">
        <ele>438.98</ele>
        <time>2013-08-25T07:08:56Z</time>
      </trkpt>
      <trkpt lat="48.46842" lon="6.93229">
        <ele>438.98</ele>
        <time>2013-08-25T07:09:01Z</time>
      </trkpt>
      <trkpt lat="48.4682" lon="6.93234">
        <ele>440.9</ele>
        <time>2013-08-25T07:09:15Z</time>
      </trkpt>
      <trkpt lat="48.46813" lon="6.93233">
        <ele>441.38</ele>
        <time>2013-08-25T07:09:19Z</time>
      </trkpt>
      <trkpt lat="48.46807" lon="6.93232">
        <ele>441.86</ele>
        <time>2013-08-25T07:09:22Z</time>
      </trkpt>
      <trkpt lat="48.46784" lon="6.93231">
        <ele>444.27</ele>
        <time>2013-08-25T07:09:35Z</time>
      </trkpt>
      <trkpt lat="48.46771" lon="6.93221">
        <ele>445.23</ele>
        <time>2013-08-25T07:09:44Z</time>
      </trkpt>
      <trkpt lat="48.46766" lon="6.93218">
        <ele>446.19</ele>
        <time>2013-08-25T07:09:48Z</time>
      </trkpt>
      <trkpt lat="48.46747" lon="6.93207">
        <ele>447.15</ele>
        <time>2013-08-25T07:10:03Z</time>
      </trkpt>
      <trkpt lat="48.46745" lon="6.93206">
        <ele>447.15</ele>
        <time>2013-08-25T07:10:05Z</time>
      </trkpt>
      <trkpt lat="48.46722" lon="6.93196">
        <ele>449.55</ele>
        <time>2013-08-25T07:10:20Z</time>
      </trkpt>
      <trkpt lat="48.46717" lon="6.93197">
        <ele>450.03</ele>
        <time>2013-08-25T07:10:23Z</time>
      </trkpt>
      <trkpt lat="48.46709" lon="6.93194">
        <ele>451</ele>
        <time>2013-08-25T07:10:29Z</time>
      </trkpt>
      <trkpt lat="48.46706" lon="6.93193">
        <ele>452.44</ele>
        <time>2013-08-25T07:10:32Z</time>
      </trkpt>
      <trkpt lat="48.46703" lon="6.93194">
        <ele>451</ele>
        <time>2013-08-25T07:10:34Z</time>
      </trkpt>
      <trkpt lat="48.46693" lon="6.93189">
        <ele>452.44</ele>
        <time>2013-08-25T07:10:44Z</time>
      </trkpt>
      <trkpt lat="48.4668" lon="6.93183">
        <ele>453.88</ele>
        <time>2013-08-25T07:10:59Z</time>
      </trkpt>
      <trkpt lat="48.46672" lon="6.9318">
        <ele>454.36</ele>
        <time>2013-08-25T07:11:06Z</time>
      </trkpt>
      <trkpt lat="48.46661" lon="6.93178">
        <ele>456.28</ele>
        <time>2013-08-25T07:11:20Z</time>
      </trkpt>
      <trkpt lat="48.46659" lon="6.93178">
        <ele>456.76</ele>
        <time>2013-08-25T07:11:41Z</time>
      </trkpt>
      <trkpt lat="48.46659" lon="6.93178">
        <ele>456.76</ele>
        <time>2013-08-25T07:11:45Z</time>
      </trkpt>
      <trkpt lat="48.46649" lon="6.93174">
        <ele>457.24</ele>
        <time>2013-08-25T07:11:54Z</time>
      </trkpt>
      <trkpt lat="48.46643" lon="6.93173">
        <ele>458.21</ele>
        <time>2013-08-25T07:11:59Z</time>
      </trkpt>
      <trkpt lat="48.46638" lon="6.9317">
        <ele>459.65</ele>
        <time>2013-08-25T07:12:03Z</time>
      </trkpt>
      <trkpt lat="48.46629" lon="6.93171">
        <ele>460.61</ele>
        <time>2013-08-25T07:12:11Z</time>
      </trkpt>
      <trkpt lat="48.46623" lon="6.9317">
        <ele>461.57</ele>
        <time>2013-08-25T07:12:17Z</time>
      </trkpt>
      <trkpt lat="48.4661" lon="6.93163">
        <ele>464.45</ele>
        <time>2013-08-25T07:12:30Z</time>
      </trkpt>
      <trkpt lat="48.46609" lon="6.93162">
        <ele>463.97</ele>
        <time>2013-08-25T07:12:31Z</time>
      </trkpt>
      <trkpt lat="48.46602" lon="6.93158">
        <ele>465.42</ele>
        <time>2013-08-25T07:12:37Z</time>
      </trkpt>
      <trkpt lat="48.46585" lon="6.93156">
        <ele>466.86</ele>
        <time>2013-08-25T07:12:50Z</time>
      </trkpt>
      <trkpt lat="48.46567" lon="6.93151">
        <ele>468.78</ele>
        <time>2013-08-25T07:13:04Z</time>
      </trkpt>
      <trkpt lat="48.46549" lon="6.93148">
        <ele>470.22</ele>
        <time>2013-08-25T07:13:18Z</time>
      </trkpt>
      <trkpt lat="48.46534" lon="6.93139">
        <ele>471.66</ele>
        <time>2013-08-25T07:13:32Z</time>
      </trkpt>
      <trkpt lat="48.46534" lon="6.93139">
        <ele>472.63</ele>
        <time>2013-08-25T07:13:49Z</time>
      </trkpt>
      <trkpt lat="48.46534" lon="6.93139">
        <ele>472.63</ele>
        <time>2013-08-25T07:14:12Z</time>
      </trkpt>
      <trkpt lat="48.46535" lon="6.93139">
        <ele>472.63</ele>
        <time>2013-08-25T07:14:25Z</time>
      </trkpt>
      <trkpt lat="48.46534" lon="6.9314">
        <ele>471.66</ele>
        <time>2013-08-25T07:14:50Z</time>
      </trkpt>
      <trkpt lat="48.46534" lon="6.9314">
        <ele>471.66</ele>
        <time>2013-08-25T07:15:14Z</time>
      </trkpt>
      <trkpt lat="48.46531" lon="6.93137">
        <ele>471.66</ele>
        <time>2013-08-25T07:15:29Z</time>
      </trkpt>
      <trkpt lat="48.46531" lon="6.93137">
        <ele>471.66</ele>
        <time>2013-08-25T07:15:57Z</time>
      </trkpt>
      <trkpt lat="48.46531" lon="6.93137">
        <ele>471.66</ele>
        <time>2013-08-25T07:16:26Z</time>
      </trkpt>
      <trkpt lat="48.46531" lon="6.93136">
        <ele>472.14</ele>
        <time>2013-08-25T07:16:56Z</time>
      </trkpt>
      <trkpt lat="48.46531" lon="6.93137">
        <ele>472.14</ele>
        <time>2013-08-25T07:17:05Z</time>
      </trkpt>
      <trkpt lat="48.46518" lon="6.93132">
        <ele>472.14</ele>
        <time>2013-08-25T07:17:12Z</time>
      </trkpt>
      <trkpt lat="48.46513" lon="6.9313">
        <ele>473.59</ele>
        <time>2013-08-25T07:17:15Z</time>
      </trkpt>
      <trkpt lat="48.46491" lon="6.93125">
        <ele>474.55</ele>
        <time>2013-08-25T07:17:31Z</time>
      </trkpt>
      <trkpt lat="48.4647" lon="6.93122">
        <ele>475.51</ele>
        <time>2013-08-25T07:17:46Z</time>
      </trkpt>
      <trkpt lat="48.46464" lon="6.93121">
        <ele>475.51</ele>
        <time>2013-08-25T07:17:51Z</time>
      </trkpt>
      <trkpt lat="48.46435" lon="6.9312">
        <ele>476.47</ele>
        <time>2013-08-25T07:18:10Z</time>
      </trkpt>
      <trkpt lat="48.46402" lon="6.93132">
        <ele>477.43</ele>
        <time>2013-08-25T07:18:26Z</time>
      </trkpt>
      <trkpt lat="48.46398" lon="6.93135">
        <ele>477.91</ele>
        <time>2013-08-25T07:18:28Z</time>
      </trkpt>
      <trkpt lat="48.46393" lon="6.93141">
        <ele>478.39</ele>
        <time>2013-08-25T07:18:32Z</time>
      </trkpt>
      <trkpt lat="48.46387" lon="6.93148">
        <ele>480.32</ele>
        <time>2013-08-25T07:18:37Z</time>
      </trkpt>
      <trkpt lat="48.46368" lon="6.93165">
        <ele>478.87</ele>
        <time>2013-08-25T07:18:49Z</time>
      </trkpt>
      <trkpt lat="48.46337" lon="6.93195">
        <ele>476.95</ele>
        <time>2013-08-25T07:19:00Z</time>
      </trkpt>
      <trkpt lat="48.46306" lon="6.9321">
        <ele>478.39</ele>
        <time>2013-08-25T07:19:12Z</time>
      </trkpt>
      <trkpt lat="48.46279" lon="6.93206">
        <ele>478.39</ele>
        <time>2013-08-25T07:19:26Z</time>
      </trkpt>
      <trkpt lat="48.46247" lon="6.93187">
        <ele>478.39</ele>
        <time>2013-08-25T07:19:38Z</time>
      </trkpt>
      <trkpt lat="48.46208" lon="6.93181">
        <ele>478.87</ele>
        <time>2013-08-25T07:19:52Z</time>
      </trkpt>
      <trkpt lat="48.46182" lon="6.9318">
        <ele>478.39</ele>
        <time>2013-08-25T07:20:03Z</time>
      </trkpt>
      <trkpt lat="48.46161" lon="6.93174">
        <ele>476.95</ele>
        <time>2013-08-25T07:20:09Z</time>
      </trkpt>
      <trkpt lat="48.46127" lon="6.93158">
        <ele>473.11</ele>
        <time>2013-08-25T07:20:16Z</time>
      </trkpt>
      <trkpt lat="48.46122" lon="6.93155">
        <ele>473.11</ele>
        <time>2013-08-25T07:20:17Z</time>
      </trkpt>
      <trkpt lat="48.46083" lon="6.93143">
        <ele>472.14</ele>
        <time>2013-08-25T07:20:24Z</time>
      </trkpt>
      <trkpt lat="48.46077" lon="6.93142">
        <ele>471.18</ele>
        <time>2013-08-25T07:20:25Z</time>
      </trkpt>
      <trkpt lat="48.46072" lon="6.93141">
        <ele>471.18</ele>
        <time>2013-08-25T07:20:26Z</time>
      </trkpt>
      <trkpt lat="48.46067" lon="6.9314">
        <ele>471.18</ele>
        <time>2013-08-25T07:20:27Z</time>
      </trkpt>
      <trkpt lat="48.46061" lon="6.93136">
        <ele>471.18</ele>
        <time>2013-08-25T07:20:28Z</time>
      </trkpt>
      <trkpt lat="48.46056" lon="6.93134">
        <ele>470.7</ele>
        <time>2013-08-25T07:20:29Z</time>
      </trkpt>
      <trkpt lat="48.46051" lon="6.93132">
        <ele>470.22</ele>
        <time>2013-08-25T07:20:30Z</time>
      </trkpt>
      <trkpt lat="48.46047" lon="6.9313">
        <ele>470.22</ele>
        <time>2013-08-25T07:20:31Z</time>
      </trkpt>
      <trkpt lat="48.46034" lon="6.93122">
        <ele>469.26</ele>
        <time>2013-08-25T07:20:35Z</time>
      </trkpt>
      <trkpt lat="48.46031" lon="6.93119">
        <ele>469.74</ele>
        <time>2013-08-25T07:20:36Z</time>
      </trkpt>
      <trkpt lat="48.46027" lon="6.93116">
        <ele>469.74</ele>
        <time>2013-08-25T07:20:37Z</time>
      </trkpt>
      <trkpt lat="48.45981" lon="6.9308">
        <ele>466.86</ele>
        <time>2013-08-25T07:20:50Z</time>
      </trkpt>
      <trkpt lat="48.45951" lon="6.93049">
        <ele>465.9</ele>
        <time>2013-08-25T07:21:02Z</time>
      </trkpt>
      <trkpt lat="48.4594" lon="6.93038">
        <ele>466.38</ele>
        <time>2013-08-25T07:21:15Z</time>
      </trkpt>
      <trkpt lat="48.45938" lon="6.93037">
        <ele>466.38</ele>
        <time>2013-08-25T07:21:21Z</time>
      </trkpt>
      <trkpt lat="48.45936" lon="6.93039">
        <ele>466.38</ele>
        <time>2013-08-25T07:21:24Z</time>
      </trkpt>
      <trkpt lat="48.45941" lon="6.93052">
        <ele>465.9</ele>
        <time>2013-08-25T07:21:39Z</time>
      </trkpt>
      <trkpt lat="48.45941" lon="6.93052">
        <ele>465.9</ele>
        <time>2013-08-25T07:22:05Z</time>
      </trkpt>
      <trkpt lat="48.45941" lon="6.93053">
        <ele>465.9</ele>
        <time>2013-08-25T07:22:24Z</time>
      </trkpt>
      <trkpt lat="48.45942" lon="6.93053">
        <ele>465.9</ele>
        <time>2013-08-25T07:22:33Z</time>
      </trkpt>
      <trkpt lat="48.45938" lon="6.93044">
        <ele>467.34</ele>
        <time>2013-08-25T07:22:38Z</time>
      </trkpt>
      <trkpt lat="48.4593" lon="6.93038">
        <ele>466.38</ele>
        <time>2013-08-25T07:22:41Z</time>
      </trkpt>
      <trkpt lat="48.45927" lon="6.92997">
        <ele>463.97</ele>
        <time>2013-08-25T07:22:50Z</time>
      </trkpt>
      <trkpt lat="48.45924" lon="6.92966">
        <ele>462.53</ele>
        <time>2013-08-25T07:22:59Z</time>
      </trkpt>
      <trkpt lat="48.45913" lon="6.92918">
        <ele>460.13</ele>
        <time>2013-08-25T07:23:11Z</time>
      </trkpt>
      <trkpt lat="48.45904" lon="6.92877">
        <ele>458.69</ele>
        <time>2013-08-25T07:23:23Z</time>
      </trkpt>
      <trkpt lat="48.45899" lon="6.92837">
        <ele>455.32</ele>
        <time>2013-08-25T07:23:32Z</time>
      </trkpt>
      <trkpt lat="48.45896" lon="6.92828">
        <ele>455.32</ele>
        <time>2013-08-25T07:23:36Z</time>
      </trkpt>
      <trkpt lat="48.45889" lon="6.92793">
        <ele>453.4</ele>
        <time>2013-08-25T07:23:46Z</time>
      </trkpt>
      <trkpt lat="48.45878" lon="6.92771">
        <ele>452.92</ele>
        <time>2013-08-25T07:23:56Z</time>
      </trkpt>
      <trkpt lat="48.45867" lon="6.9274">
        <ele>451</ele>
        <time>2013-08-25T07:24:08Z</time>
      </trkpt>
      <trkpt lat="48.45867" lon="6.92715">
        <ele>449.07</ele>
        <time>2013-08-25T07:24:19Z</time>
      </trkpt>
      <trkpt lat="48.45867" lon="6.92715">
        <ele>449.07</ele>
        <time>2013-08-25T07:24:28Z</time>
      </trkpt>
      <trkpt lat="48.45869" lon="6.92697">
        <ele>446.67</ele>
        <time>2013-08-25T07:24:34Z</time>
      </trkpt>
      <trkpt lat="48.45883" lon="6.92675">
        <ele>442.82</ele>
        <time>2013-08-25T07:24:44Z</time>
      </trkpt>
      <trkpt lat="48.45887" lon="6.9267">
        <ele>441.86</ele>
        <time>2013-08-25T07:24:47Z</time>
      </trkpt>
      <trkpt lat="48.45889" lon="6.92661">
        <ele>440.42</ele>
        <time>2013-08-25T07:24:50Z</time>
      </trkpt>
      <trkpt lat="48.4589" lon="6.92659">
        <ele>439.94</ele>
        <time>2013-08-25T07:24:51Z</time>
      </trkpt>
      <trkpt lat="48.45885" lon="6.92633">
        <ele>438.98</ele>
        <time>2013-08-25T07:24:55Z</time>
      </trkpt>
      <trkpt lat="48.45885" lon="6.92626">
        <ele>438.5</ele>
        <time>2013-08-25T07:24:56Z</time>
      </trkpt>
      <trkpt lat="48.45884" lon="6.92619">
        <ele>438.02</ele>
        <time>2013-08-25T07:24:57Z</time>
      </trkpt>
      <trkpt lat="48.45883" lon="6.92612">
        <ele>438.02</ele>
        <time>2013-08-25T07:24:58Z</time>
      </trkpt>
      <trkpt lat="48.45874" lon="6.92577">
        <ele>434.17</ele>
        <time>2013-08-25T07:25:06Z</time>
      </trkpt>
      <trkpt lat="48.45862" lon="6.92543">
        <ele>432.25</ele>
        <time>2013-08-25T07:25:16Z</time>
      </trkpt>
      <trkpt lat="48.45859" lon="6.92538">
        <ele>431.77</ele>
        <time>2013-08-25T07:25:18Z</time>
      </trkpt>
      <trkpt lat="48.45855" lon="6.92529">
        <ele>431.77</ele>
        <time>2013-08-25T07:25:24Z</time>
      </trkpt>
      <trkpt lat="48.45855" lon="6.92527">
        <ele>431.77</ele>
        <time>2013-08-25T07:25:25Z</time>
      </trkpt>
      <trkpt lat="48.45854" lon="6.92524">
        <ele>431.77</ele>
        <time>2013-08-25T07:25:26Z</time>
      </trkpt>
      <trkpt lat="48.45852" lon="6.92516">
        <ele>430.33</ele>
        <time>2013-08-25T07:25:29Z</time>
      </trkpt>
      <trkpt lat="48.45849" lon="6.92501">
        <ele>428.89</ele>
        <time>2013-08-25T07:25:39Z</time>
      </trkpt>
      <trkpt lat="48.45849" lon="6.92501">
        <ele>428.4</ele>
        <time>2013-08-25T07:26:01Z</time>
      </trkpt>
      <trkpt lat="48.45849" lon="6.925">
        <ele>428.4</ele>
        <time>2013-08-25T07:26:27Z</time>
      </trkpt>
      <trkpt lat="48.45849" lon="6.925">
        <ele>428.89</ele>
        <time>2013-08-25T07:26:42Z</time>
      </trkpt>
      <trkpt lat="48.45849" lon="6.92498">
        <ele>428.89</ele>
        <time>2013-08-25T07:26:43Z</time>
      </trkpt>
      <trkpt lat="48.45849" lon="6.92496">
        <ele>428.4</ele>
        <time>2013-08-25T07:26:44Z</time>
      </trkpt>
      <trkpt lat="48.45836" lon="6.92482">
        <ele>427.92</ele>
        <time>2013-08-25T07:26:55Z</time>
      </trkpt>
      <trkpt lat="48.45809" lon="6.92468">
        <ele>425.52</ele>
        <time>2013-08-25T07:27:03Z</time>
      </trkpt>
      <trkpt lat="48.45801" lon="6.92463">
        <ele>425.52</ele>
        <time>2013-08-25T07:27:05Z</time>
      </trkpt>
      <trkpt lat="48.45789" lon="6.9246">
        <ele>425.04</ele>
        <time>2013-08-25T07:27:08Z</time>
      </trkpt>
      <trkpt lat="48.45764" lon="6.92465">
        <ele>423.6</ele>
        <time>2013-08-25T07:27:14Z</time>
      </trkpt>
      <trkpt lat="48.4576" lon="6.92467">
        <ele>423.6</ele>
        <time>2013-08-25T07:27:15Z</time>
      </trkpt>
      <trkpt lat="48.4574" lon="6.92476">
        <ele>422.16</ele>
        <time>2013-08-25T07:27:20Z</time>
      </trkpt>
      <trkpt lat="48.45736" lon="6.92477">
        <ele>421.68</ele>
        <time>2013-08-25T07:27:21Z</time>
      </trkpt>
      <trkpt lat="48.45691" lon="6.92493">
        <ele>418.79</ele>
        <time>2013-08-25T07:27:32Z</time>
      </trkpt>
      <trkpt lat="48.45675" lon="6.92496">
        <ele>417.83</ele>
        <time>2013-08-25T07:27:35Z</time>
      </trkpt>
      <trkpt lat="48.45631" lon="6.92505">
        <ele>415.43</ele>
        <time>2013-08-25T07:27:46Z</time>
      </trkpt>
      <trkpt lat="48.45617" lon="6.92509">
        <ele>414.47</ele>
        <time>2013-08-25T07:27:58Z</time>
      </trkpt>
      <trkpt lat="48.45604" lon="6.92511">
        <ele>413.02</ele>
        <time>2013-08-25T07:28:09Z</time>
      </trkpt>
      <trkpt lat="48.45603" lon="6.92509">
        <ele>413.02</ele>
        <time>2013-08-25T07:28:10Z</time>
      </trkpt>
      <trkpt lat="48.45601" lon="6.92506">
        <ele>412.54</ele>
        <time>2013-08-25T07:28:11Z</time>
      </trkpt>
      <trkpt lat="48.45598" lon="6.92503">
        <ele>412.54</ele>
        <time>2013-08-25T07:28:12Z</time>
      </trkpt>
      <trkpt lat="48.45596" lon="6.92502">
        <ele>412.54</ele>
        <time>2013-08-25T07:28:13Z</time>
      </trkpt>
      <trkpt lat="48.45594" lon="6.92502">
        <ele>412.54</ele>
        <time>2013-08-25T07:28:14Z</time>
      </trkpt>
      <trkpt lat="48.45568" lon="6.92496">
        <ele>412.54</ele>
        <time>2013-08-25T07:28:26Z</time>
      </trkpt>
      <trkpt lat="48.4555" lon="6.92451">
        <ele>412.54</ele>
        <time>2013-08-25T07:28:40Z</time>
      </trkpt>
      <trkpt lat="48.45536" lon="6.92405">
        <ele>412.54</ele>
        <time>2013-08-25T07:28:54Z</time>
      </trkpt>
      <trkpt lat="48.45528" lon="6.92345">
        <ele>411.58</ele>
        <time>2013-08-25T07:29:04Z</time>
      </trkpt>
      <trkpt lat="48.45528" lon="6.92337">
        <ele>411.58</ele>
        <time>2013-08-25T07:29:05Z</time>
      </trkpt>
      <trkpt lat="48.45534" lon="6.92272">
        <ele>409.18</ele>
        <time>2013-08-25T07:29:13Z</time>
      </trkpt>
      <trkpt lat="48.45537" lon="6.92232">
        <ele>407.74</ele>
        <time>2013-08-25T07:29:18Z</time>
      </trkpt>
      <trkpt lat="48.45545" lon="6.9218">
        <ele>405.81</ele>
        <time>2013-08-25T07:29:28Z</time>
      </trkpt>
      <trkpt lat="48.45549" lon="6.92172">
        <ele>405.81</ele>
        <time>2013-08-25T07:29:36Z</time>
      </trkpt>
      <trkpt lat="48.45549" lon="6.92171">
        <ele>405.81</ele>
        <time>2013-08-25T07:29:37Z</time>
      </trkpt>
      <trkpt lat="48.45549" lon="6.92169">
        <ele>405.81</ele>
        <time>2013-08-25T07:29:38Z</time>
      </trkpt>
      <trkpt lat="48.4555" lon="6.92167">
        <ele>405.81</ele>
        <time>2013-08-25T07:29:39Z</time>
      </trkpt>
      <trkpt lat="48.45554" lon="6.9216">
        <ele>405.81</ele>
        <time>2013-08-25T07:29:43Z</time>
      </trkpt>
      <trkpt lat="48.45555" lon="6.92157">
        <ele>407.26</ele>
        <time>2013-08-25T07:29:44Z</time>
      </trkpt>
      <trkpt lat="48.45555" lon="6.92155">
        <ele>407.26</ele>
        <time>2013-08-25T07:29:45Z</time>
      </trkpt>
      <trkpt lat="48.45555" lon="6.92152">
        <ele>407.26</ele>
        <time>2013-08-25T07:29:46Z</time>
      </trkpt>
      <trkpt lat="48.45555" lon="6.92149">
        <ele>407.26</ele>
        <time>2013-08-25T07:29:47Z</time>
      </trkpt>
      <trkpt lat="48.45554" lon="6.9214">
        <ele>407.26</ele>
        <time>2013-08-25T07:29:51Z</time>
      </trkpt>
      <trkpt lat="48.45555" lon="6.92139">
        <ele>407.26</ele>
        <time>2013-08-25T07:29:52Z</time>
      </trkpt>
      <trkpt lat="48.45555" lon="6.92137">
        <ele>407.26</ele>
        <time>2013-08-25T07:29:53Z</time>
      </trkpt>
      <trkpt lat="48.45553" lon="6.92135">
        <ele>405.81</ele>
        <time>2013-08-25T07:29:56Z</time>
      </trkpt>
      <trkpt lat="48.45552" lon="6.92134">
        <ele>405.81</ele>
        <time>2013-08-25T07:29:57Z</time>
      </trkpt>
      <trkpt lat="48.45551" lon="6.92133">
        <ele>405.81</ele>
        <time>2013-08-25T07:29:58Z</time>
      </trkpt>
      <trkpt lat="48.4555" lon="6.92131">
        <ele>405.81</ele>
        <time>2013-08-25T07:29:59Z</time>
      </trkpt>
      <trkpt lat="48.45548" lon="6.9213">
        <ele>405.33</ele>
        <time>2013-08-25T07:30:00Z</time>
      </trkpt>
      <trkpt lat="48.45547" lon="6.92128">
        <ele>405.33</ele>
        <time>2013-08-25T07:30:01Z</time>
      </trkpt>
      <trkpt lat="48.45545" lon="6.92125">
        <ele>404.85</ele>
        <time>2013-08-25T07:30:02Z</time>
      </trkpt>
      <trkpt lat="48.45543" lon="6.92122">
        <ele>404.85</ele>
        <time>2013-08-25T07:30:03Z</time>
      </trkpt>
      <trkpt lat="48.45522" lon="6.92088">
        <ele>402.45</ele>
        <time>2013-08-25T07:30:13Z</time>
      </trkpt>
      <trkpt lat="48.45517" lon="6.92082">
        <ele>402.45</ele>
        <time>2013-08-25T07:30:17Z</time>
      </trkpt>
      <trkpt lat="48.45516" lon="6.92082">
        <ele>402.45</ele>
        <time>2013-08-25T07:30:18Z</time>
      </trkpt>
      <trkpt lat="48.45515" lon="6.92082">
        <ele>402.45</ele>
        <time>2013-08-25T07:30:19Z</time>
      </trkpt>
      <trkpt lat="48.4551" lon="6.92072">
        <ele>402.45</ele>
        <time>2013-08-25T07:30:30Z</time>
      </trkpt>
      <trkpt lat="48.4551" lon="6.92072">
        <ele>402.93</ele>
        <time>2013-08-25T07:30:48Z</time>
      </trkpt>
      <trkpt lat="48.4551" lon="6.92072">
        <ele>402.45</ele>
        <time>2013-08-25T07:31:10Z</time>
      </trkpt>
      <trkpt lat="48.4551" lon="6.92072">
        <ele>400.53</ele>
        <time>2013-08-25T07:31:29Z</time>
      </trkpt>
      <trkpt lat="48.4551" lon="6.92072">
        <ele>402.93</ele>
        <time>2013-08-25T07:31:39Z</time>
      </trkpt>
      <trkpt lat="48.45511" lon="6.92071">
        <ele>401.01</ele>
        <time>2013-08-25T07:31:45Z</time>
      </trkpt>
      <trkpt lat="48.45511" lon="6.92071">
        <ele>402.93</ele>
        <time>2013-08-25T07:31:53Z</time>
      </trkpt>
      <trkpt lat="48.45511" lon="6.92071">
        <ele>402.93</ele>
        <time>2013-08-25T07:32:13Z</time>
      </trkpt>
      <trkpt lat="48.45507" lon="6.92071">
        <ele>402.93</ele>
        <time>2013-08-25T07:32:33Z</time>
      </trkpt>
      <trkpt lat="48.45503" lon="6.92073">
        <ele>402.93</ele>
        <time>2013-08-25T07:32:37Z</time>
      </trkpt>
      <trkpt lat="48.45501" lon="6.92073">
        <ele>402.93</ele>
        <time>2013-08-25T07:32:38Z</time>
      </trkpt>
      <trkpt lat="48.45498" lon="6.92074">
        <ele>402.93</ele>
        <time>2013-08-25T07:32:39Z</time>
      </trkpt>
      <trkpt lat="48.45477" lon="6.9208">
        <ele>399.57</ele>
        <time>2013-08-25T07:32:43Z</time>
      </trkpt>
      <trkpt lat="48.45455" lon="6.92088">
        <ele>398.12</ele>
        <time>2013-08-25T07:32:46Z</time>
      </trkpt>
      <trkpt lat="48.45449" lon="6.9209">
        <ele>396.2</ele>
        <time>2013-08-25T07:32:47Z</time>
      </trkpt>
      <trkpt lat="48.45444" lon="6.92092">
        <ele>397.16</ele>
        <time>2013-08-25T07:32:48Z</time>
      </trkpt>
      <trkpt lat="48.45439" lon="6.92092">
        <ele>397.16</ele>
        <time>2013-08-25T07:32:49Z</time>
      </trkpt>
      <trkpt lat="48.45436" lon="6.92091">
        <ele>397.16</ele>
        <time>2013-08-25T07:32:50Z</time>
      </trkpt>
      <trkpt lat="48.45434" lon="6.9209">
        <ele>397.16</ele>
        <time>2013-08-25T07:32:51Z</time>
      </trkpt>
      <trkpt lat="48.45432" lon="6.9209">
        <ele>397.64</ele>
        <time>2013-08-25T07:32:52Z</time>
      </trkpt>
      <trkpt lat="48.45431" lon="6.92091">
        <ele>397.16</ele>
        <time>2013-08-25T07:32:53Z</time>
      </trkpt>
      <trkpt lat="48.45429" lon="6.92091">
        <ele>397.16</ele>
        <time>2013-08-25T07:32:54Z</time>
      </trkpt>
      <trkpt lat="48.45428" lon="6.9209">
        <ele>397.64</ele>
        <time>2013-08-25T07:32:55Z</time>
      </trkpt>
      <trkpt lat="48.45427" lon="6.92088">
        <ele>397.64</ele>
        <time>2013-08-25T07:32:56Z</time>
      </trkpt>
      <trkpt lat="48.45406" lon="6.92036">
        <ele>397.64</ele>
        <time>2013-08-25T07:33:08Z</time>
      </trkpt>
      <trkpt lat="48.45379" lon="6.91969">
        <ele>397.64</ele>
        <time>2013-08-25T07:33:22Z</time>
      </trkpt>
      <trkpt lat="48.45347" lon="6.91888">
        <ele>398.12</ele>
        <time>2013-08-25T07:33:38Z</time>
      </trkpt>
      <trkpt lat="48.45309" lon="6.91795">
        <ele>398.12</ele>
        <time>2013-08-25T07:33:56Z</time>
      </trkpt>
      <trkpt lat="48.45279" lon="6.91721">
        <ele>397.16</ele>
        <time>2013-08-25T07:34:11Z</time>
      </trkpt>
      <trkpt lat="48.45292" lon="6.91691">
        <ele>397.16</ele>
        <time>2013-08-25T07:34:20Z</time>
      </trkpt>
      <trkpt lat="48.45305" lon="6.91679">
        <ele>399.08</ele>
        <time>2013-08-25T07:34:27Z</time>
      </trkpt>
      <trkpt lat="48.4533" lon="6.91656">
        <ele>402.45</ele>
        <time>2013-08-25T07:34:41Z</time>
      </trkpt>
      <trkpt lat="48.45335" lon="6.9165">
        <ele>403.41</ele>
        <time>2013-08-25T07:34:45Z</time>
      </trkpt>
      <trkpt lat="48.45336" lon="6.91648">
        <ele>403.41</ele>
        <time>2013-08-25T07:34:46Z</time>
      </trkpt>
      <trkpt lat="48.45337" lon="6.91645">
        <ele>403.41</ele>
        <time>2013-08-25T07:34:48Z</time>
      </trkpt>
      <trkpt lat="48.45337" lon="6.91643">
        <ele>402.45</ele>
        <time>2013-08-25T07:34:49Z</time>
      </trkpt>
      <trkpt lat="48.45338" lon="6.91642">
        <ele>402.45</ele>
        <time>2013-08-25T07:34:50Z</time>
      </trkpt>
      <trkpt lat="48.45339" lon="6.91639">
        <ele>402.45</ele>
        <time>2013-08-25T07:34:51Z</time>
      </trkpt>
      <trkpt lat="48.4534" lon="6.91636">
        <ele>402.45</ele>
        <time>2013-08-25T07:34:52Z</time>
      </trkpt>
      <trkpt lat="48.45341" lon="6.91633">
        <ele>401.97</ele>
        <time>2013-08-25T07:34:53Z</time>
      </trkpt>
      <trkpt lat="48.45348" lon="6.91577">
        <ele>401.97</ele>
        <time>2013-08-25T07:35:09Z</time>
      </trkpt>
      <trkpt lat="48.45347" lon="6.91569">
        <ele>402.93</ele>
        <time>2013-08-25T07:35:11Z</time>
      </trkpt>
      <trkpt lat="48.4532" lon="6.91521">
        <ele>404.85</ele>
        <time>2013-08-25T07:35:27Z</time>
      </trkpt>
      <trkpt lat="48.45298" lon="6.91499">
        <ele>406.77</ele>
        <time>2013-08-25T07:35:41Z</time>
      </trkpt>
      <trkpt lat="48.45275" lon="6.91476">
        <ele>407.26</ele>
        <time>2013-08-25T07:35:53Z</time>
      </trkpt>
      <trkpt lat="48.45246" lon="6.91439">
        <ele>407.74</ele>
        <time>2013-08-25T07:36:09Z</time>
      </trkpt>
      <trkpt lat="48.45224" lon="6.91407">
        <ele>408.22</ele>
        <time>2013-08-25T07:36:21Z</time>
      </trkpt>
      <trkpt lat="48.45205" lon="6.91366">
        <ele>409.18</ele>
        <time>2013-08-25T07:36:34Z</time>
      </trkpt>
      <trkpt lat="48.45188" lon="6.9133">
        <ele>412.06</ele>
        <time>2013-08-25T07:36:46Z</time>
      </trkpt>
      <trkpt lat="48.45176" lon="6.91296">
        <ele>411.1</ele>
        <time>2013-08-25T07:36:58Z</time>
      </trkpt>
      <trkpt lat="48.45175" lon="6.91293">
        <ele>411.58</ele>
        <time>2013-08-25T07:36:59Z</time>
      </trkpt>
      <trkpt lat="48.45175" lon="6.91291">
        <ele>411.58</ele>
        <time>2013-08-25T07:37:00Z</time>
      </trkpt>
      <trkpt lat="48.45174" lon="6.91288">
        <ele>411.58</ele>
        <time>2013-08-25T07:37:01Z</time>
      </trkpt>
      <trkpt lat="48.45173" lon="6.91285">
        <ele>411.58</ele>
        <time>2013-08-25T07:37:02Z</time>
      </trkpt>
      <trkpt lat="48.45172" lon="6.91283">
        <ele>411.58</ele>
        <time>2013-08-25T07:37:03Z</time>
      </trkpt>
      <trkpt lat="48.45168" lon="6.91236">
        <ele>412.06</ele>
        <time>2013-08-25T07:37:20Z</time>
      </trkpt>
      <trkpt lat="48.45188" lon="6.91206">
        <ele>412.06</ele>
        <time>2013-08-25T07:37:29Z</time>
      </trkpt>
      <trkpt lat="48.45201" lon="6.91196">
        <ele>413.5</ele>
        <time>2013-08-25T07:37:36Z</time>
      </trkpt>
      <trkpt lat="48.45203" lon="6.91195">
        <ele>413.5</ele>
        <time>2013-08-25T07:37:37Z</time>
      </trkpt>
      <trkpt lat="48.45206" lon="6.91194">
        <ele>413.5</ele>
        <time>2013-08-25T07:37:38Z</time>
      </trkpt>
      <trkpt lat="48.45208" lon="6.91192">
        <ele>413.5</ele>
        <time>2013-08-25T07:37:39Z</time>
      </trkpt>
      <trkpt lat="48.45209" lon="6.91191">
        <ele>413.5</ele>
        <time>2013-08-25T07:37:40Z</time>
      </trkpt>
      <trkpt lat="48.45211" lon="6.91189">
        <ele>413.5</ele>
        <time>2013-08-25T07:37:41Z</time>
      </trkpt>
      <trkpt lat="48.45213" lon="6.91188">
        <ele>413.5</ele>
        <time>2013-08-25T07:37:42Z</time>
      </trkpt>
      <trkpt lat="48.45221" lon="6.91186">
        <ele>413.98</ele>
        <time>2013-08-25T07:37:48Z</time>
      </trkpt>
      <trkpt lat="48.4523" lon="6.91187">
        <ele>413.98</ele>
        <time>2013-08-25T07:37:53Z</time>
      </trkpt>
      <trkpt lat="48.45232" lon="6.91188">
        <ele>413.98</ele>
        <time>2013-08-25T07:37:54Z</time>
      </trkpt>
      <trkpt lat="48.4524" lon="6.91194">
        <ele>413.98</ele>
        <time>2013-08-25T07:37:58Z</time>
      </trkpt>
      <trkpt lat="48.45256" lon="6.91191">
        <ele>413.98</ele>
        <time>2013-08-25T07:38:05Z</time>
      </trkpt>
      <trkpt lat="48.45257" lon="6.91192">
        <ele>413.98</ele>
        <time>2013-08-25T07:38:06Z</time>
      </trkpt>
      <trkpt lat="48.45259" lon="6.91191">
        <ele>413.98</ele>
        <time>2013-08-25T07:38:07Z</time>
      </trkpt>
      <trkpt lat="48.45261" lon="6.91191">
        <ele>413.98</ele>
        <time>2013-08-25T07:38:08Z</time>
      </trkpt>
      <trkpt lat="48.45263" lon="6.91191">
        <ele>413.98</ele>
        <time>2013-08-25T07:38:09Z</time>
      </trkpt>
      <trkpt lat="48.45265" lon="6.91192">
        <ele>413.98</ele>
        <time>2013-08-25T07:38:10Z</time>
      </trkpt>
      <trkpt lat="48.45267" lon="6.91193">
        <ele>413.98</ele>
        <time>2013-08-25T07:38:11Z</time>
      </trkpt>
      <trkpt lat="48.4527" lon="6.91192">
        <ele>413.98</ele>
        <time>2013-08-25T07:38:12Z</time>
      </trkpt>
      <trkpt lat="48.45273" lon="6.91192">
        <ele>413.98</ele>
        <time>2013-08-25T07:38:13Z</time>
      </trkpt>
      <trkpt lat="48.45305" lon="6.91198">
        <ele>413.98</ele>
        <time>2013-08-25T07:38:24Z</time>
      </trkpt>
      <trkpt lat="48.45306" lon="6.91201">
        <ele>413.98</ele>
        <time>2013-08-25T07:38:25Z</time>
      </trkpt>
      <trkpt lat="48.45338" lon="6.91177">
        <ele>413.98</ele>
        <time>2013-08-25T07:38:36Z</time>
      </trkpt>
      <trkpt lat="48.45341" lon="6.91171">
        <ele>413.98</ele>
        <time>2013-08-25T07:38:38Z</time>
      </trkpt>
      <trkpt lat="48.45362" lon="6.91135">
        <ele>413.98</ele>
        <time>2013-08-25T07:38:49Z</time>
      </trkpt>
      <trkpt lat="48.45389" lon="6.91101">
        <ele>413.5</ele>
        <time>2013-08-25T07:39:00Z</time>
      </trkpt>
      <trkpt lat="48.45384" lon="6.91051">
        <ele>412.06</ele>
        <time>2013-08-25T07:39:12Z</time>
      </trkpt>
      <trkpt lat="48.45371" lon="6.90983">
        <ele>412.54</ele>
        <time>2013-08-25T07:39:26Z</time>
      </trkpt>
      <trkpt lat="48.45346" lon="6.90931">
        <ele>412.54</ele>
        <time>2013-08-25T07:39:40Z</time>
      </trkpt>
      <trkpt lat="48.4532" lon="6.90883">
        <ele>412.54</ele>
        <time>2013-08-25T07:39:54Z</time>
      </trkpt>
      <trkpt lat="48.45295" lon="6.90836">
        <ele>412.54</ele>
        <time>2013-08-25T07:40:07Z</time>
      </trkpt>
      <trkpt lat="48.45261" lon="6.90784">
        <ele>412.54</ele>
        <time>2013-08-25T07:40:22Z</time>
      </trkpt>
      <trkpt lat="48.45243" lon="6.90745">
        <ele>412.06</ele>
        <time>2013-08-25T07:40:33Z</time>
      </trkpt>
      <trkpt lat="48.45218" lon="6.90691">
        <ele>411.58</ele>
        <time>2013-08-25T07:40:48Z</time>
      </trkpt>
      <trkpt lat="48.45207" lon="6.90659">
        <ele>411.1</ele>
        <time>2013-08-25T07:40:59Z</time>
      </trkpt>
      <trkpt lat="48.45207" lon="6.90655">
        <ele>411.1</ele>
        <time>2013-08-25T07:41:00Z</time>
      </trkpt>
      <trkpt lat="48.45211" lon="6.9064">
        <ele>411.1</ele>
        <time>2013-08-25T07:41:05Z</time>
      </trkpt>
      <trkpt lat="48.45212" lon="6.90635">
        <ele>411.1</ele>
        <time>2013-08-25T07:41:06Z</time>
      </trkpt>
      <trkpt lat="48.45213" lon="6.90632">
        <ele>411.1</ele>
        <time>2013-08-25T07:41:07Z</time>
      </trkpt>
      <trkpt lat="48.45214" lon="6.90629">
        <ele>411.1</ele>
        <time>2013-08-25T07:41:08Z</time>
      </trkpt>
      <trkpt lat="48.45215" lon="6.90627">
        <ele>411.1</ele>
        <time>2013-08-25T07:41:09Z</time>
      </trkpt>
      <trkpt lat="48.45216" lon="6.90626">
        <ele>411.1</ele>
        <time>2013-08-25T07:41:10Z</time>
      </trkpt>
      <trkpt lat="48.45243" lon="6.9061">
        <ele>411.1</ele>
        <time>2013-08-25T07:41:23Z</time>
      </trkpt>
      <trkpt lat="48.45266" lon="6.90601">
        <ele>411.1</ele>
        <time>2013-08-25T07:41:34Z</time>
      </trkpt>
      <trkpt lat="48.45282" lon="6.90599">
        <ele>411.1</ele>
        <time>2013-08-25T07:41:42Z</time>
      </trkpt>
      <trkpt lat="48.45285" lon="6.90598">
        <ele>412.54</ele>
        <time>2013-08-25T07:41:43Z</time>
      </trkpt>
      <trkpt lat="48.45321" lon="6.90589">
        <ele>412.06</ele>
        <time>2013-08-25T07:41:55Z</time>
      </trkpt>
      <trkpt lat="48.45323" lon="6.90589">
        <ele>412.06</ele>
        <time>2013-08-25T07:41:56Z</time>
      </trkpt>
      <trkpt lat="48.45357" lon="6.90598">
        <ele>412.06</ele>
        <time>2013-08-25T07:42:09Z</time>
      </trkpt>
      <trkpt lat="48.45391" lon="6.90613">
        <ele>412.06</ele>
        <time>2013-08-25T07:42:22Z</time>
      </trkpt>
      <trkpt lat="48.45416" lon="6.9063">
        <ele>410.62</ele>
        <time>2013-08-25T07:42:32Z</time>
      </trkpt>
      <trkpt lat="48.45441" lon="6.90651">
        <ele>410.62</ele>
        <time>2013-08-25T07:42:43Z</time>
      </trkpt>
      <trkpt lat="48.45456" lon="6.90667">
        <ele>412.06</ele>
        <time>2013-08-25T07:42:50Z</time>
      </trkpt>
      <trkpt lat="48.45497" lon="6.90673">
        <ele>410.14</ele>
        <time>2013-08-25T07:43:01Z</time>
      </trkpt>
      <trkpt lat="48.45516" lon="6.90639">
        <ele>411.58</ele>
        <time>2013-08-25T07:43:12Z</time>
      </trkpt>
      <trkpt lat="48.45503" lon="6.90607">
        <ele>412.54</ele>
        <time>2013-08-25T07:43:24Z</time>
      </trkpt>
      <trkpt lat="48.4549" lon="6.90571">
        <ele>413.5</ele>
        <time>2013-08-25T07:43:38Z</time>
      </trkpt>
      <trkpt lat="48.45485" lon="6.90553">
        <ele>413.98</ele>
        <time>2013-08-25T07:43:45Z</time>
      </trkpt>
      <trkpt lat="48.45476" lon="6.90521">
        <ele>415.43</ele>
        <time>2013-08-25T07:43:59Z</time>
      </trkpt>
      <trkpt lat="48.4547" lon="6.90505">
        <ele>416.39</ele>
        <time>2013-08-25T07:44:05Z</time>
      </trkpt>
      <trkpt lat="48.45459" lon="6.90481">
        <ele>417.35</ele>
        <time>2013-08-25T07:44:20Z</time>
      </trkpt>
      <trkpt lat="48.45459" lon="6.90471">
        <ele>417.83</ele>
        <time>2013-08-25T07:44:24Z</time>
      </trkpt>
      <trkpt lat="48.4546" lon="6.90468">
        <ele>417.83</ele>
        <time>2013-08-25T07:44:25Z</time>
      </trkpt>
      <trkpt lat="48.45459" lon="6.90432">
        <ele>419.75</ele>
        <time>2013-08-25T07:44:39Z</time>
      </trkpt>
      <trkpt lat="48.45456" lon="6.90406">
        <ele>423.12</ele>
        <time>2013-08-25T07:44:51Z</time>
      </trkpt>
      <trkpt lat="48.45453" lon="6.90391">
        <ele>421.68</ele>
        <time>2013-08-25T07:45:05Z</time>
      </trkpt>
      <trkpt lat="48.45454" lon="6.90387">
        <ele>421.68</ele>
        <time>2013-08-25T07:45:17Z</time>
      </trkpt>
      <trkpt lat="48.45454" lon="6.90384">
        <ele>421.68</ele>
        <time>2013-08-25T07:45:18Z</time>
      </trkpt>
      <trkpt lat="48.45455" lon="6.90381">
        <ele>421.68</ele>
        <time>2013-08-25T07:45:19Z</time>
      </trkpt>
      <trkpt lat="48.45459" lon="6.90359">
        <ele>423.12</ele>
        <time>2013-08-25T07:45:28Z</time>
      </trkpt>
      <trkpt lat="48.45468" lon="6.90317">
        <ele>424.56</ele>
        <time>2013-08-25T07:45:42Z</time>
      </trkpt>
      <trkpt lat="48.45473" lon="6.90289">
        <ele>425.52</ele>
        <time>2013-08-25T07:45:56Z</time>
      </trkpt>
      <trkpt lat="48.4547" lon="6.90271">
        <ele>426</ele>
        <time>2013-08-25T07:46:15Z</time>
      </trkpt>
      <trkpt lat="48.45465" lon="6.90232">
        <ele>427.92</ele>
        <time>2013-08-25T07:46:30Z</time>
      </trkpt>
      <trkpt lat="48.45457" lon="6.90184">
        <ele>428.89</ele>
        <time>2013-08-25T07:46:45Z</time>
      </trkpt>
      <trkpt lat="48.45456" lon="6.90174">
        <ele>429.37</ele>
        <time>2013-08-25T07:46:48Z</time>
      </trkpt>
      <trkpt lat="48.45455" lon="6.90171">
        <ele>429.37</ele>
        <time>2013-08-25T07:46:49Z</time>
      </trkpt>
      <trkpt lat="48.45454" lon="6.9014">
        <ele>430.33</ele>
        <time>2013-08-25T07:47:02Z</time>
      </trkpt>
      <trkpt lat="48.45454" lon="6.9014">
        <ele>430.33</ele>
        <time>2013-08-25T07:47:25Z</time>
      </trkpt>
      <trkpt lat="48.45454" lon="6.9014">
        <ele>430.33</ele>
        <time>2013-08-25T07:47:56Z</time>
      </trkpt>
      <trkpt lat="48.45454" lon="6.9014">
        <ele>430.33</ele>
        <time>2013-08-25T07:48:23Z</time>
      </trkpt>
      <trkpt lat="48.45454" lon="6.9014">
        <ele>430.81</ele>
        <time>2013-08-25T07:49:01Z</time>
      </trkpt>
      <trkpt lat="48.45453" lon="6.90139">
        <ele>430.81</ele>
        <time>2013-08-25T07:49:42Z</time>
      </trkpt>
      <trkpt lat="48.45453" lon="6.90139">
        <ele>430.81</ele>
        <time>2013-08-25T07:50:13Z</time>
      </trkpt>
      <trkpt lat="48.45454" lon="6.90139">
        <ele>430.81</ele>
        <time>2013-08-25T07:50:40Z</time>
      </trkpt>
      <trkpt lat="48.45454" lon="6.90139">
        <ele>432.25</ele>
        <time>2013-08-25T07:50:55Z</time>
      </trkpt>
      <trkpt lat="48.45454" lon="6.90139">
        <ele>430.33</ele>
        <time>2013-08-25T07:51:20Z</time>
      </trkpt>
      <trkpt lat="48.45454" lon="6.90139">
        <ele>430.33</ele>
        <time>2013-08-25T07:51:51Z</time>
      </trkpt>
      <trkpt lat="48.45453" lon="6.9014">
        <ele>430.33</ele>
        <time>2013-08-25T07:52:15Z</time>
      </trkpt>
      <trkpt lat="48.45453" lon="6.9014">
        <ele>430.33</ele>
        <time>2013-08-25T07:52:43Z</time>
      </trkpt>
      <trkpt lat="48.45452" lon="6.90139">
        <ele>432.25</ele>
        <time>2013-08-25T07:52:56Z</time>
      </trkpt>
      <trkpt lat="48.45452" lon="6.90139">
        <ele>430.81</ele>
        <time>2013-08-25T07:52:58Z</time>
      </trkpt>
      <trkpt lat="48.45452" lon="6.90138">
        <ele>430.33</ele>
        <time>2013-08-25T07:53:27Z</time>
      </trkpt>
      <trkpt lat="48.45452" lon="6.90138">
        <ele>430.33</ele>
        <time>2013-08-25T07:54:00Z</time>
      </trkpt>
      <trkpt lat="48.45451" lon="6.90138">
        <ele>430.33</ele>
        <time>2013-08-25T07:54:29Z</time>
      </trkpt>
      <trkpt lat="48.45453" lon="6.9014">
        <ele>430.33</ele>
        <time>2013-08-25T07:54:50Z</time>
      </trkpt>
      <trkpt lat="48.45455" lon="6.90141">
        <ele>430.33</ele>
        <time>2013-08-25T07:54:52Z</time>
      </trkpt>
      <trkpt lat="48.45457" lon="6.90141">
        <ele>429.85</ele>
        <time>2013-08-25T07:54:53Z</time>
      </trkpt>
      <trkpt lat="48.4546" lon="6.90141">
        <ele>429.85</ele>
        <time>2013-08-25T07:54:54Z</time>
      </trkpt>
      <trkpt lat="48.45464" lon="6.90141">
        <ele>429.85</ele>
        <time>2013-08-25T07:54:55Z</time>
      </trkpt>
      <trkpt lat="48.45468" lon="6.90141">
        <ele>429.85</ele>
        <time>2013-08-25T07:54:56Z</time>
      </trkpt>
      <trkpt lat="48.45472" lon="6.90141">
        <ele>430.81</ele>
        <time>2013-08-25T07:54:57Z</time>
      </trkpt>
      <trkpt lat="48.45486" lon="6.90138">
        <ele>428.89</ele>
        <time>2013-08-25T07:55:01Z</time>
      </trkpt>
      <trkpt lat="48.45489" lon="6.90139">
        <ele>428.89</ele>
        <time>2013-08-25T07:55:02Z</time>
      </trkpt>
      <trkpt lat="48.45538" lon="6.9014">
        <ele>428.4</ele>
        <time>2013-08-25T07:55:15Z</time>
      </trkpt>
      <trkpt lat="48.4554" lon="6.9014">
        <ele>428.4</ele>
        <time>2013-08-25T07:55:16Z</time>
      </trkpt>
      <trkpt lat="48.45542" lon="6.9014">
        <ele>427.92</ele>
        <time>2013-08-25T07:55:17Z</time>
      </trkpt>
      <trkpt lat="48.45545" lon="6.90141">
        <ele>427.92</ele>
        <time>2013-08-25T07:55:18Z</time>
      </trkpt>
      <trkpt lat="48.45548" lon="6.90141">
        <ele>427.92</ele>
        <time>2013-08-25T07:55:19Z</time>
      </trkpt>
      <trkpt lat="48.45552" lon="6.90141">
        <ele>427.44</ele>
        <time>2013-08-25T07:55:20Z</time>
      </trkpt>
      <trkpt lat="48.45555" lon="6.90141">
        <ele>427.44</ele>
        <time>2013-08-25T07:55:21Z</time>
      </trkpt>
      <trkpt lat="48.45575" lon="6.90154">
        <ele>426.96</ele>
        <time>2013-08-25T07:55:27Z</time>
      </trkpt>
      <trkpt lat="48.45577" lon="6.90158">
        <ele>426.96</ele>
        <time>2013-08-25T07:55:28Z</time>
      </trkpt>
      <trkpt lat="48.45597" lon="6.90186">
        <ele>426.96</ele>
        <time>2013-08-25T07:55:40Z</time>
      </trkpt>
      <trkpt lat="48.45624" lon="6.90208">
        <ele>428.4</ele>
        <time>2013-08-25T07:55:48Z</time>
      </trkpt>
      <trkpt lat="48.45663" lon="6.90254">
        <ele>428.4</ele>
        <time>2013-08-25T07:55:58Z</time>
      </trkpt>
      <trkpt lat="48.45691" lon="6.90298">
        <ele>428.89</ele>
        <time>2013-08-25T07:56:09Z</time>
      </trkpt>
      <trkpt lat="48.45706" lon="6.90315">
        <ele>429.37</ele>
        <time>2013-08-25T07:56:16Z</time>
      </trkpt>
      <trkpt lat="48.45709" lon="6.90318">
        <ele>429.37</ele>
        <time>2013-08-25T07:56:17Z</time>
      </trkpt>
      <trkpt lat="48.45712" lon="6.90321">
        <ele>429.85</ele>
        <time>2013-08-25T07:56:18Z</time>
      </trkpt>
      <trkpt lat="48.45748" lon="6.90349">
        <ele>429.85</ele>
        <time>2013-08-25T07:56:31Z</time>
      </trkpt>
      <trkpt lat="48.4578" lon="6.90373">
        <ele>428.4</ele>
        <time>2013-08-25T07:56:41Z</time>
      </trkpt>
      <trkpt lat="48.45826" lon="6.90373">
        <ele>426.48</ele>
        <time>2013-08-25T07:56:53Z</time>
      </trkpt>
      <trkpt lat="48.45829" lon="6.90375">
        <ele>426.48</ele>
        <time>2013-08-25T07:56:54Z</time>
      </trkpt>
      <trkpt lat="48.4585" lon="6.90426">
        <ele>425.52</ele>
        <time>2013-08-25T07:57:05Z</time>
      </trkpt>
      <trkpt lat="48.45853" lon="6.90487">
        <ele>422.64</ele>
        <time>2013-08-25T07:57:15Z</time>
      </trkpt>
      <trkpt lat="48.45854" lon="6.90494">
        <ele>422.64</ele>
        <time>2013-08-25T07:57:16Z</time>
      </trkpt>
      <trkpt lat="48.45855" lon="6.90502">
        <ele>422.64</ele>
        <time>2013-08-25T07:57:17Z</time>
      </trkpt>
      <trkpt lat="48.45856" lon="6.90509">
        <ele>422.16</ele>
        <time>2013-08-25T07:57:18Z</time>
      </trkpt>
      <trkpt lat="48.45857" lon="6.90516">
        <ele>422.16</ele>
        <time>2013-08-25T07:57:19Z</time>
      </trkpt>
      <trkpt lat="48.45859" lon="6.9053">
        <ele>422.16</ele>
        <time>2013-08-25T07:57:21Z</time>
      </trkpt>
      <trkpt lat="48.45859" lon="6.90551">
        <ele>421.68</ele>
        <time>2013-08-25T07:57:24Z</time>
      </trkpt>
      <trkpt lat="48.45859" lon="6.90558">
        <ele>420.71</ele>
        <time>2013-08-25T07:57:25Z</time>
      </trkpt>
      <trkpt lat="48.45857" lon="6.90564">
        <ele>420.71</ele>
        <time>2013-08-25T07:57:26Z</time>
      </trkpt>
      <trkpt lat="48.45848" lon="6.9059">
        <ele>420.23</ele>
        <time>2013-08-25T07:57:30Z</time>
      </trkpt>
      <trkpt lat="48.45846" lon="6.90596">
        <ele>419.75</ele>
        <time>2013-08-25T07:57:31Z</time>
      </trkpt>
      <trkpt lat="48.45841" lon="6.9061">
        <ele>418.79</ele>
        <time>2013-08-25T07:57:33Z</time>
      </trkpt>
      <trkpt lat="48.4584" lon="6.90618">
        <ele>418.31</ele>
        <time>2013-08-25T07:57:34Z</time>
      </trkpt>
      <trkpt lat="48.45839" lon="6.90625">
        <ele>418.31</ele>
        <time>2013-08-25T07:57:35Z</time>
      </trkpt>
      <trkpt lat="48.45838" lon="6.90639">
        <ele>417.83</ele>
        <time>2013-08-25T07:57:37Z</time>
      </trkpt>
      <trkpt lat="48.45838" lon="6.90647">
        <ele>416.87</ele>
        <time>2013-08-25T07:57:38Z</time>
      </trkpt>
      <trkpt lat="48.45838" lon="6.90654">
        <ele>416.87</ele>
        <time>2013-08-25T07:57:39Z</time>
      </trkpt>
      <trkpt lat="48.4584" lon="6.90704">
        <ele>415.43</ele>
        <time>2013-08-25T07:57:46Z</time>
      </trkpt>
      <trkpt lat="48.45839" lon="6.90735">
        <ele>413.5</ele>
        <time>2013-08-25T07:57:51Z</time>
      </trkpt>
      <trkpt lat="48.45828" lon="6.90755">
        <ele>413.5</ele>
        <time>2013-08-25T07:57:59Z</time>
      </trkpt>
      <trkpt lat="48.45816" lon="6.90801">
        <ele>412.06</ele>
        <time>2013-08-25T07:58:09Z</time>
      </trkpt>
      <trkpt lat="48.45815" lon="6.90824">
        <ele>411.58</ele>
        <time>2013-08-25T07:58:20Z</time>
      </trkpt>
      <trkpt lat="48.45816" lon="6.90863">
        <ele>411.1</ele>
        <time>2013-08-25T07:58:34Z</time>
      </trkpt>
      <trkpt lat="48.45825" lon="6.90919">
        <ele>411.1</ele>
        <time>2013-08-25T07:58:47Z</time>
      </trkpt>
      <trkpt lat="48.4583" lon="6.90986">
        <ele>411.1</ele>
        <time>2013-08-25T07:58:59Z</time>
      </trkpt>
      <trkpt lat="48.45832" lon="6.91054">
        <ele>411.58</ele>
        <time>2013-08-25T07:59:11Z</time>
      </trkpt>
      <trkpt lat="48.45835" lon="6.9112">
        <ele>411.58</ele>
        <time>2013-08-25T07:59:25Z</time>
      </trkpt>
      <trkpt lat="48.45844" lon="6.91166">
        <ele>411.58</ele>
        <time>2013-08-25T07:59:35Z</time>
      </trkpt>
      <trkpt lat="48.45852" lon="6.91213">
        <ele>411.58</ele>
        <time>2013-08-25T07:59:43Z</time>
      </trkpt>
      <trkpt lat="48.45877" lon="6.91267">
        <ele>411.58</ele>
        <time>2013-08-25T07:59:55Z</time>
      </trkpt>
      <trkpt lat="48.45911" lon="6.9132">
        <ele>412.54</ele>
        <time>2013-08-25T08:00:08Z</time>
      </trkpt>
      <trkpt lat="48.4594" lon="6.91343">
        <ele>413.02</ele>
        <time>2013-08-25T08:00:20Z</time>
      </trkpt>
      <trkpt lat="48.45952" lon="6.91348">
        <ele>413.02</ele>
        <time>2013-08-25T08:00:25Z</time>
      </trkpt>
      <trkpt lat="48.45955" lon="6.9135">
        <ele>413.02</ele>
        <time>2013-08-25T08:00:26Z</time>
      </trkpt>
      <trkpt lat="48.45958" lon="6.91352">
        <ele>413.5</ele>
        <time>2013-08-25T08:00:27Z</time>
      </trkpt>
      <trkpt lat="48.46005" lon="6.91386">
        <ele>414.47</ele>
        <time>2013-08-25T08:00:40Z</time>
      </trkpt>
      <trkpt lat="48.46031" lon="6.91429">
        <ele>414.47</ele>
        <time>2013-08-25T08:00:52Z</time>
      </trkpt>
      <trkpt lat="48.46061" lon="6.91455">
        <ele>414.47</ele>
        <time>2013-08-25T08:01:03Z</time>
      </trkpt>
      <trkpt lat="48.46099" lon="6.91477">
        <ele>414.47</ele>
        <time>2013-08-25T08:01:16Z</time>
      </trkpt>
      <trkpt lat="48.46139" lon="6.91497">
        <ele>414.47</ele>
        <time>2013-08-25T08:01:26Z</time>
      </trkpt>
      <trkpt lat="48.46172" lon="6.91522">
        <ele>414.47</ele>
        <time>2013-08-25T08:01:37Z</time>
      </trkpt>
      <trkpt lat="48.46184" lon="6.91524">
        <ele>415.43</ele>
        <time>2013-08-25T08:01:49Z</time>
      </trkpt>
      <trkpt lat="48.4619" lon="6.9153">
        <ele>415.43</ele>
        <time>2013-08-25T08:02:10Z</time>
      </trkpt>
      <trkpt lat="48.46191" lon="6.91531">
        <ele>415.43</ele>
        <time>2013-08-25T08:02:11Z</time>
      </trkpt>
      <trkpt lat="48.46192" lon="6.91533">
        <ele>415.43</ele>
        <time>2013-08-25T08:02:25Z</time>
      </trkpt>
      <trkpt lat="48.46193" lon="6.91534">
        <ele>415.43</ele>
        <time>2013-08-25T08:02:52Z</time>
      </trkpt>
      <trkpt lat="48.46193" lon="6.91534">
        <ele>415.91</ele>
        <time>2013-08-25T08:03:04Z</time>
      </trkpt>
      <trkpt lat="48.46193" lon="6.91534">
        <ele>415.43</ele>
        <time>2013-08-25T08:03:28Z</time>
      </trkpt>
      <trkpt lat="48.46192" lon="6.91529">
        <ele>415.43</ele>
        <time>2013-08-25T08:03:50Z</time>
      </trkpt>
      <trkpt lat="48.46188" lon="6.91498">
        <ele>415.43</ele>
        <time>2013-08-25T08:04:01Z</time>
      </trkpt>
      <trkpt lat="48.46187" lon="6.91494">
        <ele>415.43</ele>
        <time>2013-08-25T08:04:02Z</time>
      </trkpt>
      <trkpt lat="48.46187" lon="6.9149">
        <ele>415.43</ele>
        <time>2013-08-25T08:04:03Z</time>
      </trkpt>
      <trkpt lat="48.46184" lon="6.91477">
        <ele>415.43</ele>
        <time>2013-08-25T08:04:07Z</time>
      </trkpt>
      <trkpt lat="48.46184" lon="6.91473">
        <ele>415.43</ele>
        <time>2013-08-25T08:04:08Z</time>
      </trkpt>
      <trkpt lat="48.46183" lon="6.91469">
        <ele>415.43</ele>
        <time>2013-08-25T08:04:09Z</time>
      </trkpt>
      <trkpt lat="48.46182" lon="6.91465">
        <ele>415.43</ele>
        <time>2013-08-25T08:04:10Z</time>
      </trkpt>
      <trkpt lat="48.46182" lon="6.91462">
        <ele>415.43</ele>
        <time>2013-08-25T08:04:11Z</time>
      </trkpt>
      <trkpt lat="48.46168" lon="6.91405">
        <ele>416.39</ele>
        <time>2013-08-25T08:04:26Z</time>
      </trkpt>
      <trkpt lat="48.46158" lon="6.91342">
        <ele>416.39</ele>
        <time>2013-08-25T08:04:40Z</time>
      </trkpt>
      <trkpt lat="48.46143" lon="6.91287">
        <ele>416.39</ele>
        <time>2013-08-25T08:04:53Z</time>
      </trkpt>
      <trkpt lat="48.46139" lon="6.9123">
        <ele>416.87</ele>
        <time>2013-08-25T08:05:06Z</time>
      </trkpt>
      <trkpt lat="48.46129" lon="6.91165">
        <ele>415.43</ele>
        <time>2013-08-25T08:05:19Z</time>
      </trkpt>
      <trkpt lat="48.46116" lon="6.9109">
        <ele>413.98</ele>
        <time>2013-08-25T08:05:32Z</time>
      </trkpt>
      <trkpt lat="48.46107" lon="6.91035">
        <ele>413.5</ele>
        <time>2013-08-25T08:05:43Z</time>
      </trkpt>
      <trkpt lat="48.46111" lon="6.90969">
        <ele>413.5</ele>
        <time>2013-08-25T08:05:56Z</time>
      </trkpt>
      <trkpt lat="48.46109" lon="6.90941">
        <ele>414.47</ele>
        <time>2013-08-25T08:06:02Z</time>
      </trkpt>
      <trkpt lat="48.46124" lon="6.90905">
        <ele>417.35</ele>
        <time>2013-08-25T08:06:12Z</time>
      </trkpt>
      <trkpt lat="48.46144" lon="6.90874">
        <ele>419.27</ele>
        <time>2013-08-25T08:06:24Z</time>
      </trkpt>
      <trkpt lat="48.46133" lon="6.90843">
        <ele>420.23</ele>
        <time>2013-08-25T08:06:35Z</time>
      </trkpt>
      <trkpt lat="48.46122" lon="6.90832">
        <ele>420.23</ele>
        <time>2013-08-25T08:06:41Z</time>
      </trkpt>
      <trkpt lat="48.46094" lon="6.9082">
        <ele>420.23</ele>
        <time>2013-08-25T08:06:51Z</time>
      </trkpt>
      <trkpt lat="48.46063" lon="6.90779">
        <ele>420.23</ele>
        <time>2013-08-25T08:07:02Z</time>
      </trkpt>
      <trkpt lat="48.46048" lon="6.90727">
        <ele>419.75</ele>
        <time>2013-08-25T08:07:14Z</time>
      </trkpt>
      <trkpt lat="48.46049" lon="6.90722">
        <ele>419.75</ele>
        <time>2013-08-25T08:07:15Z</time>
      </trkpt>
      <trkpt lat="48.46058" lon="6.90701">
        <ele>421.19</ele>
        <time>2013-08-25T08:07:19Z</time>
      </trkpt>
      <trkpt lat="48.46078" lon="6.90651">
        <ele>422.16</ele>
        <time>2013-08-25T08:07:31Z</time>
      </trkpt>
      <trkpt lat="48.46096" lon="6.90593">
        <ele>421.68</ele>
        <time>2013-08-25T08:07:45Z</time>
      </trkpt>
      <trkpt lat="48.46095" lon="6.90566">
        <ele>420.23</ele>
        <time>2013-08-25T08:07:50Z</time>
      </trkpt>
      <trkpt lat="48.46096" lon="6.90559">
        <ele>419.75</ele>
        <time>2013-08-25T08:07:51Z</time>
      </trkpt>
      <trkpt lat="48.4609" lon="6.90482">
        <ele>417.83</ele>
        <time>2013-08-25T08:08:02Z</time>
      </trkpt>
      <trkpt lat="48.46089" lon="6.90474">
        <ele>417.35</ele>
        <time>2013-08-25T08:08:03Z</time>
      </trkpt>
      <trkpt lat="48.46086" lon="6.90458">
        <ele>416.87</ele>
        <time>2013-08-25T08:08:05Z</time>
      </trkpt>
      <trkpt lat="48.46085" lon="6.9045">
        <ele>415.91</ele>
        <time>2013-08-25T08:08:06Z</time>
      </trkpt>
      <trkpt lat="48.46084" lon="6.90442">
        <ele>415.91</ele>
        <time>2013-08-25T08:08:07Z</time>
      </trkpt>
      <trkpt lat="48.46078" lon="6.90356">
        <ele>412.54</ele>
        <time>2013-08-25T08:08:17Z</time>
      </trkpt>
      <trkpt lat="48.4608" lon="6.90337">
        <ele>412.06</ele>
        <time>2013-08-25T08:08:19Z</time>
      </trkpt>
      <trkpt lat="48.46081" lon="6.90304">
        <ele>410.62</ele>
        <time>2013-08-25T08:08:23Z</time>
      </trkpt>
      <trkpt lat="48.4608" lon="6.9029">
        <ele>410.14</ele>
        <time>2013-08-25T08:08:25Z</time>
      </trkpt>
      <trkpt lat="48.46078" lon="6.90283">
        <ele>409.18</ele>
        <time>2013-08-25T08:08:26Z</time>
      </trkpt>
      <trkpt lat="48.46069" lon="6.90254">
        <ele>407.74</ele>
        <time>2013-08-25T08:08:30Z</time>
      </trkpt>
      <trkpt lat="48.46063" lon="6.90241">
        <ele>407.26</ele>
        <time>2013-08-25T08:08:32Z</time>
      </trkpt>
      <trkpt lat="48.46059" lon="6.90236">
        <ele>406.29</ele>
        <time>2013-08-25T08:08:33Z</time>
      </trkpt>
      <trkpt lat="48.46055" lon="6.90231">
        <ele>406.29</ele>
        <time>2013-08-25T08:08:34Z</time>
      </trkpt>
      <trkpt lat="48.4604" lon="6.90216">
        <ele>406.77</ele>
        <time>2013-08-25T08:08:38Z</time>
      </trkpt>
      <trkpt lat="48.46036" lon="6.90214">
        <ele>407.26</ele>
        <time>2013-08-25T08:08:39Z</time>
      </trkpt>
      <trkpt lat="48.46033" lon="6.90212">
        <ele>407.26</ele>
        <time>2013-08-25T08:08:40Z</time>
      </trkpt>
      <trkpt lat="48.45997" lon="6.90184">
        <ele>407.26</ele>
        <time>2013-08-25T08:08:52Z</time>
      </trkpt>
      <trkpt lat="48.45972" lon="6.90153">
        <ele>407.26</ele>
        <time>2013-08-25T08:09:01Z</time>
      </trkpt>
      <trkpt lat="48.45967" lon="6.90146">
        <ele>408.22</ele>
        <time>2013-08-25T08:09:03Z</time>
      </trkpt>
      <trkpt lat="48.4594" lon="6.90111">
        <ele>407.26</ele>
        <time>2013-08-25T08:09:12Z</time>
      </trkpt>
      <trkpt lat="48.45939" lon="6.90106">
        <ele>407.26</ele>
        <time>2013-08-25T08:09:13Z</time>
      </trkpt>
      <trkpt lat="48.45938" lon="6.90102">
        <ele>407.26</ele>
        <time>2013-08-25T08:09:14Z</time>
      </trkpt>
      <trkpt lat="48.45921" lon="6.90053">
        <ele>405.33</ele>
        <time>2013-08-25T08:09:23Z</time>
      </trkpt>
      <trkpt lat="48.45921" lon="6.90046">
        <ele>404.37</ele>
        <time>2013-08-25T08:09:24Z</time>
      </trkpt>
      <trkpt lat="48.45922" lon="6.90039">
        <ele>404.37</ele>
        <time>2013-08-25T08:09:25Z</time>
      </trkpt>
      <trkpt lat="48.45924" lon="6.90033">
        <ele>404.37</ele>
        <time>2013-08-25T08:09:26Z</time>
      </trkpt>
      <trkpt lat="48.45927" lon="6.90028">
        <ele>404.37</ele>
        <time>2013-08-25T08:09:27Z</time>
      </trkpt>
      <trkpt lat="48.45955" lon="6.90005">
        <ele>405.81</ele>
        <time>2013-08-25T08:09:37Z</time>
      </trkpt>
      <trkpt lat="48.45959" lon="6.90006">
        <ele>405.81</ele>
        <time>2013-08-25T08:09:38Z</time>
      </trkpt>
      <trkpt lat="48.45987" lon="6.90001">
        <ele>409.18</ele>
        <time>2013-08-25T08:09:49Z</time>
      </trkpt>
      <trkpt lat="48.45995" lon="6.89996">
        <ele>410.62</ele>
        <time>2013-08-25T08:09:52Z</time>
      </trkpt>
      <trkpt lat="48.45997" lon="6.89993">
        <ele>410.62</ele>
        <time>2013-08-25T08:09:53Z</time>
      </trkpt>
      <trkpt lat="48.45999" lon="6.8999">
        <ele>410.62</ele>
        <time>2013-08-25T08:09:54Z</time>
      </trkpt>
      <trkpt lat="48.46001" lon="6.89986">
        <ele>411.1</ele>
        <time>2013-08-25T08:09:55Z</time>
      </trkpt>
      <trkpt lat="48.46013" lon="6.89937">
        <ele>413.02</ele>
        <time>2013-08-25T08:10:08Z</time>
      </trkpt>
      <trkpt lat="48.46005" lon="6.89894">
        <ele>413.98</ele>
        <time>2013-08-25T08:10:19Z</time>
      </trkpt>
      <trkpt lat="48.45992" lon="6.89863">
        <ele>414.47</ele>
        <time>2013-08-25T08:10:29Z</time>
      </trkpt>
      <trkpt lat="48.45977" lon="6.89829">
        <ele>415.43</ele>
        <time>2013-08-25T08:10:37Z</time>
      </trkpt>
      <trkpt lat="48.45965" lon="6.89797">
        <ele>415.91</ele>
        <time>2013-08-25T08:10:45Z</time>
      </trkpt>
      <trkpt lat="48.45963" lon="6.89794">
        <ele>415.91</ele>
        <time>2013-08-25T08:10:46Z</time>
      </trkpt>
      <trkpt lat="48.45961" lon="6.89791">
        <ele>415.43</ele>
        <time>2013-08-25T08:10:47Z</time>
      </trkpt>
      <trkpt lat="48.45952" lon="6.89772">
        <ele>416.87</ele>
        <time>2013-08-25T08:10:55Z</time>
      </trkpt>
      <trkpt lat="48.45951" lon="6.89769">
        <ele>416.87</ele>
        <time>2013-08-25T08:10:56Z</time>
      </trkpt>
      <trkpt lat="48.4595" lon="6.89767">
        <ele>416.87</ele>
        <time>2013-08-25T08:10:57Z</time>
      </trkpt>
      <trkpt lat="48.45949" lon="6.89764">
        <ele>416.87</ele>
        <time>2013-08-25T08:10:58Z</time>
      </trkpt>
      <trkpt lat="48.45947" lon="6.89761">
        <ele>416.87</ele>
        <time>2013-08-25T08:10:59Z</time>
      </trkpt>
      <trkpt lat="48.45945" lon="6.89759">
        <ele>416.87</ele>
        <time>2013-08-25T08:11:00Z</time>
      </trkpt>
      <trkpt lat="48.45944" lon="6.89757">
        <ele>416.87</ele>
        <time>2013-08-25T08:11:01Z</time>
      </trkpt>
      <trkpt lat="48.45944" lon="6.89754">
        <ele>416.87</ele>
        <time>2013-08-25T08:11:02Z</time>
      </trkpt>
      <trkpt lat="48.4594" lon="6.89745">
        <ele>417.35</ele>
        <time>2013-08-25T08:11:06Z</time>
      </trkpt>
      <trkpt lat="48.45938" lon="6.89741">
        <ele>418.79</ele>
        <time>2013-08-25T08:11:08Z</time>
      </trkpt>
      <trkpt lat="48.45934" lon="6.89735">
        <ele>417.35</ele>
        <time>2013-08-25T08:11:11Z</time>
      </trkpt>
      <trkpt lat="48.45922" lon="6.89709">
        <ele>418.31</ele>
        <time>2013-08-25T08:11:23Z</time>
      </trkpt>
      <trkpt lat="48.45917" lon="6.89698">
        <ele>419.75</ele>
        <time>2013-08-25T08:11:34Z</time>
      </trkpt>
      <trkpt lat="48.459" lon="6.8968">
        <ele>421.19</ele>
        <time>2013-08-25T08:11:46Z</time>
      </trkpt>
      <trkpt lat="48.45897" lon="6.89677">
        <ele>421.68</ele>
        <time>2013-08-25T08:11:48Z</time>
      </trkpt>
      <trkpt lat="48.45886" lon="6.89665">
        <ele>422.64</ele>
        <time>2013-08-25T08:11:56Z</time>
      </trkpt>
      <trkpt lat="48.45884" lon="6.89663">
        <ele>423.6</ele>
        <time>2013-08-25T08:11:57Z</time>
      </trkpt>
      <trkpt lat="48.45871" lon="6.89643">
        <ele>424.56</ele>
        <time>2013-08-25T08:12:08Z</time>
      </trkpt>
      <trkpt lat="48.45858" lon="6.89619">
        <ele>425.04</ele>
        <time>2013-08-25T08:12:22Z</time>
      </trkpt>
      <trkpt lat="48.45836" lon="6.89593">
        <ele>425.52</ele>
        <time>2013-08-25T08:12:34Z</time>
      </trkpt>
      <trkpt lat="48.45831" lon="6.89584">
        <ele>426</ele>
        <time>2013-08-25T08:12:36Z</time>
      </trkpt>
      <trkpt lat="48.45821" lon="6.89558">
        <ele>426</ele>
        <time>2013-08-25T08:12:47Z</time>
      </trkpt>
      <trkpt lat="48.45816" lon="6.89549">
        <ele>426.96</ele>
        <time>2013-08-25T08:12:50Z</time>
      </trkpt>
      <trkpt lat="48.45815" lon="6.89546">
        <ele>426.96</ele>
        <time>2013-08-25T08:12:51Z</time>
      </trkpt>
      <trkpt lat="48.45813" lon="6.89544">
        <ele>426.96</ele>
        <time>2013-08-25T08:12:52Z</time>
      </trkpt>
      <trkpt lat="48.45803" lon="6.89524">
        <ele>427.44</ele>
        <time>2013-08-25T08:13:03Z</time>
      </trkpt>
      <trkpt lat="48.45801" lon="6.8952">
        <ele>427.44</ele>
        <time>2013-08-25T08:13:05Z</time>
      </trkpt>
      <trkpt lat="48.45799" lon="6.89516">
        <ele>427.44</ele>
        <time>2013-08-25T08:13:07Z</time>
      </trkpt>
      <trkpt lat="48.4579" lon="6.89504">
        <ele>427.92</ele>
        <time>2013-08-25T08:13:13Z</time>
      </trkpt>
      <trkpt lat="48.45789" lon="6.89502">
        <ele>427.92</ele>
        <time>2013-08-25T08:13:14Z</time>
      </trkpt>
      <trkpt lat="48.45786" lon="6.89498">
        <ele>427.92</ele>
        <time>2013-08-25T08:13:16Z</time>
      </trkpt>
      <trkpt lat="48.45784" lon="6.89496">
        <ele>427.92</ele>
        <time>2013-08-25T08:13:17Z</time>
      </trkpt>
      <trkpt lat="48.45782" lon="6.89494">
        <ele>427.92</ele>
        <time>2013-08-25T08:13:18Z</time>
      </trkpt>
      <trkpt lat="48.45777" lon="6.89487">
        <ele>429.37</ele>
        <time>2013-08-25T08:13:21Z</time>
      </trkpt>
      <trkpt lat="48.45753" lon="6.89472">
        <ele>430.33</ele>
        <time>2013-08-25T08:13:36Z</time>
      </trkpt>
      <trkpt lat="48.45748" lon="6.89467">
        <ele>430.81</ele>
        <time>2013-08-25T08:13:47Z</time>
      </trkpt>
      <trkpt lat="48.45748" lon="6.89467">
        <ele>430.81</ele>
        <time>2013-08-25T08:14:11Z</time>
      </trkpt>
      <trkpt lat="48.45747" lon="6.89465">
        <ele>430.81</ele>
        <time>2013-08-25T08:14:42Z</time>
      </trkpt>
      <trkpt lat="48.45747" lon="6.89464">
        <ele>430.33</ele>
        <time>2013-08-25T08:15:12Z</time>
      </trkpt>
      <trkpt lat="48.45747" lon="6.89464">
        <ele>430.33</ele>
        <time>2013-08-25T08:15:39Z</time>
      </trkpt>
      <trkpt lat="48.45746" lon="6.89464">
        <ele>430.33</ele>
        <time>2013-08-25T08:16:06Z</time>
      </trkpt>
      <trkpt lat="48.45746" lon="6.89464">
        <ele>430.33</ele>
        <time>2013-08-25T08:16:40Z</time>
      </trkpt>
      <trkpt lat="48.45746" lon="6.89464">
        <ele>430.33</ele>
        <time>2013-08-25T08:17:11Z</time>
      </trkpt>
      <trkpt lat="48.45746" lon="6.89464">
        <ele>429.85</ele>
        <time>2013-08-25T08:17:36Z</time>
      </trkpt>
      <trkpt lat="48.45746" lon="6.89462">
        <ele>429.85</ele>
        <time>2013-08-25T08:17:59Z</time>
      </trkpt>
      <trkpt lat="48.45746" lon="6.89462">
        <ele>429.85</ele>
        <time>2013-08-25T08:18:31Z</time>
      </trkpt>
      <trkpt lat="48.45744" lon="6.8946">
        <ele>429.85</ele>
        <time>2013-08-25T08:18:37Z</time>
      </trkpt>
      <trkpt lat="48.45742" lon="6.89458">
        <ele>429.85</ele>
        <time>2013-08-25T08:18:38Z</time>
      </trkpt>
      <trkpt lat="48.45741" lon="6.89456">
        <ele>429.85</ele>
        <time>2013-08-25T08:18:39Z</time>
      </trkpt>
      <trkpt lat="48.4574" lon="6.89455">
        <ele>429.85</ele>
        <time>2013-08-25T08:18:40Z</time>
      </trkpt>
      <trkpt lat="48.45739" lon="6.89452">
        <ele>429.85</ele>
        <time>2013-08-25T08:18:41Z</time>
      </trkpt>
      <trkpt lat="48.45739" lon="6.8945">
        <ele>429.85</ele>
        <time>2013-08-25T08:18:42Z</time>
      </trkpt>
      <trkpt lat="48.45739" lon="6.89446">
        <ele>429.85</ele>
        <time>2013-08-25T08:18:43Z</time>
      </trkpt>
      <trkpt lat="48.4574" lon="6.89443">
        <ele>429.85</ele>
        <time>2013-08-25T08:18:44Z</time>
      </trkpt>
      <trkpt lat="48.4574" lon="6.89439">
        <ele>429.85</ele>
        <time>2013-08-25T08:18:45Z</time>
      </trkpt>
      <trkpt lat="48.45741" lon="6.89436">
        <ele>429.85</ele>
        <time>2013-08-25T08:18:46Z</time>
      </trkpt>
      <trkpt lat="48.45743" lon="6.89432">
        <ele>429.85</ele>
        <time>2013-08-25T08:18:47Z</time>
      </trkpt>
      <trkpt lat="48.45744" lon="6.89429">
        <ele>429.85</ele>
        <time>2013-08-25T08:18:48Z</time>
      </trkpt>
      <trkpt lat="48.45746" lon="6.89426">
        <ele>429.85</ele>
        <time>2013-08-25T08:18:49Z</time>
      </trkpt>
      <trkpt lat="48.45749" lon="6.89419">
        <ele>431.29</ele>
        <time>2013-08-25T08:18:51Z</time>
      </trkpt>
      <trkpt lat="48.45762" lon="6.89379">
        <ele>432.73</ele>
        <time>2013-08-25T08:19:03Z</time>
      </trkpt>
      <trkpt lat="48.45765" lon="6.89341">
        <ele>433.21</ele>
        <time>2013-08-25T08:19:13Z</time>
      </trkpt>
      <trkpt lat="48.45768" lon="6.89301">
        <ele>434.65</ele>
        <time>2013-08-25T08:19:24Z</time>
      </trkpt>
      <trkpt lat="48.45768" lon="6.89297">
        <ele>434.65</ele>
        <time>2013-08-25T08:19:25Z</time>
      </trkpt>
      <trkpt lat="48.45768" lon="6.89293">
        <ele>434.65</ele>
        <time>2013-08-25T08:19:26Z</time>
      </trkpt>
      <trkpt lat="48.45772" lon="6.89249">
        <ele>435.61</ele>
        <time>2013-08-25T08:19:38Z</time>
      </trkpt>
      <trkpt lat="48.45785" lon="6.89189">
        <ele>436.1</ele>
        <time>2013-08-25T08:19:53Z</time>
      </trkpt>
      <trkpt lat="48.45792" lon="6.89163">
        <ele>436.1</ele>
        <time>2013-08-25T08:19:59Z</time>
      </trkpt>
      <trkpt lat="48.45793" lon="6.89159">
        <ele>436.1</ele>
        <time>2013-08-25T08:20:00Z</time>
      </trkpt>
      <trkpt lat="48.45794" lon="6.89155">
        <ele>436.1</ele>
        <time>2013-08-25T08:20:01Z</time>
      </trkpt>
      <trkpt lat="48.45795" lon="6.89151">
        <ele>434.65</ele>
        <time>2013-08-25T08:20:02Z</time>
      </trkpt>
      <trkpt lat="48.45796" lon="6.89147">
        <ele>434.65</ele>
        <time>2013-08-25T08:20:03Z</time>
      </trkpt>
      <trkpt lat="48.45803" lon="6.89087">
        <ele>434.17</ele>
        <time>2013-08-25T08:20:15Z</time>
      </trkpt>
      <trkpt lat="48.45821" lon="6.8903">
        <ele>434.65</ele>
        <time>2013-08-25T08:20:28Z</time>
      </trkpt>
      <trkpt lat="48.45849" lon="6.88995">
        <ele>434.17</ele>
        <time>2013-08-25T08:20:40Z</time>
      </trkpt>
      <trkpt lat="48.45881" lon="6.88953">
        <ele>436.58</ele>
        <time>2013-08-25T08:20:54Z</time>
      </trkpt>
      <trkpt lat="48.45904" lon="6.88918">
        <ele>437.06</ele>
        <time>2013-08-25T08:21:05Z</time>
      </trkpt>
      <trkpt lat="48.45928" lon="6.88877">
        <ele>435.13</ele>
        <time>2013-08-25T08:21:15Z</time>
      </trkpt>
      <trkpt lat="48.45935" lon="6.88865">
        <ele>436.58</ele>
        <time>2013-08-25T08:21:18Z</time>
      </trkpt>
      <trkpt lat="48.45943" lon="6.88848">
        <ele>434.65</ele>
        <time>2013-08-25T08:21:22Z</time>
      </trkpt>
      <trkpt lat="48.45947" lon="6.8884">
        <ele>436.58</ele>
        <time>2013-08-25T08:21:24Z</time>
      </trkpt>
      <trkpt lat="48.45952" lon="6.88832">
        <ele>434.65</ele>
        <time>2013-08-25T08:21:26Z</time>
      </trkpt>
      <trkpt lat="48.45973" lon="6.88803">
        <ele>434.17</ele>
        <time>2013-08-25T08:21:33Z</time>
      </trkpt>
      <trkpt lat="48.46008" lon="6.88772">
        <ele>436.1</ele>
        <time>2013-08-25T08:21:43Z</time>
      </trkpt>
      <trkpt lat="48.46014" lon="6.88766">
        <ele>434.65</ele>
        <time>2013-08-25T08:21:45Z</time>
      </trkpt>
      <trkpt lat="48.46047" lon="6.88742">
        <ele>436.58</ele>
        <time>2013-08-25T08:21:56Z</time>
      </trkpt>
      <trkpt lat="48.46059" lon="6.88738">
        <ele>434.65</ele>
        <time>2013-08-25T08:21:59Z</time>
      </trkpt>
      <trkpt lat="48.46099" lon="6.88725">
        <ele>431.29</ele>
        <time>2013-08-25T08:22:09Z</time>
      </trkpt>
      <trkpt lat="48.46103" lon="6.88724">
        <ele>431.29</ele>
        <time>2013-08-25T08:22:10Z</time>
      </trkpt>
      <trkpt lat="48.46128" lon="6.88702">
        <ele>428.4</ele>
        <time>2013-08-25T08:22:19Z</time>
      </trkpt>
      <trkpt lat="48.46145" lon="6.88684">
        <ele>426.96</ele>
        <time>2013-08-25T08:22:27Z</time>
      </trkpt>
      <trkpt lat="48.46149" lon="6.88679">
        <ele>426</ele>
        <time>2013-08-25T08:22:30Z</time>
      </trkpt>
      <trkpt lat="48.46152" lon="6.88677">
        <ele>426</ele>
        <time>2013-08-25T08:22:32Z</time>
      </trkpt>
      <trkpt lat="48.46154" lon="6.88676">
        <ele>426</ele>
        <time>2013-08-25T08:22:33Z</time>
      </trkpt>
      <trkpt lat="48.46176" lon="6.88643">
        <ele>425.52</ele>
        <time>2013-08-25T08:22:43Z</time>
      </trkpt>
      <trkpt lat="48.46182" lon="6.88631">
        <ele>425.52</ele>
        <time>2013-08-25T08:22:46Z</time>
      </trkpt>
      <trkpt lat="48.46213" lon="6.88598">
        <ele>424.08</ele>
        <time>2013-08-25T08:22:58Z</time>
      </trkpt>
      <trkpt lat="48.46225" lon="6.88594">
        <ele>424.56</ele>
        <time>2013-08-25T08:23:10Z</time>
      </trkpt>
      <trkpt lat="48.46225" lon="6.88594">
        <ele>424.08</ele>
        <time>2013-08-25T08:23:35Z</time>
      </trkpt>
      <trkpt lat="48.46225" lon="6.88593">
        <ele>424.08</ele>
        <time>2013-08-25T08:24:04Z</time>
      </trkpt>
      <trkpt lat="48.46225" lon="6.88593">
        <ele>424.08</ele>
        <time>2013-08-25T08:24:28Z</time>
      </trkpt>
      <trkpt lat="48.46227" lon="6.88592">
        <ele>424.08</ele>
        <time>2013-08-25T08:24:36Z</time>
      </trkpt>
      <trkpt lat="48.46228" lon="6.88592">
        <ele>424.08</ele>
        <time>2013-08-25T08:24:37Z</time>
      </trkpt>
      <trkpt lat="48.4623" lon="6.88592">
        <ele>424.08</ele>
        <time>2013-08-25T08:24:38Z</time>
      </trkpt>
      <trkpt lat="48.46233" lon="6.88593">
        <ele>424.08</ele>
        <time>2013-08-25T08:24:40Z</time>
      </trkpt>
      <trkpt lat="48.46239" lon="6.88593">
        <ele>424.08</ele>
        <time>2013-08-25T08:24:44Z</time>
      </trkpt>
      <trkpt lat="48.46243" lon="6.88594">
        <ele>424.08</ele>
        <time>2013-08-25T08:24:46Z</time>
      </trkpt>
      <trkpt lat="48.46244" lon="6.88595">
        <ele>424.08</ele>
        <time>2013-08-25T08:24:47Z</time>
      </trkpt>
      <trkpt lat="48.46245" lon="6.88599">
        <ele>424.08</ele>
        <time>2013-08-25T08:24:48Z</time>
      </trkpt>
      <trkpt lat="48.46245" lon="6.88602">
        <ele>424.08</ele>
        <time>2013-08-25T08:24:49Z</time>
      </trkpt>
      <trkpt lat="48.46245" lon="6.88605">
        <ele>423.6</ele>
        <time>2013-08-25T08:24:50Z</time>
      </trkpt>
      <trkpt lat="48.46245" lon="6.88609">
        <ele>423.6</ele>
        <time>2013-08-25T08:24:51Z</time>
      </trkpt>
      <trkpt lat="48.46245" lon="6.88612">
        <ele>423.6</ele>
        <time>2013-08-25T08:24:52Z</time>
      </trkpt>
      <trkpt lat="48.46245" lon="6.88616">
        <ele>423.6</ele>
        <time>2013-08-25T08:24:53Z</time>
      </trkpt>
      <trkpt lat="48.46245" lon="6.88619">
        <ele>423.6</ele>
        <time>2013-08-25T08:24:54Z</time>
      </trkpt>
      <trkpt lat="48.46247" lon="6.88623">
        <ele>422.64</ele>
        <time>2013-08-25T08:25:06Z</time>
      </trkpt>
      <trkpt lat="48.46247" lon="6.88623">
        <ele>422.64</ele>
        <time>2013-08-25T08:25:32Z</time>
      </trkpt>
      <trkpt lat="48.46249" lon="6.88625">
        <ele>422.64</ele>
        <time>2013-08-25T08:25:38Z</time>
      </trkpt>
      <trkpt lat="48.46252" lon="6.88632">
        <ele>422.16</ele>
        <time>2013-08-25T08:25:43Z</time>
      </trkpt>
      <trkpt lat="48.46253" lon="6.88634">
        <ele>422.16</ele>
        <time>2013-08-25T08:25:44Z</time>
      </trkpt>
      <trkpt lat="48.46262" lon="6.88642">
        <ele>422.16</ele>
        <time>2013-08-25T08:25:51Z</time>
      </trkpt>
      <trkpt lat="48.46264" lon="6.88644">
        <ele>422.16</ele>
        <time>2013-08-25T08:25:52Z</time>
      </trkpt>
      <trkpt lat="48.46265" lon="6.88645">
        <ele>422.16</ele>
        <time>2013-08-25T08:25:53Z</time>
      </trkpt>
      <trkpt lat="48.46268" lon="6.88647">
        <ele>422.16</ele>
        <time>2013-08-25T08:25:54Z</time>
      </trkpt>
      <trkpt lat="48.4627" lon="6.88649">
        <ele>421.68</ele>
        <time>2013-08-25T08:25:55Z</time>
      </trkpt>
      <trkpt lat="48.46272" lon="6.8865">
        <ele>421.19</ele>
        <time>2013-08-25T08:25:56Z</time>
      </trkpt>
      <trkpt lat="48.46274" lon="6.8865">
        <ele>421.19</ele>
        <time>2013-08-25T08:25:57Z</time>
      </trkpt>
      <trkpt lat="48.46278" lon="6.88652">
        <ele>421.19</ele>
        <time>2013-08-25T08:26:01Z</time>
      </trkpt>
      <trkpt lat="48.4628" lon="6.88654">
        <ele>421.19</ele>
        <time>2013-08-25T08:26:03Z</time>
      </trkpt>
      <trkpt lat="48.46281" lon="6.88655">
        <ele>421.19</ele>
        <time>2013-08-25T08:26:04Z</time>
      </trkpt>
      <trkpt lat="48.46284" lon="6.88657">
        <ele>421.19</ele>
        <time>2013-08-25T08:26:06Z</time>
      </trkpt>
      <trkpt lat="48.46288" lon="6.88657">
        <ele>422.64</ele>
        <time>2013-08-25T08:26:09Z</time>
      </trkpt>
      <trkpt lat="48.4629" lon="6.88657">
        <ele>422.64</ele>
        <time>2013-08-25T08:26:10Z</time>
      </trkpt>
      <trkpt lat="48.46302" lon="6.88676">
        <ele>422.64</ele>
        <time>2013-08-25T08:26:23Z</time>
      </trkpt>
      <trkpt lat="48.46302" lon="6.88676">
        <ele>422.64</ele>
        <time>2013-08-25T08:26:43Z</time>
      </trkpt>
      <trkpt lat="48.46302" lon="6.88676">
        <ele>422.64</ele>
        <time>2013-08-25T08:26:50Z</time>
      </trkpt>
      <trkpt lat="48.46302" lon="6.88687">
        <ele>421.68</ele>
        <time>2013-08-25T08:26:59Z</time>
      </trkpt>
      <trkpt lat="48.46322" lon="6.88716">
        <ele>421.68</ele>
        <time>2013-08-25T08:27:11Z</time>
      </trkpt>
      <trkpt lat="48.46331" lon="6.88732">
        <ele>421.68</ele>
        <time>2013-08-25T08:27:19Z</time>
      </trkpt>
      <trkpt lat="48.46343" lon="6.88756">
        <ele>421.68</ele>
        <time>2013-08-25T08:27:33Z</time>
      </trkpt>
      <trkpt lat="48.46344" lon="6.88758">
        <ele>421.68</ele>
        <time>2013-08-25T08:27:34Z</time>
      </trkpt>
      <trkpt lat="48.46359" lon="6.88791">
        <ele>421.68</ele>
        <time>2013-08-25T08:27:45Z</time>
      </trkpt>
      <trkpt lat="48.46366" lon="6.88808">
        <ele>421.68</ele>
        <time>2013-08-25T08:27:50Z</time>
      </trkpt>
      <trkpt lat="48.46383" lon="6.88857">
        <ele>422.64</ele>
        <time>2013-08-25T08:28:05Z</time>
      </trkpt>
      <trkpt lat="48.46391" lon="6.88884">
        <ele>422.64</ele>
        <time>2013-08-25T08:28:15Z</time>
      </trkpt>
      <trkpt lat="48.464" lon="6.88918">
        <ele>422.64</ele>
        <time>2013-08-25T08:28:28Z</time>
      </trkpt>
      <trkpt lat="48.46406" lon="6.88926">
        <ele>422.64</ele>
        <time>2013-08-25T08:28:32Z</time>
      </trkpt>
      <trkpt lat="48.4642" lon="6.88953">
        <ele>424.08</ele>
        <time>2013-08-25T08:28:43Z</time>
      </trkpt>
      <trkpt lat="48.46422" lon="6.88956">
        <ele>424.56</ele>
        <time>2013-08-25T08:28:45Z</time>
      </trkpt>
      <trkpt lat="48.46442" lon="6.88982">
        <ele>426</ele>
        <time>2013-08-25T08:28:57Z</time>
      </trkpt>
      <trkpt lat="48.46448" lon="6.88984">
        <ele>426.48</ele>
        <time>2013-08-25T08:29:00Z</time>
      </trkpt>
      <trkpt lat="48.4645" lon="6.88988">
        <ele>426.48</ele>
        <time>2013-08-25T08:29:03Z</time>
      </trkpt>
      <trkpt lat="48.46447" lon="6.88996">
        <ele>426.96</ele>
        <time>2013-08-25T08:29:07Z</time>
      </trkpt>
      <trkpt lat="48.46451" lon="6.89022">
        <ele>427.44</ele>
        <time>2013-08-25T08:29:16Z</time>
      </trkpt>
      <trkpt lat="48.46451" lon="6.89028">
        <ele>426</ele>
        <time>2013-08-25T08:29:18Z</time>
      </trkpt>
      <trkpt lat="48.46451" lon="6.89033">
        <ele>426</ele>
        <time>2013-08-25T08:29:20Z</time>
      </trkpt>
      <trkpt lat="48.46438" lon="6.89067">
        <ele>423.6</ele>
        <time>2013-08-25T08:29:33Z</time>
      </trkpt>
      <trkpt lat="48.46423" lon="6.89099">
        <ele>420.23</ele>
        <time>2013-08-25T08:29:42Z</time>
      </trkpt>
      <trkpt lat="48.46405" lon="6.89122">
        <ele>416.39</ele>
        <time>2013-08-25T08:29:49Z</time>
      </trkpt>
      <trkpt lat="48.464" lon="6.89128">
        <ele>415.43</ele>
        <time>2013-08-25T08:29:51Z</time>
      </trkpt>
      <trkpt lat="48.46407" lon="6.89163">
        <ele>414.95</ele>
        <time>2013-08-25T08:30:01Z</time>
      </trkpt>
      <trkpt lat="48.46411" lon="6.89169">
        <ele>416.39</ele>
        <time>2013-08-25T08:30:03Z</time>
      </trkpt>
      <trkpt lat="48.46429" lon="6.89193">
        <ele>418.31</ele>
        <time>2013-08-25T08:30:14Z</time>
      </trkpt>
      <trkpt lat="48.46434" lon="6.89204">
        <ele>418.31</ele>
        <time>2013-08-25T08:30:19Z</time>
      </trkpt>
      <trkpt lat="48.46445" lon="6.89219">
        <ele>418.79</ele>
        <time>2013-08-25T08:30:32Z</time>
      </trkpt>
      <trkpt lat="48.46458" lon="6.8923">
        <ele>418.79</ele>
        <time>2013-08-25T08:30:45Z</time>
      </trkpt>
      <trkpt lat="48.46467" lon="6.89246">
        <ele>418.79</ele>
        <time>2013-08-25T08:31:00Z</time>
      </trkpt>
      <trkpt lat="48.46472" lon="6.89262">
        <ele>417.35</ele>
        <time>2013-08-25T08:31:10Z</time>
      </trkpt>
      <trkpt lat="48.4648" lon="6.89277">
        <ele>416.87</ele>
        <time>2013-08-25T08:31:28Z</time>
      </trkpt>
      <trkpt lat="48.4648" lon="6.89277">
        <ele>416.87</ele>
        <time>2013-08-25T08:31:46Z</time>
      </trkpt>
      <trkpt lat="48.46491" lon="6.89289">
        <ele>414.47</ele>
        <time>2013-08-25T08:31:54Z</time>
      </trkpt>
      <trkpt lat="48.465" lon="6.89287">
        <ele>413.98</ele>
        <time>2013-08-25T08:31:58Z</time>
      </trkpt>
      <trkpt lat="48.46521" lon="6.89265">
        <ele>410.14</ele>
        <time>2013-08-25T08:32:05Z</time>
      </trkpt>
      <trkpt lat="48.46541" lon="6.89241">
        <ele>406.29</ele>
        <time>2013-08-25T08:32:12Z</time>
      </trkpt>
      <trkpt lat="48.46552" lon="6.89226">
        <ele>405.33</ele>
        <time>2013-08-25T08:32:15Z</time>
      </trkpt>
      <trkpt lat="48.46567" lon="6.8922">
        <ele>405.81</ele>
        <time>2013-08-25T08:32:21Z</time>
      </trkpt>
      <trkpt lat="48.46585" lon="6.89211">
        <ele>405.81</ele>
        <time>2013-08-25T08:32:27Z</time>
      </trkpt>
      <trkpt lat="48.46612" lon="6.89213">
        <ele>407.74</ele>
        <time>2013-08-25T08:32:37Z</time>
      </trkpt>
      <trkpt lat="48.46621" lon="6.89219">
        <ele>408.22</ele>
        <time>2013-08-25T08:32:41Z</time>
      </trkpt>
      <trkpt lat="48.46638" lon="6.89241">
        <ele>409.66</ele>
        <time>2013-08-25T08:32:54Z</time>
      </trkpt>
      <trkpt lat="48.46652" lon="6.8926">
        <ele>410.62</ele>
        <time>2013-08-25T08:33:03Z</time>
      </trkpt>
      <trkpt lat="48.46669" lon="6.89282">
        <ele>412.06</ele>
        <time>2013-08-25T08:33:15Z</time>
      </trkpt>
      <trkpt lat="48.46671" lon="6.89283">
        <ele>413.5</ele>
        <time>2013-08-25T08:33:17Z</time>
      </trkpt>
      <trkpt lat="48.46676" lon="6.89291">
        <ele>413.5</ele>
        <time>2013-08-25T08:33:21Z</time>
      </trkpt>
      <trkpt lat="48.46676" lon="6.89293">
        <ele>413.02</ele>
        <time>2013-08-25T08:33:22Z</time>
      </trkpt>
      <trkpt lat="48.46684" lon="6.89309">
        <ele>413.5</ele>
        <time>2013-08-25T08:33:29Z</time>
      </trkpt>
      <trkpt lat="48.4669" lon="6.89325">
        <ele>413.5</ele>
        <time>2013-08-25T08:33:33Z</time>
      </trkpt>
      <trkpt lat="48.46695" lon="6.8934">
        <ele>413.5</ele>
        <time>2013-08-25T08:33:37Z</time>
      </trkpt>
      <trkpt lat="48.46701" lon="6.89365">
        <ele>413.5</ele>
        <time>2013-08-25T08:33:44Z</time>
      </trkpt>
      <trkpt lat="48.46705" lon="6.89381">
        <ele>413.98</ele>
        <time>2013-08-25T08:33:50Z</time>
      </trkpt>
      <trkpt lat="48.46706" lon="6.89399">
        <ele>413.98</ele>
        <time>2013-08-25T08:33:55Z</time>
      </trkpt>
      <trkpt lat="48.4671" lon="6.89417">
        <ele>413.98</ele>
        <time>2013-08-25T08:34:00Z</time>
      </trkpt>
      <trkpt lat="48.46711" lon="6.89426">
        <ele>413.98</ele>
        <time>2013-08-25T08:34:02Z</time>
      </trkpt>
      <trkpt lat="48.46714" lon="6.89436">
        <ele>413.98</ele>
        <time>2013-08-25T08:34:05Z</time>
      </trkpt>
      <trkpt lat="48.46717" lon="6.89445">
        <ele>413.98</ele>
        <time>2013-08-25T08:34:08Z</time>
      </trkpt>
      <trkpt lat="48.46727" lon="6.8947">
        <ele>415.43</ele>
        <time>2013-08-25T08:34:19Z</time>
      </trkpt>
      <trkpt lat="48.46727" lon="6.8947">
        <ele>415.91</ele>
        <time>2013-08-25T08:34:25Z</time>
      </trkpt>
      <trkpt lat="48.46745" lon="6.895">
        <ele>416.39</ele>
        <time>2013-08-25T08:34:35Z</time>
      </trkpt>
      <trkpt lat="48.46749" lon="6.89506">
        <ele>416.87</ele>
        <time>2013-08-25T08:34:37Z</time>
      </trkpt>
      <trkpt lat="48.46756" lon="6.89514">
        <ele>417.35</ele>
        <time>2013-08-25T08:34:41Z</time>
      </trkpt>
      <trkpt lat="48.46763" lon="6.89523">
        <ele>417.83</ele>
        <time>2013-08-25T08:34:45Z</time>
      </trkpt>
      <trkpt lat="48.46778" lon="6.89546">
        <ele>419.27</ele>
        <time>2013-08-25T08:35:00Z</time>
      </trkpt>
      <trkpt lat="48.46798" lon="6.8958">
        <ele>419.27</ele>
        <time>2013-08-25T08:35:07Z</time>
      </trkpt>
      <trkpt lat="48.46803" lon="6.89586">
        <ele>419.27</ele>
        <time>2013-08-25T08:35:09Z</time>
      </trkpt>
      <trkpt lat="48.46811" lon="6.89601">
        <ele>419.27</ele>
        <time>2013-08-25T08:35:13Z</time>
      </trkpt>
      <trkpt lat="48.46818" lon="6.89614">
        <ele>419.27</ele>
        <time>2013-08-25T08:35:17Z</time>
      </trkpt>
      <trkpt lat="48.46823" lon="6.89632">
        <ele>418.31</ele>
        <time>2013-08-25T08:35:22Z</time>
      </trkpt>
      <trkpt lat="48.46848" lon="6.89663">
        <ele>414.95</ele>
        <time>2013-08-25T08:35:34Z</time>
      </trkpt>
      <trkpt lat="48.46861" lon="6.89661">
        <ele>413.98</ele>
        <time>2013-08-25T08:35:45Z</time>
      </trkpt>
      <trkpt lat="48.4687" lon="6.89653">
        <ele>415.43</ele>
        <time>2013-08-25T08:35:52Z</time>
      </trkpt>
      <trkpt lat="48.46884" lon="6.89637">
        <ele>416.87</ele>
        <time>2013-08-25T08:36:01Z</time>
      </trkpt>
      <trkpt lat="48.46893" lon="6.89628">
        <ele>417.83</ele>
        <time>2013-08-25T08:36:06Z</time>
      </trkpt>
      <trkpt lat="48.46897" lon="6.89626">
        <ele>418.79</ele>
        <time>2013-08-25T08:36:08Z</time>
      </trkpt>
      <trkpt lat="48.46919" lon="6.89614">
        <ele>419.27</ele>
        <time>2013-08-25T08:36:21Z</time>
      </trkpt>
      <trkpt lat="48.46936" lon="6.89608">
        <ele>419.27</ele>
        <time>2013-08-25T08:36:31Z</time>
      </trkpt>
      <trkpt lat="48.46949" lon="6.89604">
        <ele>420.23</ele>
        <time>2013-08-25T08:36:42Z</time>
      </trkpt>
      <trkpt lat="48.4697" lon="6.89586">
        <ele>421.19</ele>
        <time>2013-08-25T08:36:54Z</time>
      </trkpt>
      <trkpt lat="48.46986" lon="6.89558">
        <ele>423.6</ele>
        <time>2013-08-25T08:37:09Z</time>
      </trkpt>
      <trkpt lat="48.46992" lon="6.89553">
        <ele>423.6</ele>
        <time>2013-08-25T08:37:14Z</time>
      </trkpt>
      <trkpt lat="48.47001" lon="6.89534">
        <ele>422.16</ele>
        <time>2013-08-25T08:37:22Z</time>
      </trkpt>
      <trkpt lat="48.47005" lon="6.89512">
        <ele>421.68</ele>
        <time>2013-08-25T08:37:30Z</time>
      </trkpt>
      <trkpt lat="48.47005" lon="6.89501">
        <ele>421.19</ele>
        <time>2013-08-25T08:37:39Z</time>
      </trkpt>
      <trkpt lat="48.47012" lon="6.89495">
        <ele>418.31</ele>
        <time>2013-08-25T08:37:51Z</time>
      </trkpt>
      <trkpt lat="48.4702" lon="6.89487">
        <ele>416.87</ele>
        <time>2013-08-25T08:38:00Z</time>
      </trkpt>
      <trkpt lat="48.47036" lon="6.8947">
        <ele>413.98</ele>
        <time>2013-08-25T08:38:08Z</time>
      </trkpt>
      <trkpt lat="48.47046" lon="6.89464">
        <ele>413.5</ele>
        <time>2013-08-25T08:38:15Z</time>
      </trkpt>
      <trkpt lat="48.47049" lon="6.89463">
        <ele>413.02</ele>
        <time>2013-08-25T08:38:16Z</time>
      </trkpt>
      <trkpt lat="48.47059" lon="6.89455">
        <ele>413.02</ele>
        <time>2013-08-25T08:38:21Z</time>
      </trkpt>
      <trkpt lat="48.47076" lon="6.8945">
        <ele>414.47</ele>
        <time>2013-08-25T08:38:32Z</time>
      </trkpt>
      <trkpt lat="48.47078" lon="6.8945">
        <ele>414.47</ele>
        <time>2013-08-25T08:38:33Z</time>
      </trkpt>
      <trkpt lat="48.4711" lon="6.89449">
        <ele>415.43</ele>
        <time>2013-08-25T08:38:44Z</time>
      </trkpt>
      <trkpt lat="48.47138" lon="6.89454">
        <ele>416.39</ele>
        <time>2013-08-25T08:38:55Z</time>
      </trkpt>
      <trkpt lat="48.47162" lon="6.8946">
        <ele>417.83</ele>
        <time>2013-08-25T08:39:08Z</time>
      </trkpt>
      <trkpt lat="48.47162" lon="6.8946">
        <ele>418.31</ele>
        <time>2013-08-25T08:39:22Z</time>
      </trkpt>
      <trkpt lat="48.47168" lon="6.89465">
        <ele>418.31</ele>
        <time>2013-08-25T08:39:26Z</time>
      </trkpt>
      <trkpt lat="48.47174" lon="6.89473">
        <ele>417.83</ele>
        <time>2013-08-25T08:39:38Z</time>
      </trkpt>
      <trkpt lat="48.47174" lon="6.89473">
        <ele>417.83</ele>
        <time>2013-08-25T08:40:05Z</time>
      </trkpt>
      <trkpt lat="48.47179" lon="6.89483">
        <ele>417.35</ele>
        <time>2013-08-25T08:40:20Z</time>
      </trkpt>
      <trkpt lat="48.47179" lon="6.89483">
        <ele>417.35</ele>
        <time>2013-08-25T08:40:23Z</time>
      </trkpt>
      <trkpt lat="48.47185" lon="6.89489">
        <ele>417.35</ele>
        <time>2013-08-25T08:40:35Z</time>
      </trkpt>
      <trkpt lat="48.47195" lon="6.89498">
        <ele>417.35</ele>
        <time>2013-08-25T08:40:47Z</time>
      </trkpt>
      <trkpt lat="48.47207" lon="6.89526">
        <ele>417.35</ele>
        <time>2013-08-25T08:40:58Z</time>
      </trkpt>
      <trkpt lat="48.47206" lon="6.89577">
        <ele>414.95</ele>
        <time>2013-08-25T08:41:06Z</time>
      </trkpt>
      <trkpt lat="48.47202" lon="6.89651">
        <ele>411.58</ele>
        <time>2013-08-25T08:41:14Z</time>
      </trkpt>
      <trkpt lat="48.47189" lon="6.8971">
        <ele>409.18</ele>
        <time>2013-08-25T08:41:20Z</time>
      </trkpt>
      <trkpt lat="48.47186" lon="6.89719">
        <ele>409.18</ele>
        <time>2013-08-25T08:41:21Z</time>
      </trkpt>
      <trkpt lat="48.47183" lon="6.89728">
        <ele>409.18</ele>
        <time>2013-08-25T08:41:22Z</time>
      </trkpt>
      <trkpt lat="48.47156" lon="6.89822">
        <ele>405.81</ele>
        <time>2013-08-25T08:41:32Z</time>
      </trkpt>
      <trkpt lat="48.47143" lon="6.89857">
        <ele>404.37</ele>
        <time>2013-08-25T08:41:36Z</time>
      </trkpt>
      <trkpt lat="48.47134" lon="6.89888">
        <ele>402.45</ele>
        <time>2013-08-25T08:41:44Z</time>
      </trkpt>
      <trkpt lat="48.47133" lon="6.89888">
        <ele>402.45</ele>
        <time>2013-08-25T08:42:00Z</time>
      </trkpt>
      <trkpt lat="48.47128" lon="6.89891">
        <ele>401.97</ele>
        <time>2013-08-25T08:42:17Z</time>
      </trkpt>
      <trkpt lat="48.47126" lon="6.89889">
        <ele>401.49</ele>
        <time>2013-08-25T08:42:18Z</time>
      </trkpt>
      <trkpt lat="48.47124" lon="6.89887">
        <ele>401.01</ele>
        <time>2013-08-25T08:42:19Z</time>
      </trkpt>
      <trkpt lat="48.47103" lon="6.89872">
        <ele>397.64</ele>
        <time>2013-08-25T08:42:26Z</time>
      </trkpt>
      <trkpt lat="48.471" lon="6.8987">
        <ele>397.64</ele>
        <time>2013-08-25T08:42:27Z</time>
      </trkpt>
      <trkpt lat="48.47082" lon="6.89859">
        <ele>395.24</ele>
        <time>2013-08-25T08:42:37Z</time>
      </trkpt>
      <trkpt lat="48.47081" lon="6.89859">
        <ele>395.24</ele>
        <time>2013-08-25T08:42:38Z</time>
      </trkpt>
      <trkpt lat="48.47079" lon="6.89861">
        <ele>395.24</ele>
        <time>2013-08-25T08:42:40Z</time>
      </trkpt>
      <trkpt lat="48.47078" lon="6.89866">
        <ele>394.76</ele>
        <time>2013-08-25T08:42:43Z</time>
      </trkpt>
      <trkpt lat="48.47077" lon="6.89879">
        <ele>394.76</ele>
        <time>2013-08-25T08:42:50Z</time>
      </trkpt>
      <trkpt lat="48.47075" lon="6.89895">
        <ele>394.28</ele>
        <time>2013-08-25T08:42:55Z</time>
      </trkpt>
      <trkpt lat="48.47074" lon="6.89898">
        <ele>394.28</ele>
        <time>2013-08-25T08:42:56Z</time>
      </trkpt>
      <trkpt lat="48.47064" lon="6.8994">
        <ele>393.8</ele>
        <time>2013-08-25T08:43:09Z</time>
      </trkpt>
      <trkpt lat="48.47061" lon="6.89949">
        <ele>393.32</ele>
        <time>2013-08-25T08:43:12Z</time>
      </trkpt>
      <trkpt lat="48.47058" lon="6.89952">
        <ele>393.32</ele>
        <time>2013-08-25T08:43:13Z</time>
      </trkpt>
      <trkpt lat="48.47056" lon="6.89956">
        <ele>393.32</ele>
        <time>2013-08-25T08:43:14Z</time>
      </trkpt>
      <trkpt lat="48.47052" lon="6.89965">
        <ele>395.24</ele>
        <time>2013-08-25T08:43:22Z</time>
      </trkpt>
      <trkpt lat="48.4705" lon="6.89968">
        <ele>393.8</ele>
        <time>2013-08-25T08:43:23Z</time>
      </trkpt>
      <trkpt lat="48.47049" lon="6.89971">
        <ele>393.8</ele>
        <time>2013-08-25T08:43:24Z</time>
      </trkpt>
      <trkpt lat="48.47049" lon="6.89974">
        <ele>393.32</ele>
        <time>2013-08-25T08:43:25Z</time>
      </trkpt>
      <trkpt lat="48.47048" lon="6.89981">
        <ele>393.32</ele>
        <time>2013-08-25T08:43:28Z</time>
      </trkpt>
      <trkpt lat="48.47048" lon="6.89984">
        <ele>393.32</ele>
        <time>2013-08-25T08:43:29Z</time>
      </trkpt>
      <trkpt lat="48.47046" lon="6.89987">
        <ele>393.32</ele>
        <time>2013-08-25T08:43:30Z</time>
      </trkpt>
      <trkpt lat="48.47045" lon="6.8999">
        <ele>392.84</ele>
        <time>2013-08-25T08:43:31Z</time>
      </trkpt>
      <trkpt lat="48.47044" lon="6.89993">
        <ele>392.84</ele>
        <time>2013-08-25T08:43:32Z</time>
      </trkpt>
      <trkpt lat="48.47042" lon="6.89996">
        <ele>392.84</ele>
        <time>2013-08-25T08:43:33Z</time>
      </trkpt>
      <trkpt lat="48.47041" lon="6.89999">
        <ele>392.84</ele>
        <time>2013-08-25T08:43:34Z</time>
      </trkpt>
      <trkpt lat="48.4704" lon="6.90003">
        <ele>392.84</ele>
        <time>2013-08-25T08:43:35Z</time>
      </trkpt>
      <trkpt lat="48.4704" lon="6.90006">
        <ele>392.84</ele>
        <time>2013-08-25T08:43:36Z</time>
      </trkpt>
      <trkpt lat="48.47038" lon="6.9001">
        <ele>392.84</ele>
        <time>2013-08-25T08:43:37Z</time>
      </trkpt>
      <trkpt lat="48.47037" lon="6.90022">
        <ele>392.84</ele>
        <time>2013-08-25T08:43:41Z</time>
      </trkpt>
      <trkpt lat="48.47037" lon="6.90025">
        <ele>392.84</ele>
        <time>2013-08-25T08:43:42Z</time>
      </trkpt>
      <trkpt lat="48.47037" lon="6.90028">
        <ele>392.84</ele>
        <time>2013-08-25T08:43:43Z</time>
      </trkpt>
      <trkpt lat="48.47037" lon="6.90032">
        <ele>392.84</ele>
        <time>2013-08-25T08:43:44Z</time>
      </trkpt>
      <trkpt lat="48.47036" lon="6.90034">
        <ele>392.84</ele>
        <time>2013-08-25T08:43:45Z</time>
      </trkpt>
      <trkpt lat="48.47039" lon="6.90042">
        <ele>392.84</ele>
        <time>2013-08-25T08:43:52Z</time>
      </trkpt>
      <trkpt lat="48.4704" lon="6.90043">
        <ele>392.84</ele>
        <time>2013-08-25T08:43:53Z</time>
      </trkpt>
      <trkpt lat="48.47042" lon="6.90044">
        <ele>393.8</ele>
        <time>2013-08-25T08:43:54Z</time>
      </trkpt>
      <trkpt lat="48.47042" lon="6.90046">
        <ele>393.8</ele>
        <time>2013-08-25T08:43:55Z</time>
      </trkpt>
      <trkpt lat="48.47044" lon="6.9005">
        <ele>393.8</ele>
        <time>2013-08-25T08:43:57Z</time>
      </trkpt>
      <trkpt lat="48.47052" lon="6.90058">
        <ele>394.76</ele>
        <time>2013-08-25T08:44:05Z</time>
      </trkpt>
      <trkpt lat="48.47053" lon="6.90058">
        <ele>394.76</ele>
        <time>2013-08-25T08:44:06Z</time>
      </trkpt>
      <trkpt lat="48.47069" lon="6.90076">
        <ele>394.76</ele>
        <time>2013-08-25T08:44:16Z</time>
      </trkpt>
      <trkpt lat="48.47071" lon="6.90077">
        <ele>395.24</ele>
        <time>2013-08-25T08:44:17Z</time>
      </trkpt>
      <trkpt lat="48.47072" lon="6.9008">
        <ele>395.24</ele>
        <time>2013-08-25T08:44:18Z</time>
      </trkpt>
      <trkpt lat="48.47073" lon="6.90083">
        <ele>395.24</ele>
        <time>2013-08-25T08:44:19Z</time>
      </trkpt>
      <trkpt lat="48.47072" lon="6.90086">
        <ele>395.24</ele>
        <time>2013-08-25T08:44:20Z</time>
      </trkpt>
      <trkpt lat="48.4707" lon="6.90088">
        <ele>395.24</ele>
        <time>2013-08-25T08:44:21Z</time>
      </trkpt>
      <trkpt lat="48.4707" lon="6.90091">
        <ele>395.24</ele>
        <time>2013-08-25T08:44:22Z</time>
      </trkpt>
      <trkpt lat="48.47069" lon="6.90094">
        <ele>395.24</ele>
        <time>2013-08-25T08:44:23Z</time>
      </trkpt>
      <trkpt lat="48.47068" lon="6.90097">
        <ele>395.24</ele>
        <time>2013-08-25T08:44:24Z</time>
      </trkpt>
      <trkpt lat="48.47065" lon="6.90112">
        <ele>393.8</ele>
        <time>2013-08-25T08:44:28Z</time>
      </trkpt>
      <trkpt lat="48.47059" lon="6.9015">
        <ele>391.87</ele>
        <time>2013-08-25T08:44:42Z</time>
      </trkpt>
      <trkpt lat="48.47059" lon="6.90151">
        <ele>391.87</ele>
        <time>2013-08-25T08:44:44Z</time>
      </trkpt>
      <trkpt lat="48.4706" lon="6.90161">
        <ele>391.87</ele>
        <time>2013-08-25T08:44:50Z</time>
      </trkpt>
      <trkpt lat="48.4706" lon="6.90163">
        <ele>391.87</ele>
        <time>2013-08-25T08:44:51Z</time>
      </trkpt>
      <trkpt lat="48.4706" lon="6.90165">
        <ele>391.87</ele>
        <time>2013-08-25T08:44:52Z</time>
      </trkpt>
      <trkpt lat="48.47059" lon="6.90167">
        <ele>391.87</ele>
        <time>2013-08-25T08:44:53Z</time>
      </trkpt>
      <trkpt lat="48.47059" lon="6.90169">
        <ele>391.87</ele>
        <time>2013-08-25T08:44:54Z</time>
      </trkpt>
      <trkpt lat="48.47059" lon="6.90171">
        <ele>391.87</ele>
        <time>2013-08-25T08:44:55Z</time>
      </trkpt>
      <trkpt lat="48.47058" lon="6.90173">
        <ele>391.87</ele>
        <time>2013-08-25T08:44:56Z</time>
      </trkpt>
      <trkpt lat="48.47057" lon="6.90176">
        <ele>391.87</ele>
        <time>2013-08-25T08:44:57Z</time>
      </trkpt>
      <trkpt lat="48.47056" lon="6.90178">
        <ele>391.87</ele>
        <time>2013-08-25T08:44:58Z</time>
      </trkpt>
      <trkpt lat="48.47055" lon="6.9018">
        <ele>391.87</ele>
        <time>2013-08-25T08:44:59Z</time>
      </trkpt>
      <trkpt lat="48.47054" lon="6.90181">
        <ele>391.87</ele>
        <time>2013-08-25T08:45:00Z</time>
      </trkpt>
      <trkpt lat="48.47053" lon="6.90183">
        <ele>391.87</ele>
        <time>2013-08-25T08:45:01Z</time>
      </trkpt>
      <trkpt lat="48.47052" lon="6.90184">
        <ele>391.87</ele>
        <time>2013-08-25T08:45:02Z</time>
      </trkpt>
      <trkpt lat="48.47033" lon="6.90211">
        <ele>391.87</ele>
        <time>2013-08-25T08:45:19Z</time>
      </trkpt>
      <trkpt lat="48.47027" lon="6.90231">
        <ele>392.84</ele>
        <time>2013-08-25T08:45:30Z</time>
      </trkpt>
      <trkpt lat="48.47027" lon="6.90237">
        <ele>392.84</ele>
        <time>2013-08-25T08:45:33Z</time>
      </trkpt>
      <trkpt lat="48.47026" lon="6.90239">
        <ele>394.28</ele>
        <time>2013-08-25T08:45:34Z</time>
      </trkpt>
      <trkpt lat="48.47025" lon="6.90241">
        <ele>394.28</ele>
        <time>2013-08-25T08:45:35Z</time>
      </trkpt>
      <trkpt lat="48.47022" lon="6.90244">
        <ele>394.76</ele>
        <time>2013-08-25T08:45:37Z</time>
      </trkpt>
      <trkpt lat="48.47018" lon="6.9025">
        <ele>396.2</ele>
        <time>2013-08-25T08:45:41Z</time>
      </trkpt>
      <trkpt lat="48.47018" lon="6.90253">
        <ele>396.2</ele>
        <time>2013-08-25T08:45:42Z</time>
      </trkpt>
      <trkpt lat="48.47015" lon="6.90264">
        <ele>396.68</ele>
        <time>2013-08-25T08:45:46Z</time>
      </trkpt>
      <trkpt lat="48.47014" lon="6.90265">
        <ele>397.16</ele>
        <time>2013-08-25T08:45:47Z</time>
      </trkpt>
      <trkpt lat="48.47013" lon="6.90268">
        <ele>397.16</ele>
        <time>2013-08-25T08:45:48Z</time>
      </trkpt>
      <trkpt lat="48.47011" lon="6.9027">
        <ele>397.64</ele>
        <time>2013-08-25T08:45:49Z</time>
      </trkpt>
      <trkpt lat="48.4701" lon="6.90272">
        <ele>397.64</ele>
        <time>2013-08-25T08:45:50Z</time>
      </trkpt>
      <trkpt lat="48.47009" lon="6.90275">
        <ele>397.64</ele>
        <time>2013-08-25T08:45:51Z</time>
      </trkpt>
      <trkpt lat="48.47008" lon="6.90277">
        <ele>397.64</ele>
        <time>2013-08-25T08:45:52Z</time>
      </trkpt>
      <trkpt lat="48.46997" lon="6.90304">
        <ele>400.05</ele>
        <time>2013-08-25T08:46:03Z</time>
      </trkpt>
      <trkpt lat="48.46994" lon="6.90313">
        <ele>400.53</ele>
        <time>2013-08-25T08:46:09Z</time>
      </trkpt>
      <trkpt lat="48.46994" lon="6.90315">
        <ele>400.53</ele>
        <time>2013-08-25T08:46:10Z</time>
      </trkpt>
      <trkpt lat="48.46993" lon="6.90318">
        <ele>400.53</ele>
        <time>2013-08-25T08:46:11Z</time>
      </trkpt>
      <trkpt lat="48.46993" lon="6.90321">
        <ele>401.01</ele>
        <time>2013-08-25T08:46:12Z</time>
      </trkpt>
      <trkpt lat="48.46991" lon="6.90325">
        <ele>401.01</ele>
        <time>2013-08-25T08:46:13Z</time>
      </trkpt>
      <trkpt lat="48.4699" lon="6.90329">
        <ele>401.01</ele>
        <time>2013-08-25T08:46:14Z</time>
      </trkpt>
      <trkpt lat="48.46989" lon="6.90333">
        <ele>401.01</ele>
        <time>2013-08-25T08:46:15Z</time>
      </trkpt>
      <trkpt lat="48.46982" lon="6.90367">
        <ele>401.97</ele>
        <time>2013-08-25T08:46:28Z</time>
      </trkpt>
      <trkpt lat="48.46969" lon="6.90397">
        <ele>401.97</ele>
        <time>2013-08-25T08:46:38Z</time>
      </trkpt>
      <trkpt lat="48.46968" lon="6.90411">
        <ele>401.97</ele>
        <time>2013-08-25T08:46:44Z</time>
      </trkpt>
      <trkpt lat="48.46968" lon="6.90433">
        <ele>401.97</ele>
        <time>2013-08-25T08:46:50Z</time>
      </trkpt>
      <trkpt lat="48.46968" lon="6.90436">
        <ele>401.97</ele>
        <time>2013-08-25T08:46:51Z</time>
      </trkpt>
      <trkpt lat="48.46968" lon="6.90439">
        <ele>401.97</ele>
        <time>2013-08-25T08:46:52Z</time>
      </trkpt>
      <trkpt lat="48.46968" lon="6.90455">
        <ele>401.97</ele>
        <time>2013-08-25T08:46:56Z</time>
      </trkpt>
      <trkpt lat="48.46968" lon="6.90457">
        <ele>401.97</ele>
        <time>2013-08-25T08:46:57Z</time>
      </trkpt>
      <trkpt lat="48.46969" lon="6.9046">
        <ele>401.97</ele>
        <time>2013-08-25T08:46:58Z</time>
      </trkpt>
      <trkpt lat="48.4697" lon="6.90462">
        <ele>401.97</ele>
        <time>2013-08-25T08:46:59Z</time>
      </trkpt>
      <trkpt lat="48.46985" lon="6.9049">
        <ele>403.41</ele>
        <time>2013-08-25T08:47:13Z</time>
      </trkpt>
      <trkpt lat="48.46996" lon="6.90524">
        <ele>403.89</ele>
        <time>2013-08-25T08:47:19Z</time>
      </trkpt>
      <trkpt lat="48.46997" lon="6.90527">
        <ele>403.89</ele>
        <time>2013-08-25T08:47:20Z</time>
      </trkpt>
      <trkpt lat="48.46998" lon="6.9053">
        <ele>404.37</ele>
        <time>2013-08-25T08:47:21Z</time>
      </trkpt>
      <trkpt lat="48.47" lon="6.90532">
        <ele>404.37</ele>
        <time>2013-08-25T08:47:22Z</time>
      </trkpt>
      <trkpt lat="48.47001" lon="6.90534">
        <ele>404.37</ele>
        <time>2013-08-25T08:47:23Z</time>
      </trkpt>
      <trkpt lat="48.47003" lon="6.90537">
        <ele>406.29</ele>
        <time>2013-08-25T08:47:24Z</time>
      </trkpt>
      <trkpt lat="48.47004" lon="6.9054">
        <ele>405.33</ele>
        <time>2013-08-25T08:47:25Z</time>
      </trkpt>
      <trkpt lat="48.47007" lon="6.90549">
        <ele>404.85</ele>
        <time>2013-08-25T08:47:30Z</time>
      </trkpt>
      <trkpt lat="48.47008" lon="6.90553">
        <ele>404.85</ele>
        <time>2013-08-25T08:47:31Z</time>
      </trkpt>
      <trkpt lat="48.47009" lon="6.90556">
        <ele>404.85</ele>
        <time>2013-08-25T08:47:32Z</time>
      </trkpt>
      <trkpt lat="48.47016" lon="6.90572">
        <ele>406.29</ele>
        <time>2013-08-25T08:47:37Z</time>
      </trkpt>
      <trkpt lat="48.4703" lon="6.90598">
        <ele>407.74</ele>
        <time>2013-08-25T08:47:50Z</time>
      </trkpt>
      <trkpt lat="48.47039" lon="6.90624">
        <ele>408.7</ele>
        <time>2013-08-25T08:48:04Z</time>
      </trkpt>
      <trkpt lat="48.47028" lon="6.90647">
        <ele>408.7</ele>
        <time>2013-08-25T08:48:14Z</time>
      </trkpt>
      <trkpt lat="48.47027" lon="6.90649">
        <ele>407.74</ele>
        <time>2013-08-25T08:48:15Z</time>
      </trkpt>
      <trkpt lat="48.47025" lon="6.9065">
        <ele>407.74</ele>
        <time>2013-08-25T08:48:16Z</time>
      </trkpt>
      <trkpt lat="48.47004" lon="6.90659">
        <ele>405.33</ele>
        <time>2013-08-25T08:48:29Z</time>
      </trkpt>
      <trkpt lat="48.47002" lon="6.90659">
        <ele>405.33</ele>
        <time>2013-08-25T08:48:30Z</time>
      </trkpt>
      <trkpt lat="48.47" lon="6.90657">
        <ele>404.85</ele>
        <time>2013-08-25T08:48:31Z</time>
      </trkpt>
      <trkpt lat="48.46998" lon="6.90655">
        <ele>404.85</ele>
        <time>2013-08-25T08:48:32Z</time>
      </trkpt>
      <trkpt lat="48.46994" lon="6.90652">
        <ele>403.89</ele>
        <time>2013-08-25T08:48:36Z</time>
      </trkpt>
      <trkpt lat="48.46992" lon="6.9065">
        <ele>403.89</ele>
        <time>2013-08-25T08:48:37Z</time>
      </trkpt>
      <trkpt lat="48.4699" lon="6.9065">
        <ele>403.89</ele>
        <time>2013-08-25T08:48:38Z</time>
      </trkpt>
      <trkpt lat="48.46984" lon="6.90647">
        <ele>401.97</ele>
        <time>2013-08-25T08:48:40Z</time>
      </trkpt>
      <trkpt lat="48.46982" lon="6.90646">
        <ele>401.97</ele>
        <time>2013-08-25T08:48:41Z</time>
      </trkpt>
      <trkpt lat="48.46967" lon="6.9062">
        <ele>399.08</ele>
        <time>2013-08-25T08:48:53Z</time>
      </trkpt>
      <trkpt lat="48.46966" lon="6.90616">
        <ele>398.6</ele>
        <time>2013-08-25T08:48:55Z</time>
      </trkpt>
      <trkpt lat="48.46963" lon="6.90604">
        <ele>397.16</ele>
        <time>2013-08-25T08:49:00Z</time>
      </trkpt>
      <trkpt lat="48.46956" lon="6.90591">
        <ele>395.72</ele>
        <time>2013-08-25T08:49:05Z</time>
      </trkpt>
      <trkpt lat="48.46925" lon="6.90554">
        <ele>394.28</ele>
        <time>2013-08-25T08:49:19Z</time>
      </trkpt>
      <trkpt lat="48.46921" lon="6.90549">
        <ele>393.8</ele>
        <time>2013-08-25T08:49:24Z</time>
      </trkpt>
      <trkpt lat="48.46916" lon="6.90548">
        <ele>395.24</ele>
        <time>2013-08-25T08:49:35Z</time>
      </trkpt>
      <trkpt lat="48.46902" lon="6.90556">
        <ele>397.64</ele>
        <time>2013-08-25T08:49:50Z</time>
      </trkpt>
      <trkpt lat="48.46894" lon="6.90566">
        <ele>399.57</ele>
        <time>2013-08-25T08:50:06Z</time>
      </trkpt>
      <trkpt lat="48.46888" lon="6.90568">
        <ele>400.05</ele>
        <time>2013-08-25T08:50:18Z</time>
      </trkpt>
      <trkpt lat="48.46869" lon="6.90577">
        <ele>402.45</ele>
        <time>2013-08-25T08:50:33Z</time>
      </trkpt>
      <trkpt lat="48.46864" lon="6.90581">
        <ele>402.93</ele>
        <time>2013-08-25T08:50:37Z</time>
      </trkpt>
      <trkpt lat="48.46847" lon="6.90593">
        <ele>405.33</ele>
        <time>2013-08-25T08:50:52Z</time>
      </trkpt>
      <trkpt lat="48.46843" lon="6.90598">
        <ele>405.81</ele>
        <time>2013-08-25T08:50:55Z</time>
      </trkpt>
      <trkpt lat="48.46833" lon="6.90619">
        <ele>407.26</ele>
        <time>2013-08-25T08:51:09Z</time>
      </trkpt>
      <trkpt lat="48.46832" lon="6.90624">
        <ele>407.74</ele>
        <time>2013-08-25T08:51:14Z</time>
      </trkpt>
      <trkpt lat="48.46831" lon="6.90628">
        <ele>407.74</ele>
        <time>2013-08-25T08:51:16Z</time>
      </trkpt>
      <trkpt lat="48.46827" lon="6.90634">
        <ele>407.74</ele>
        <time>2013-08-25T08:51:19Z</time>
      </trkpt>
      <trkpt lat="48.46817" lon="6.9064">
        <ele>409.66</ele>
        <time>2013-08-25T08:51:27Z</time>
      </trkpt>
      <trkpt lat="48.4681" lon="6.90644">
        <ele>409.66</ele>
        <time>2013-08-25T08:51:42Z</time>
      </trkpt>
      <trkpt lat="48.4681" lon="6.90644">
        <ele>408.22</ele>
        <time>2013-08-25T08:52:18Z</time>
      </trkpt>
      <trkpt lat="48.4681" lon="6.90644">
        <ele>408.22</ele>
        <time>2013-08-25T08:52:43Z</time>
      </trkpt>
      <trkpt lat="48.46808" lon="6.90646">
        <ele>408.22</ele>
        <time>2013-08-25T08:53:01Z</time>
      </trkpt>
      <trkpt lat="48.46807" lon="6.90647">
        <ele>408.22</ele>
        <time>2013-08-25T08:53:02Z</time>
      </trkpt>
      <trkpt lat="48.46786" lon="6.90663">
        <ele>409.66</ele>
        <time>2013-08-25T08:53:14Z</time>
      </trkpt>
      <trkpt lat="48.46783" lon="6.90666">
        <ele>410.14</ele>
        <time>2013-08-25T08:53:16Z</time>
      </trkpt>
      <trkpt lat="48.46775" lon="6.90677">
        <ele>410.62</ele>
        <time>2013-08-25T08:53:22Z</time>
      </trkpt>
      <trkpt lat="48.46761" lon="6.90691">
        <ele>411.1</ele>
        <time>2013-08-25T08:53:30Z</time>
      </trkpt>
      <trkpt lat="48.46755" lon="6.90704">
        <ele>411.1</ele>
        <time>2013-08-25T08:53:36Z</time>
      </trkpt>
      <trkpt lat="48.46752" lon="6.90708">
        <ele>411.1</ele>
        <time>2013-08-25T08:53:38Z</time>
      </trkpt>
      <trkpt lat="48.4675" lon="6.90713">
        <ele>412.54</ele>
        <time>2013-08-25T08:53:40Z</time>
      </trkpt>
      <trkpt lat="48.46749" lon="6.90714">
        <ele>412.54</ele>
        <time>2013-08-25T08:53:41Z</time>
      </trkpt>
      <trkpt lat="48.46742" lon="6.90724">
        <ele>413.02</ele>
        <time>2013-08-25T08:53:46Z</time>
      </trkpt>
      <trkpt lat="48.46727" lon="6.90761">
        <ele>414.95</ele>
        <time>2013-08-25T08:54:00Z</time>
      </trkpt>
      <trkpt lat="48.46713" lon="6.90797">
        <ele>416.39</ele>
        <time>2013-08-25T08:54:15Z</time>
      </trkpt>
      <trkpt lat="48.46709" lon="6.90815">
        <ele>417.35</ele>
        <time>2013-08-25T08:54:22Z</time>
      </trkpt>
      <trkpt lat="48.46711" lon="6.90845">
        <ele>419.75</ele>
        <time>2013-08-25T08:54:34Z</time>
      </trkpt>
      <trkpt lat="48.46716" lon="6.90875">
        <ele>421.19</ele>
        <time>2013-08-25T08:54:45Z</time>
      </trkpt>
      <trkpt lat="48.46719" lon="6.9091">
        <ele>422.16</ele>
        <time>2013-08-25T08:54:59Z</time>
      </trkpt>
      <trkpt lat="48.46719" lon="6.90915">
        <ele>422.16</ele>
        <time>2013-08-25T08:55:01Z</time>
      </trkpt>
      <trkpt lat="48.46716" lon="6.90933">
        <ele>422.64</ele>
        <time>2013-08-25T08:55:07Z</time>
      </trkpt>
      <trkpt lat="48.46713" lon="6.90965">
        <ele>423.12</ele>
        <time>2013-08-25T08:55:17Z</time>
      </trkpt>
      <trkpt lat="48.46719" lon="6.91012">
        <ele>424.08</ele>
        <time>2013-08-25T08:55:31Z</time>
      </trkpt>
      <trkpt lat="48.46738" lon="6.9105">
        <ele>424.08</ele>
        <time>2013-08-25T08:55:45Z</time>
      </trkpt>
      <trkpt lat="48.46756" lon="6.91077">
        <ele>424.08</ele>
        <time>2013-08-25T08:55:56Z</time>
      </trkpt>
      <trkpt lat="48.46782" lon="6.91097">
        <ele>424.08</ele>
        <time>2013-08-25T08:56:06Z</time>
      </trkpt>
      <trkpt lat="48.46788" lon="6.91102">
        <ele>424.08</ele>
        <time>2013-08-25T08:56:09Z</time>
      </trkpt>
      <trkpt lat="48.46808" lon="6.91125">
        <ele>424.08</ele>
        <time>2013-08-25T08:56:20Z</time>
      </trkpt>
      <trkpt lat="48.46844" lon="6.91173">
        <ele>423.6</ele>
        <time>2013-08-25T08:56:34Z</time>
      </trkpt>
      <trkpt lat="48.46855" lon="6.91198">
        <ele>423.12</ele>
        <time>2013-08-25T08:56:42Z</time>
      </trkpt>
      <trkpt lat="48.46859" lon="6.91214">
        <ele>423.12</ele>
        <time>2013-08-25T08:56:49Z</time>
      </trkpt>
      <trkpt lat="48.4686" lon="6.91219">
        <ele>423.12</ele>
        <time>2013-08-25T08:57:02Z</time>
      </trkpt>
      <trkpt lat="48.4686" lon="6.91219">
        <ele>423.6</ele>
        <time>2013-08-25T08:57:32Z</time>
      </trkpt>
      <trkpt lat="48.4686" lon="6.91219">
        <ele>423.12</ele>
        <time>2013-08-25T08:57:51Z</time>
      </trkpt>
      <trkpt lat="48.46853" lon="6.91235">
        <ele>422.16</ele>
        <time>2013-08-25T08:58:04Z</time>
      </trkpt>
      <trkpt lat="48.46853" lon="6.91237">
        <ele>421.68</ele>
        <time>2013-08-25T08:58:20Z</time>
      </trkpt>
      <trkpt lat="48.46855" lon="6.91246">
        <ele>421.19</ele>
        <time>2013-08-25T08:58:25Z</time>
      </trkpt>
      <trkpt lat="48.4685" lon="6.91271">
        <ele>418.79</ele>
        <time>2013-08-25T08:58:32Z</time>
      </trkpt>
      <trkpt lat="48.4682" lon="6.91286">
        <ele>415.43</ele>
        <time>2013-08-25T08:58:42Z</time>
      </trkpt>
      <trkpt lat="48.46801" lon="6.91283">
        <ele>412.54</ele>
        <time>2013-08-25T08:58:46Z</time>
      </trkpt>
      <trkpt lat="48.46791" lon="6.9128">
        <ele>411.58</ele>
        <time>2013-08-25T08:58:48Z</time>
      </trkpt>
      <trkpt lat="48.46787" lon="6.91277">
        <ele>411.58</ele>
        <time>2013-08-25T08:58:49Z</time>
      </trkpt>
      <trkpt lat="48.46775" lon="6.91272">
        <ele>409.18</ele>
        <time>2013-08-25T08:58:52Z</time>
      </trkpt>
      <trkpt lat="48.46766" lon="6.9127">
        <ele>407.74</ele>
        <time>2013-08-25T08:58:54Z</time>
      </trkpt>
      <trkpt lat="48.46762" lon="6.9127">
        <ele>407.26</ele>
        <time>2013-08-25T08:58:55Z</time>
      </trkpt>
      <trkpt lat="48.4676" lon="6.9127">
        <ele>406.29</ele>
        <time>2013-08-25T08:58:56Z</time>
      </trkpt>
      <trkpt lat="48.46759" lon="6.91269">
        <ele>405.81</ele>
        <time>2013-08-25T08:58:58Z</time>
      </trkpt>
      <trkpt lat="48.46759" lon="6.91268">
        <ele>406.29</ele>
        <time>2013-08-25T08:59:12Z</time>
      </trkpt>
      <trkpt lat="48.46759" lon="6.91269">
        <ele>405.81</ele>
        <time>2013-08-25T08:59:44Z</time>
      </trkpt>
      <trkpt lat="48.46759" lon="6.91269">
        <ele>405.81</ele>
        <time>2013-08-25T09:00:14Z</time>
      </trkpt>
      <trkpt lat="48.46759" lon="6.9127">
        <ele>405.81</ele>
        <time>2013-08-25T09:00:41Z</time>
      </trkpt>
      <trkpt lat="48.46758" lon="6.91271">
        <ele>405.81</ele>
        <time>2013-08-25T09:00:43Z</time>
      </trkpt>
      <trkpt lat="48.46757" lon="6.91272">
        <ele>405.81</ele>
        <time>2013-08-25T09:00:44Z</time>
      </trkpt>
      <trkpt lat="48.46755" lon="6.91273">
        <ele>405.81</ele>
        <time>2013-08-25T09:00:45Z</time>
      </trkpt>
      <trkpt lat="48.46753" lon="6.91273">
        <ele>404.85</ele>
        <time>2013-08-25T09:00:46Z</time>
      </trkpt>
      <trkpt lat="48.46749" lon="6.91274">
        <ele>404.85</ele>
        <time>2013-08-25T09:00:47Z</time>
      </trkpt>
      <trkpt lat="48.46744" lon="6.91275">
        <ele>403.89</ele>
        <time>2013-08-25T09:00:48Z</time>
      </trkpt>
      <trkpt lat="48.4674" lon="6.91276">
        <ele>402.93</ele>
        <time>2013-08-25T09:00:49Z</time>
      </trkpt>
      <trkpt lat="48.46735" lon="6.91277">
        <ele>402.93</ele>
        <time>2013-08-25T09:00:50Z</time>
      </trkpt>
      <trkpt lat="48.46722" lon="6.91281">
        <ele>401.49</ele>
        <time>2013-08-25T09:00:58Z</time>
      </trkpt>
      <trkpt lat="48.46722" lon="6.91282">
        <ele>401.49</ele>
        <time>2013-08-25T09:01:21Z</time>
      </trkpt>
      <trkpt lat="48.46721" lon="6.91283">
        <ele>401.49</ele>
        <time>2013-08-25T09:01:36Z</time>
      </trkpt>
      <trkpt lat="48.46713" lon="6.91293">
        <ele>401.49</ele>
        <time>2013-08-25T09:01:53Z</time>
      </trkpt>
      <trkpt lat="48.46677" lon="6.91299">
        <ele>401.01</ele>
        <time>2013-08-25T09:02:08Z</time>
      </trkpt>
      <trkpt lat="48.46675" lon="6.91299">
        <ele>401.01</ele>
        <time>2013-08-25T09:02:09Z</time>
      </trkpt>
      <trkpt lat="48.46673" lon="6.91299">
        <ele>401.01</ele>
        <time>2013-08-25T09:02:10Z</time>
      </trkpt>
      <trkpt lat="48.4667" lon="6.913">
        <ele>401.01</ele>
        <time>2013-08-25T09:02:11Z</time>
      </trkpt>
      <trkpt lat="48.46668" lon="6.913">
        <ele>401.01</ele>
        <time>2013-08-25T09:02:12Z</time>
      </trkpt>
      <trkpt lat="48.46665" lon="6.913">
        <ele>401.01</ele>
        <time>2013-08-25T09:02:13Z</time>
      </trkpt>
      <trkpt lat="48.46663" lon="6.91301">
        <ele>401.01</ele>
        <time>2013-08-25T09:02:14Z</time>
      </trkpt>
      <trkpt lat="48.4666" lon="6.91301">
        <ele>401.01</ele>
        <time>2013-08-25T09:02:15Z</time>
      </trkpt>
      <trkpt lat="48.46657" lon="6.91302">
        <ele>401.01</ele>
        <time>2013-08-25T09:02:16Z</time>
      </trkpt>
      <trkpt lat="48.46622" lon="6.91313">
        <ele>400.53</ele>
        <time>2013-08-25T09:02:29Z</time>
      </trkpt>
      <trkpt lat="48.46601" lon="6.91322">
        <ele>400.53</ele>
        <time>2013-08-25T09:02:38Z</time>
      </trkpt>
      <trkpt lat="48.46585" lon="6.91334">
        <ele>400.53</ele>
        <time>2013-08-25T09:02:44Z</time>
      </trkpt>
      <trkpt lat="48.46583" lon="6.91336">
        <ele>400.53</ele>
        <time>2013-08-25T09:02:45Z</time>
      </trkpt>
      <trkpt lat="48.4658" lon="6.91339">
        <ele>400.53</ele>
        <time>2013-08-25T09:02:46Z</time>
      </trkpt>
      <trkpt lat="48.46578" lon="6.91341">
        <ele>400.53</ele>
        <time>2013-08-25T09:02:47Z</time>
      </trkpt>
      <trkpt lat="48.46575" lon="6.91345">
        <ele>400.53</ele>
        <time>2013-08-25T09:02:48Z</time>
      </trkpt>
      <trkpt lat="48.46573" lon="6.91348">
        <ele>400.53</ele>
        <time>2013-08-25T09:02:49Z</time>
      </trkpt>
      <trkpt lat="48.46571" lon="6.91351">
        <ele>400.53</ele>
        <time>2013-08-25T09:02:50Z</time>
      </trkpt>
      <trkpt lat="48.46569" lon="6.91354">
        <ele>400.53</ele>
        <time>2013-08-25T09:02:51Z</time>
      </trkpt>
      <trkpt lat="48.46554" lon="6.9139">
        <ele>400.53</ele>
        <time>2013-08-25T09:03:02Z</time>
      </trkpt>
      <trkpt lat="48.46546" lon="6.9143">
        <ele>400.53</ele>
        <time>2013-08-25T09:03:14Z</time>
      </trkpt>
      <trkpt lat="48.46545" lon="6.91444">
        <ele>400.53</ele>
        <time>2013-08-25T09:03:18Z</time>
      </trkpt>
      <trkpt lat="48.46544" lon="6.91447">
        <ele>400.53</ele>
        <time>2013-08-25T09:03:19Z</time>
      </trkpt>
      <trkpt lat="48.46542" lon="6.91461">
        <ele>401.97</ele>
        <time>2013-08-25T09:03:23Z</time>
      </trkpt>
      <trkpt lat="48.46542" lon="6.91465">
        <ele>401.97</ele>
        <time>2013-08-25T09:03:24Z</time>
      </trkpt>
      <trkpt lat="48.4654" lon="6.91507">
        <ele>401.97</ele>
        <time>2013-08-25T09:03:36Z</time>
      </trkpt>
      <trkpt lat="48.4655" lon="6.91551">
        <ele>401.49</ele>
        <time>2013-08-25T09:03:46Z</time>
      </trkpt>
      <trkpt lat="48.46552" lon="6.91555">
        <ele>401.49</ele>
        <time>2013-08-25T09:03:47Z</time>
      </trkpt>
      <trkpt lat="48.4656" lon="6.91569">
        <ele>401.49</ele>
        <time>2013-08-25T09:03:53Z</time>
      </trkpt>
      <trkpt lat="48.46561" lon="6.91572">
        <ele>401.49</ele>
        <time>2013-08-25T09:03:54Z</time>
      </trkpt>
      <trkpt lat="48.46562" lon="6.91574">
        <ele>401.49</ele>
        <time>2013-08-25T09:03:55Z</time>
      </trkpt>
      <trkpt lat="48.46565" lon="6.91581">
        <ele>401.49</ele>
        <time>2013-08-25T09:03:57Z</time>
      </trkpt>
      <trkpt lat="48.46568" lon="6.91584">
        <ele>401.49</ele>
        <time>2013-08-25T09:03:58Z</time>
      </trkpt>
      <trkpt lat="48.4657" lon="6.91589">
        <ele>401.49</ele>
        <time>2013-08-25T09:03:59Z</time>
      </trkpt>
      <trkpt lat="48.46572" lon="6.91591">
        <ele>401.49</ele>
        <time>2013-08-25T09:04:00Z</time>
      </trkpt>
      <trkpt lat="48.46575" lon="6.91593">
        <ele>401.49</ele>
        <time>2013-08-25T09:04:01Z</time>
      </trkpt>
      <trkpt lat="48.46582" lon="6.91597">
        <ele>401.49</ele>
        <time>2013-08-25T09:04:03Z</time>
      </trkpt>
      <trkpt lat="48.46589" lon="6.91596">
        <ele>402.93</ele>
        <time>2013-08-25T09:04:05Z</time>
      </trkpt>
      <trkpt lat="48.46612" lon="6.91601">
        <ele>402.93</ele>
        <time>2013-08-25T09:04:13Z</time>
      </trkpt>
      <trkpt lat="48.46617" lon="6.91598">
        <ele>403.41</ele>
        <time>2013-08-25T09:04:18Z</time>
      </trkpt>
      <trkpt lat="48.46619" lon="6.91595">
        <ele>403.41</ele>
        <time>2013-08-25T09:04:19Z</time>
      </trkpt>
      <trkpt lat="48.46618" lon="6.91593">
        <ele>403.41</ele>
        <time>2013-08-25T09:04:20Z</time>
      </trkpt>
      <trkpt lat="48.46625" lon="6.91565">
        <ele>403.41</ele>
        <time>2013-08-25T09:04:31Z</time>
      </trkpt>
      <trkpt lat="48.4663" lon="6.91535">
        <ele>404.37</ele>
        <time>2013-08-25T09:04:44Z</time>
      </trkpt>
      <trkpt lat="48.46636" lon="6.91526">
        <ele>404.85</ele>
        <time>2013-08-25T09:04:48Z</time>
      </trkpt>
      <trkpt lat="48.46641" lon="6.91496">
        <ele>405.33</ele>
        <time>2013-08-25T09:05:01Z</time>
      </trkpt>
      <trkpt lat="48.46672" lon="6.9147">
        <ele>405.33</ele>
        <time>2013-08-25T09:05:11Z</time>
      </trkpt>
      <trkpt lat="48.46679" lon="6.91464">
        <ele>405.33</ele>
        <time>2013-08-25T09:05:14Z</time>
      </trkpt>
      <trkpt lat="48.46691" lon="6.91456">
        <ele>405.33</ele>
        <time>2013-08-25T09:05:20Z</time>
      </trkpt>
      <trkpt lat="48.46706" lon="6.9145">
        <ele>403.89</ele>
        <time>2013-08-25T09:05:24Z</time>
      </trkpt>
      <trkpt lat="48.4671" lon="6.91449">
        <ele>403.89</ele>
        <time>2013-08-25T09:05:25Z</time>
      </trkpt>
      <trkpt lat="48.46743" lon="6.91433">
        <ele>404.85</ele>
        <time>2013-08-25T09:05:34Z</time>
      </trkpt>
      <trkpt lat="48.46744" lon="6.91433">
        <ele>403.41</ele>
        <time>2013-08-25T09:05:35Z</time>
      </trkpt>
      <trkpt lat="48.46783" lon="6.91415">
        <ele>403.41</ele>
        <time>2013-08-25T09:05:48Z</time>
      </trkpt>
      <trkpt lat="48.46788" lon="6.91412">
        <ele>404.85</ele>
        <time>2013-08-25T09:05:50Z</time>
      </trkpt>
      <trkpt lat="48.46831" lon="6.91397">
        <ele>406.77</ele>
        <time>2013-08-25T09:06:03Z</time>
      </trkpt>
      <trkpt lat="48.46864" lon="6.91388">
        <ele>410.14</ele>
        <time>2013-08-25T09:06:17Z</time>
      </trkpt>
      <trkpt lat="48.46866" lon="6.91388">
        <ele>412.06</ele>
        <time>2013-08-25T09:06:24Z</time>
      </trkpt>
      <trkpt lat="48.46873" lon="6.91385">
        <ele>413.98</ele>
        <time>2013-08-25T09:06:31Z</time>
      </trkpt>
      <trkpt lat="48.46908" lon="6.91401">
        <ele>417.35</ele>
        <time>2013-08-25T09:06:46Z</time>
      </trkpt>
      <trkpt lat="48.46915" lon="6.91408">
        <ele>417.35</ele>
        <time>2013-08-25T09:06:50Z</time>
      </trkpt>
      <trkpt lat="48.46921" lon="6.91416">
        <ele>418.79</ele>
        <time>2013-08-25T09:06:56Z</time>
      </trkpt>
      <trkpt lat="48.46932" lon="6.91429">
        <ele>421.68</ele>
        <time>2013-08-25T09:07:08Z</time>
      </trkpt>
      <trkpt lat="48.46938" lon="6.91434">
        <ele>422.64</ele>
        <time>2013-08-25T09:07:12Z</time>
      </trkpt>
      <trkpt lat="48.46953" lon="6.91447">
        <ele>425.52</ele>
        <time>2013-08-25T09:07:24Z</time>
      </trkpt>
      <trkpt lat="48.46964" lon="6.9145">
        <ele>426.96</ele>
        <time>2013-08-25T09:07:36Z</time>
      </trkpt>
      <trkpt lat="48.46964" lon="6.9145">
        <ele>426.48</ele>
        <time>2013-08-25T09:08:04Z</time>
      </trkpt>
      <trkpt lat="48.46967" lon="6.91449">
        <ele>426.48</ele>
        <time>2013-08-25T09:08:25Z</time>
      </trkpt>
      <trkpt lat="48.46967" lon="6.91449">
        <ele>426</ele>
        <time>2013-08-25T09:08:41Z</time>
      </trkpt>
      <trkpt lat="48.46967" lon="6.91449">
        <ele>426</ele>
        <time>2013-08-25T09:08:58Z</time>
      </trkpt>
      <trkpt lat="48.46966" lon="6.91449">
        <ele>426</ele>
        <time>2013-08-25T09:09:26Z</time>
      </trkpt>
      <trkpt lat="48.46966" lon="6.91449">
        <ele>427.44</ele>
        <time>2013-08-25T09:09:35Z</time>
      </trkpt>
      <trkpt lat="48.46966" lon="6.91449">
        <ele>426.48</ele>
        <time>2013-08-25T09:09:37Z</time>
      </trkpt>
      <trkpt lat="48.46966" lon="6.91449">
        <ele>426.48</ele>
        <time>2013-08-25T09:10:08Z</time>
      </trkpt>
      <trkpt lat="48.46967" lon="6.9145">
        <ele>426.48</ele>
        <time>2013-08-25T09:10:17Z</time>
      </trkpt>
      <trkpt lat="48.4697" lon="6.91449">
        <ele>426.48</ele>
        <time>2013-08-25T09:10:20Z</time>
      </trkpt>
      <trkpt lat="48.46977" lon="6.9144">
        <ele>426.48</ele>
        <time>2013-08-25T09:10:26Z</time>
      </trkpt>
      <trkpt lat="48.46988" lon="6.91428">
        <ele>426.48</ele>
        <time>2013-08-25T09:10:32Z</time>
      </trkpt>
      <trkpt lat="48.46991" lon="6.91422">
        <ele>426.48</ele>
        <time>2013-08-25T09:10:34Z</time>
      </trkpt>
      <trkpt lat="48.4699" lon="6.9141">
        <ele>426.48</ele>
        <time>2013-08-25T09:10:38Z</time>
      </trkpt>
      <trkpt lat="48.46988" lon="6.91394">
        <ele>426.48</ele>
        <time>2013-08-25T09:10:49Z</time>
      </trkpt>
      <trkpt lat="48.46988" lon="6.9137">
        <ele>426</ele>
        <time>2013-08-25T09:11:01Z</time>
      </trkpt>
      <trkpt lat="48.46976" lon="6.91333">
        <ele>427.44</ele>
        <time>2013-08-25T09:11:16Z</time>
      </trkpt>
      <trkpt lat="48.46976" lon="6.91332">
        <ele>428.89</ele>
        <time>2013-08-25T09:11:36Z</time>
      </trkpt>
      <trkpt lat="48.46972" lon="6.91316">
        <ele>427.92</ele>
        <time>2013-08-25T09:11:50Z</time>
      </trkpt>
      <trkpt lat="48.46971" lon="6.91312">
        <ele>429.37</ele>
        <time>2013-08-25T09:11:52Z</time>
      </trkpt>
      <trkpt lat="48.46971" lon="6.91303">
        <ele>429.37</ele>
        <time>2013-08-25T09:12:08Z</time>
      </trkpt>
      <trkpt lat="48.46971" lon="6.91295">
        <ele>429.37</ele>
        <time>2013-08-25T09:12:11Z</time>
      </trkpt>
      <trkpt lat="48.46969" lon="6.9129">
        <ele>429.85</ele>
        <time>2013-08-25T09:12:13Z</time>
      </trkpt>
      <trkpt lat="48.46961" lon="6.91261">
        <ele>432.73</ele>
        <time>2013-08-25T09:12:28Z</time>
      </trkpt>
      <trkpt lat="48.46961" lon="6.91261">
        <ele>432.25</ele>
        <time>2013-08-25T09:12:55Z</time>
      </trkpt>
      <trkpt lat="48.46959" lon="6.91247">
        <ele>433.21</ele>
        <time>2013-08-25T09:13:19Z</time>
      </trkpt>
      <trkpt lat="48.46959" lon="6.9121">
        <ele>435.13</ele>
        <time>2013-08-25T09:13:33Z</time>
      </trkpt>
      <trkpt lat="48.46963" lon="6.91198">
        <ele>434.65</ele>
        <time>2013-08-25T09:13:38Z</time>
      </trkpt>
      <trkpt lat="48.46964" lon="6.91182">
        <ele>434.17</ele>
        <time>2013-08-25T09:13:43Z</time>
      </trkpt>
      <trkpt lat="48.4697" lon="6.91162">
        <ele>433.21</ele>
        <time>2013-08-25T09:13:52Z</time>
      </trkpt>
      <trkpt lat="48.46975" lon="6.91153">
        <ele>433.21</ele>
        <time>2013-08-25T09:13:56Z</time>
      </trkpt>
      <trkpt lat="48.46982" lon="6.9113">
        <ele>432.25</ele>
        <time>2013-08-25T09:14:11Z</time>
      </trkpt>
      <trkpt lat="48.46986" lon="6.91104">
        <ele>430.81</ele>
        <time>2013-08-25T09:14:20Z</time>
      </trkpt>
      <trkpt lat="48.46993" lon="6.91066">
        <ele>428.4</ele>
        <time>2013-08-25T09:14:34Z</time>
      </trkpt>
      <trkpt lat="48.47001" lon="6.91042">
        <ele>425.52</ele>
        <time>2013-08-25T09:14:44Z</time>
      </trkpt>
      <trkpt lat="48.47012" lon="6.9102">
        <ele>423.12</ele>
        <time>2013-08-25T09:14:57Z</time>
      </trkpt>
      <trkpt lat="48.47013" lon="6.91019">
        <ele>423.6</ele>
        <time>2013-08-25T09:14:59Z</time>
      </trkpt>
      <trkpt lat="48.47017" lon="6.91018">
        <ele>422.16</ele>
        <time>2013-08-25T09:15:04Z</time>
      </trkpt>
      <trkpt lat="48.47024" lon="6.91017">
        <ele>420.71</ele>
        <time>2013-08-25T09:15:09Z</time>
      </trkpt>
      <trkpt lat="48.47027" lon="6.91013">
        <ele>419.75</ele>
        <time>2013-08-25T09:15:13Z</time>
      </trkpt>
      <trkpt lat="48.47038" lon="6.91002">
        <ele>418.31</ele>
        <time>2013-08-25T09:15:21Z</time>
      </trkpt>
      <trkpt lat="48.47064" lon="6.90985">
        <ele>419.27</ele>
        <time>2013-08-25T09:15:32Z</time>
      </trkpt>
      <trkpt lat="48.47072" lon="6.90985">
        <ele>417.83</ele>
        <time>2013-08-25T09:15:36Z</time>
      </trkpt>
      <trkpt lat="48.47083" lon="6.9099">
        <ele>417.35</ele>
        <time>2013-08-25T09:15:42Z</time>
      </trkpt>
      <trkpt lat="48.47097" lon="6.90987">
        <ele>417.83</ele>
        <time>2013-08-25T09:15:53Z</time>
      </trkpt>
      <trkpt lat="48.471" lon="6.90983">
        <ele>418.31</ele>
        <time>2013-08-25T09:16:10Z</time>
      </trkpt>
      <trkpt lat="48.471" lon="6.90983">
        <ele>418.31</ele>
        <time>2013-08-25T09:16:43Z</time>
      </trkpt>
      <trkpt lat="48.471" lon="6.90983">
        <ele>418.31</ele>
        <time>2013-08-25T09:17:15Z</time>
      </trkpt>
      <trkpt lat="48.471" lon="6.90984">
        <ele>417.83</ele>
        <time>2013-08-25T09:17:23Z</time>
      </trkpt>
      <trkpt lat="48.47101" lon="6.90981">
        <ele>416.87</ele>
        <time>2013-08-25T09:17:26Z</time>
      </trkpt>
      <trkpt lat="48.47102" lon="6.90978">
        <ele>416.87</ele>
        <time>2013-08-25T09:17:27Z</time>
      </trkpt>
      <trkpt lat="48.47106" lon="6.90971">
        <ele>416.39</ele>
        <time>2013-08-25T09:17:32Z</time>
      </trkpt>
      <trkpt lat="48.47133" lon="6.90965">
        <ele>414.47</ele>
        <time>2013-08-25T09:17:45Z</time>
      </trkpt>
      <trkpt lat="48.47168" lon="6.90947">
        <ele>412.54</ele>
        <time>2013-08-25T09:17:51Z</time>
      </trkpt>
      <trkpt lat="48.47172" lon="6.90947">
        <ele>412.54</ele>
        <time>2013-08-25T09:17:52Z</time>
      </trkpt>
      <trkpt lat="48.47177" lon="6.90948">
        <ele>412.54</ele>
        <time>2013-08-25T09:17:53Z</time>
      </trkpt>
      <trkpt lat="48.47181" lon="6.90951">
        <ele>412.06</ele>
        <time>2013-08-25T09:17:54Z</time>
      </trkpt>
      <trkpt lat="48.47185" lon="6.90956">
        <ele>412.06</ele>
        <time>2013-08-25T09:17:55Z</time>
      </trkpt>
      <trkpt lat="48.4719" lon="6.90962">
        <ele>411.58</ele>
        <time>2013-08-25T09:17:56Z</time>
      </trkpt>
      <trkpt lat="48.47194" lon="6.90967">
        <ele>410.62</ele>
        <time>2013-08-25T09:17:57Z</time>
      </trkpt>
      <trkpt lat="48.47198" lon="6.90973">
        <ele>412.54</ele>
        <time>2013-08-25T09:17:58Z</time>
      </trkpt>
      <trkpt lat="48.47202" lon="6.90978">
        <ele>411.1</ele>
        <time>2013-08-25T09:17:59Z</time>
      </trkpt>
      <trkpt lat="48.47229" lon="6.91009">
        <ele>410.14</ele>
        <time>2013-08-25T09:18:06Z</time>
      </trkpt>
      <trkpt lat="48.47247" lon="6.91021">
        <ele>409.66</ele>
        <time>2013-08-25T09:18:10Z</time>
      </trkpt>
      <trkpt lat="48.47251" lon="6.91023">
        <ele>409.66</ele>
        <time>2013-08-25T09:18:11Z</time>
      </trkpt>
      <trkpt lat="48.47256" lon="6.91023">
        <ele>409.66</ele>
        <time>2013-08-25T09:18:12Z</time>
      </trkpt>
      <trkpt lat="48.47261" lon="6.91022">
        <ele>410.14</ele>
        <time>2013-08-25T09:18:13Z</time>
      </trkpt>
      <trkpt lat="48.47265" lon="6.91021">
        <ele>410.14</ele>
        <time>2013-08-25T09:18:14Z</time>
      </trkpt>
      <trkpt lat="48.47269" lon="6.91018">
        <ele>409.66</ele>
        <time>2013-08-25T09:18:15Z</time>
      </trkpt>
      <trkpt lat="48.47272" lon="6.91015">
        <ele>409.66</ele>
        <time>2013-08-25T09:18:16Z</time>
      </trkpt>
      <trkpt lat="48.47276" lon="6.91011">
        <ele>409.66</ele>
        <time>2013-08-25T09:18:17Z</time>
      </trkpt>
      <trkpt lat="48.47279" lon="6.91008">
        <ele>409.66</ele>
        <time>2013-08-25T09:18:18Z</time>
      </trkpt>
      <trkpt lat="48.47296" lon="6.90996">
        <ele>409.18</ele>
        <time>2013-08-25T09:18:23Z</time>
      </trkpt>
      <trkpt lat="48.47301" lon="6.90995">
        <ele>409.18</ele>
        <time>2013-08-25T09:18:24Z</time>
      </trkpt>
      <trkpt lat="48.47344" lon="6.90981">
        <ele>408.7</ele>
        <time>2013-08-25T09:18:36Z</time>
      </trkpt>
      <trkpt lat="48.47348" lon="6.90981">
        <ele>410.14</ele>
        <time>2013-08-25T09:18:37Z</time>
      </trkpt>
      <trkpt lat="48.47351" lon="6.90982">
        <ele>409.66</ele>
        <time>2013-08-25T09:18:38Z</time>
      </trkpt>
      <trkpt lat="48.47392" lon="6.91019">
        <ele>410.14</ele>
        <time>2013-08-25T09:18:48Z</time>
      </trkpt>
      <trkpt lat="48.474" lon="6.91024">
        <ele>408.7</ele>
        <time>2013-08-25T09:18:50Z</time>
      </trkpt>
      <trkpt lat="48.47403" lon="6.91024">
        <ele>408.7</ele>
        <time>2013-08-25T09:18:51Z</time>
      </trkpt>
      <trkpt lat="48.47408" lon="6.91023">
        <ele>408.7</ele>
        <time>2013-08-25T09:18:52Z</time>
      </trkpt>
      <trkpt lat="48.47413" lon="6.91021">
        <ele>408.22</ele>
        <time>2013-08-25T09:18:53Z</time>
      </trkpt>
      <trkpt lat="48.47417" lon="6.91018">
        <ele>408.22</ele>
        <time>2013-08-25T09:18:54Z</time>
      </trkpt>
      <trkpt lat="48.47421" lon="6.91014">
        <ele>408.22</ele>
        <time>2013-08-25T09:18:55Z</time>
      </trkpt>
      <trkpt lat="48.47423" lon="6.91009">
        <ele>408.22</ele>
        <time>2013-08-25T09:18:56Z</time>
      </trkpt>
      <trkpt lat="48.47425" lon="6.91003">
        <ele>407.26</ele>
        <time>2013-08-25T09:18:57Z</time>
      </trkpt>
      <trkpt lat="48.47426" lon="6.90996">
        <ele>407.26</ele>
        <time>2013-08-25T09:18:58Z</time>
      </trkpt>
      <trkpt lat="48.47426" lon="6.90989">
        <ele>406.77</ele>
        <time>2013-08-25T09:18:59Z</time>
      </trkpt>
      <trkpt lat="48.47426" lon="6.90982">
        <ele>406.29</ele>
        <time>2013-08-25T09:19:00Z</time>
      </trkpt>
      <trkpt lat="48.47425" lon="6.90974">
        <ele>406.29</ele>
        <time>2013-08-25T09:19:01Z</time>
      </trkpt>
      <trkpt lat="48.4742" lon="6.90932">
        <ele>404.85</ele>
        <time>2013-08-25T09:19:07Z</time>
      </trkpt>
      <trkpt lat="48.47415" lon="6.90903">
        <ele>402.93</ele>
        <time>2013-08-25T09:19:11Z</time>
      </trkpt>
      <trkpt lat="48.47415" lon="6.90896">
        <ele>402.45</ele>
        <time>2013-08-25T09:19:12Z</time>
      </trkpt>
      <trkpt lat="48.47408" lon="6.90852">
        <ele>399.08</ele>
        <time>2013-08-25T09:19:20Z</time>
      </trkpt>
      <trkpt lat="48.47399" lon="6.90772">
        <ele>399.08</ele>
        <time>2013-08-25T09:19:34Z</time>
      </trkpt>
      <trkpt lat="48.47398" lon="6.90721">
        <ele>396.68</ele>
        <time>2013-08-25T09:19:42Z</time>
      </trkpt>
      <trkpt lat="48.47398" lon="6.90713">
        <ele>396.68</ele>
        <time>2013-08-25T09:19:43Z</time>
      </trkpt>
      <trkpt lat="48.47399" lon="6.90707">
        <ele>396.68</ele>
        <time>2013-08-25T09:19:44Z</time>
      </trkpt>
      <trkpt lat="48.474" lon="6.90702">
        <ele>396.68</ele>
        <time>2013-08-25T09:19:45Z</time>
      </trkpt>
      <trkpt lat="48.47403" lon="6.90697">
        <ele>396.68</ele>
        <time>2013-08-25T09:19:46Z</time>
      </trkpt>
      <trkpt lat="48.47405" lon="6.90694">
        <ele>397.64</ele>
        <time>2013-08-25T09:19:47Z</time>
      </trkpt>
      <trkpt lat="48.47408" lon="6.90691">
        <ele>397.64</ele>
        <time>2013-08-25T09:19:48Z</time>
      </trkpt>
      <trkpt lat="48.4741" lon="6.90688">
        <ele>397.64</ele>
        <time>2013-08-25T09:19:49Z</time>
      </trkpt>
      <trkpt lat="48.47411" lon="6.90686">
        <ele>398.12</ele>
        <time>2013-08-25T09:19:50Z</time>
      </trkpt>
      <trkpt lat="48.47412" lon="6.90685">
        <ele>398.12</ele>
        <time>2013-08-25T09:19:51Z</time>
      </trkpt>
      <trkpt lat="48.47412" lon="6.90683">
        <ele>398.12</ele>
        <time>2013-08-25T09:19:52Z</time>
      </trkpt>
      <trkpt lat="48.47439" lon="6.9065">
        <ele>399.08</ele>
        <time>2013-08-25T09:20:04Z</time>
      </trkpt>
      <trkpt lat="48.4746" lon="6.90626">
        <ele>399.08</ele>
        <time>2013-08-25T09:20:13Z</time>
      </trkpt>
      <trkpt lat="48.47488" lon="6.9064">
        <ele>400.53</ele>
        <time>2013-08-25T09:20:24Z</time>
      </trkpt>
      <trkpt lat="48.47507" lon="6.90654">
        <ele>401.01</ele>
        <time>2013-08-25T09:20:32Z</time>
      </trkpt>
      <trkpt lat="48.47511" lon="6.90658">
        <ele>402.45</ele>
        <time>2013-08-25T09:20:35Z</time>
      </trkpt>
      <trkpt lat="48.47513" lon="6.9066">
        <ele>402.45</ele>
        <time>2013-08-25T09:20:36Z</time>
      </trkpt>
      <trkpt lat="48.47519" lon="6.90663">
        <ele>402.45</ele>
        <time>2013-08-25T09:20:40Z</time>
      </trkpt>
      <trkpt lat="48.4752" lon="6.90664">
        <ele>402.45</ele>
        <time>2013-08-25T09:20:41Z</time>
      </trkpt>
      <trkpt lat="48.47542" lon="6.90674">
        <ele>404.85</ele>
        <time>2013-08-25T09:20:55Z</time>
      </trkpt>
      <trkpt lat="48.47556" lon="6.90683">
        <ele>405.33</ele>
        <time>2013-08-25T09:21:04Z</time>
      </trkpt>
      <trkpt lat="48.47558" lon="6.90683">
        <ele>405.33</ele>
        <time>2013-08-25T09:21:05Z</time>
      </trkpt>
      <trkpt lat="48.4756" lon="6.90684">
        <ele>405.33</ele>
        <time>2013-08-25T09:21:06Z</time>
      </trkpt>
      <trkpt lat="48.47588" lon="6.90697">
        <ele>407.74</ele>
        <time>2013-08-25T09:21:23Z</time>
      </trkpt>
      <trkpt lat="48.47606" lon="6.90694">
        <ele>410.14</ele>
        <time>2013-08-25T09:21:35Z</time>
      </trkpt>
      <trkpt lat="48.47615" lon="6.90688">
        <ele>412.54</ele>
        <time>2013-08-25T09:21:41Z</time>
      </trkpt>
      <trkpt lat="48.47622" lon="6.9068">
        <ele>412.54</ele>
        <time>2013-08-25T09:21:47Z</time>
      </trkpt>
      <trkpt lat="48.47624" lon="6.90679">
        <ele>412.54</ele>
        <time>2013-08-25T09:21:48Z</time>
      </trkpt>
      <trkpt lat="48.47625" lon="6.90678">
        <ele>413.02</ele>
        <time>2013-08-25T09:21:49Z</time>
      </trkpt>
      <trkpt lat="48.47627" lon="6.90676">
        <ele>413.02</ele>
        <time>2013-08-25T09:21:50Z</time>
      </trkpt>
      <trkpt lat="48.47629" lon="6.90675">
        <ele>413.5</ele>
        <time>2013-08-25T09:21:51Z</time>
      </trkpt>
      <trkpt lat="48.47632" lon="6.90674">
        <ele>413.5</ele>
        <time>2013-08-25T09:21:52Z</time>
      </trkpt>
      <trkpt lat="48.47634" lon="6.90672">
        <ele>413.5</ele>
        <time>2013-08-25T09:21:53Z</time>
      </trkpt>
      <trkpt lat="48.47635" lon="6.90671">
        <ele>413.5</ele>
        <time>2013-08-25T09:21:54Z</time>
      </trkpt>
      <trkpt lat="48.47636" lon="6.90669">
        <ele>413.5</ele>
        <time>2013-08-25T09:21:55Z</time>
      </trkpt>
      <trkpt lat="48.47638" lon="6.90668">
        <ele>413.5</ele>
        <time>2013-08-25T09:21:56Z</time>
      </trkpt>
      <trkpt lat="48.47643" lon="6.90657">
        <ele>414.95</ele>
        <time>2013-08-25T09:22:04Z</time>
      </trkpt>
      <trkpt lat="48.47644" lon="6.90655">
        <ele>413.5</ele>
        <time>2013-08-25T09:22:07Z</time>
      </trkpt>
      <trkpt lat="48.47644" lon="6.90655">
        <ele>413.5</ele>
        <time>2013-08-25T09:22:33Z</time>
      </trkpt>
      <trkpt lat="48.47644" lon="6.90655">
        <ele>413.5</ele>
        <time>2013-08-25T09:23:03Z</time>
      </trkpt>
      <trkpt lat="48.47644" lon="6.90655">
        <ele>414.47</ele>
        <time>2013-08-25T09:23:05Z</time>
      </trkpt>
      <trkpt lat="48.47644" lon="6.90655">
        <ele>413.98</ele>
        <time>2013-08-25T09:23:22Z</time>
      </trkpt>
      <trkpt lat="48.47646" lon="6.90653">
        <ele>413.98</ele>
        <time>2013-08-25T09:23:40Z</time>
      </trkpt>
      <trkpt lat="48.47646" lon="6.90653">
        <ele>415.43</ele>
        <time>2013-08-25T09:23:42Z</time>
      </trkpt>
      <trkpt lat="48.47646" lon="6.90653">
        <ele>413.98</ele>
        <time>2013-08-25T09:23:44Z</time>
      </trkpt>
      <trkpt lat="48.47646" lon="6.90653">
        <ele>413.5</ele>
        <time>2013-08-25T09:24:05Z</time>
      </trkpt>
      <trkpt lat="48.47646" lon="6.90654">
        <ele>413.5</ele>
        <time>2013-08-25T09:24:30Z</time>
      </trkpt>
      <trkpt lat="48.47647" lon="6.90655">
        <ele>413.5</ele>
        <time>2013-08-25T09:25:02Z</time>
      </trkpt>
      <trkpt lat="48.47648" lon="6.90656">
        <ele>413.5</ele>
        <time>2013-08-25T09:25:11Z</time>
      </trkpt>
      <trkpt lat="48.47648" lon="6.90656">
        <ele>412.54</ele>
        <time>2013-08-25T09:25:27Z</time>
      </trkpt>
      <trkpt lat="48.47648" lon="6.90656">
        <ele>411.1</ele>
        <time>2013-08-25T09:25:43Z</time>
      </trkpt>
      <trkpt lat="48.47656" lon="6.90665">
        <ele>407.26</ele>
        <time>2013-08-25T09:25:57Z</time>
      </trkpt>
      <trkpt lat="48.47662" lon="6.9067">
        <ele>403.89</ele>
        <time>2013-08-25T09:26:05Z</time>
      </trkpt>
      <trkpt lat="48.47674" lon="6.90671">
        <ele>403.89</ele>
        <time>2013-08-25T09:26:13Z</time>
      </trkpt>
      <trkpt lat="48.47676" lon="6.90669">
        <ele>402.93</ele>
        <time>2013-08-25T09:26:14Z</time>
      </trkpt>
      <trkpt lat="48.47678" lon="6.90666">
        <ele>402.93</ele>
        <time>2013-08-25T09:26:15Z</time>
      </trkpt>
      <trkpt lat="48.47683" lon="6.90657">
        <ele>400.53</ele>
        <time>2013-08-25T09:26:29Z</time>
      </trkpt>
      <trkpt lat="48.47701" lon="6.90646">
        <ele>396.68</ele>
        <time>2013-08-25T09:26:35Z</time>
      </trkpt>
      <trkpt lat="48.47703" lon="6.90645">
        <ele>396.68</ele>
        <time>2013-08-25T09:26:36Z</time>
      </trkpt>
      <trkpt lat="48.47704" lon="6.90644">
        <ele>398.12</ele>
        <time>2013-08-25T09:26:54Z</time>
      </trkpt>
      <trkpt lat="48.47706" lon="6.9064">
        <ele>396.68</ele>
        <time>2013-08-25T09:27:04Z</time>
      </trkpt>
      <trkpt lat="48.47708" lon="6.90634">
        <ele>396.68</ele>
        <time>2013-08-25T09:27:07Z</time>
      </trkpt>
      <trkpt lat="48.47719" lon="6.90604">
        <ele>397.64</ele>
        <time>2013-08-25T09:27:17Z</time>
      </trkpt>
      <trkpt lat="48.4773" lon="6.90588">
        <ele>399.57</ele>
        <time>2013-08-25T09:27:28Z</time>
      </trkpt>
      <trkpt lat="48.47729" lon="6.90588">
        <ele>399.57</ele>
        <time>2013-08-25T09:27:56Z</time>
      </trkpt>
      <trkpt lat="48.47733" lon="6.90581">
        <ele>399.08</ele>
        <time>2013-08-25T09:28:07Z</time>
      </trkpt>
      <trkpt lat="48.47735" lon="6.90579">
        <ele>399.08</ele>
        <time>2013-08-25T09:28:08Z</time>
      </trkpt>
      <trkpt lat="48.47737" lon="6.90575">
        <ele>399.08</ele>
        <time>2013-08-25T09:28:09Z</time>
      </trkpt>
      <trkpt lat="48.47738" lon="6.90572">
        <ele>399.08</ele>
        <time>2013-08-25T09:28:10Z</time>
      </trkpt>
      <trkpt lat="48.47739" lon="6.90569">
        <ele>399.08</ele>
        <time>2013-08-25T09:28:11Z</time>
      </trkpt>
      <trkpt lat="48.47739" lon="6.90566">
        <ele>399.08</ele>
        <time>2013-08-25T09:28:12Z</time>
      </trkpt>
      <trkpt lat="48.47739" lon="6.90563">
        <ele>399.08</ele>
        <time>2013-08-25T09:28:13Z</time>
      </trkpt>
      <trkpt lat="48.47739" lon="6.9056">
        <ele>399.08</ele>
        <time>2013-08-25T09:28:14Z</time>
      </trkpt>
      <trkpt lat="48.47748" lon="6.90496">
        <ele>397.16</ele>
        <time>2013-08-25T09:28:28Z</time>
      </trkpt>
      <trkpt lat="48.47744" lon="6.90452">
        <ele>397.16</ele>
        <time>2013-08-25T09:28:40Z</time>
      </trkpt>
      <trkpt lat="48.47734" lon="6.90401">
        <ele>395.24</ele>
        <time>2013-08-25T09:28:51Z</time>
      </trkpt>
      <trkpt lat="48.47725" lon="6.90343">
        <ele>393.32</ele>
        <time>2013-08-25T09:29:03Z</time>
      </trkpt>
      <trkpt lat="48.47731" lon="6.90302">
        <ele>392.36</ele>
        <time>2013-08-25T09:29:13Z</time>
      </trkpt>
      <trkpt lat="48.4773" lon="6.90274">
        <ele>391.39</ele>
        <time>2013-08-25T09:29:23Z</time>
      </trkpt>
      <trkpt lat="48.47729" lon="6.90269">
        <ele>391.39</ele>
        <time>2013-08-25T09:29:26Z</time>
      </trkpt>
      <trkpt lat="48.47727" lon="6.90255">
        <ele>393.32</ele>
        <time>2013-08-25T09:29:30Z</time>
      </trkpt>
      <trkpt lat="48.47726" lon="6.90251">
        <ele>393.32</ele>
        <time>2013-08-25T09:29:31Z</time>
      </trkpt>
      <trkpt lat="48.47726" lon="6.90247">
        <ele>393.32</ele>
        <time>2013-08-25T09:29:32Z</time>
      </trkpt>
      <trkpt lat="48.47725" lon="6.90243">
        <ele>393.32</ele>
        <time>2013-08-25T09:29:33Z</time>
      </trkpt>
      <trkpt lat="48.47724" lon="6.90239">
        <ele>393.32</ele>
        <time>2013-08-25T09:29:34Z</time>
      </trkpt>
      <trkpt lat="48.47722" lon="6.90236">
        <ele>393.32</ele>
        <time>2013-08-25T09:29:35Z</time>
      </trkpt>
      <trkpt lat="48.47722" lon="6.90233">
        <ele>393.32</ele>
        <time>2013-08-25T09:29:36Z</time>
      </trkpt>
      <trkpt lat="48.47712" lon="6.90208">
        <ele>393.8</ele>
        <time>2013-08-25T09:29:46Z</time>
      </trkpt>
      <trkpt lat="48.47713" lon="6.90203">
        <ele>393.8</ele>
        <time>2013-08-25T09:29:48Z</time>
      </trkpt>
      <trkpt lat="48.47731" lon="6.90176">
        <ele>392.84</ele>
        <time>2013-08-25T09:30:00Z</time>
      </trkpt>
      <trkpt lat="48.47733" lon="6.90174">
        <ele>392.84</ele>
        <time>2013-08-25T09:30:01Z</time>
      </trkpt>
      <trkpt lat="48.47735" lon="6.90172">
        <ele>392.84</ele>
        <time>2013-08-25T09:30:02Z</time>
      </trkpt>
      <trkpt lat="48.47737" lon="6.90169">
        <ele>392.84</ele>
        <time>2013-08-25T09:30:03Z</time>
      </trkpt>
      <trkpt lat="48.47738" lon="6.90167">
        <ele>392.84</ele>
        <time>2013-08-25T09:30:04Z</time>
      </trkpt>
      <trkpt lat="48.4774" lon="6.90165">
        <ele>392.84</ele>
        <time>2013-08-25T09:30:05Z</time>
      </trkpt>
      <trkpt lat="48.47744" lon="6.90161">
        <ele>394.28</ele>
        <time>2013-08-25T09:30:09Z</time>
      </trkpt>
      <trkpt lat="48.47746" lon="6.90163">
        <ele>394.28</ele>
        <time>2013-08-25T09:30:12Z</time>
      </trkpt>
      <trkpt lat="48.47767" lon="6.90178">
        <ele>395.72</ele>
        <time>2013-08-25T09:30:28Z</time>
      </trkpt>
      <trkpt lat="48.47791" lon="6.9019">
        <ele>396.2</ele>
        <time>2013-08-25T09:30:40Z</time>
      </trkpt>
      <trkpt lat="48.47813" lon="6.90197">
        <ele>396.68</ele>
        <time>2013-08-25T09:30:53Z</time>
      </trkpt>
      <trkpt lat="48.47815" lon="6.90196">
        <ele>396.68</ele>
        <time>2013-08-25T09:30:55Z</time>
      </trkpt>
      <trkpt lat="48.47816" lon="6.90196">
        <ele>396.68</ele>
        <time>2013-08-25T09:30:56Z</time>
      </trkpt>
      <trkpt lat="48.47818" lon="6.90196">
        <ele>397.16</ele>
        <time>2013-08-25T09:30:57Z</time>
      </trkpt>
      <trkpt lat="48.4782" lon="6.90195">
        <ele>397.16</ele>
        <time>2013-08-25T09:30:58Z</time>
      </trkpt>
      <trkpt lat="48.47822" lon="6.90195">
        <ele>397.64</ele>
        <time>2013-08-25T09:30:59Z</time>
      </trkpt>
      <trkpt lat="48.47831" lon="6.90192">
        <ele>397.64</ele>
        <time>2013-08-25T09:31:03Z</time>
      </trkpt>
      <trkpt lat="48.47833" lon="6.90192">
        <ele>398.12</ele>
        <time>2013-08-25T09:31:04Z</time>
      </trkpt>
      <trkpt lat="48.47836" lon="6.90191">
        <ele>398.12</ele>
        <time>2013-08-25T09:31:05Z</time>
      </trkpt>
      <trkpt lat="48.47855" lon="6.90192">
        <ele>398.12</ele>
        <time>2013-08-25T09:31:12Z</time>
      </trkpt>
      <trkpt lat="48.47865" lon="6.90187">
        <ele>398.12</ele>
        <time>2013-08-25T09:31:19Z</time>
      </trkpt>
      <trkpt lat="48.4788" lon="6.90183">
        <ele>396.2</ele>
        <time>2013-08-25T09:31:28Z</time>
      </trkpt>
      <trkpt lat="48.47884" lon="6.90182">
        <ele>396.2</ele>
        <time>2013-08-25T09:31:30Z</time>
      </trkpt>
      <trkpt lat="48.47912" lon="6.90176">
        <ele>395.72</ele>
        <time>2013-08-25T09:31:42Z</time>
      </trkpt>
      <trkpt lat="48.47918" lon="6.90174">
        <ele>398.12</ele>
        <time>2013-08-25T09:31:45Z</time>
      </trkpt>
      <trkpt lat="48.47938" lon="6.90172">
        <ele>398.12</ele>
        <time>2013-08-25T09:32:00Z</time>
      </trkpt>
      <trkpt lat="48.4794" lon="6.90173">
        <ele>398.12</ele>
        <time>2013-08-25T09:32:01Z</time>
      </trkpt>
      <trkpt lat="48.47943" lon="6.90174">
        <ele>398.12</ele>
        <time>2013-08-25T09:32:02Z</time>
      </trkpt>
      <trkpt lat="48.47945" lon="6.90176">
        <ele>398.12</ele>
        <time>2013-08-25T09:32:03Z</time>
      </trkpt>
      <trkpt lat="48.47947" lon="6.90178">
        <ele>398.12</ele>
        <time>2013-08-25T09:32:04Z</time>
      </trkpt>
      <trkpt lat="48.47949" lon="6.9018">
        <ele>398.12</ele>
        <time>2013-08-25T09:32:05Z</time>
      </trkpt>
      <trkpt lat="48.47951" lon="6.9018">
        <ele>398.12</ele>
        <time>2013-08-25T09:32:06Z</time>
      </trkpt>
      <trkpt lat="48.47954" lon="6.90182">
        <ele>398.12</ele>
        <time>2013-08-25T09:32:07Z</time>
      </trkpt>
      <trkpt lat="48.47956" lon="6.90183">
        <ele>398.12</ele>
        <time>2013-08-25T09:32:08Z</time>
      </trkpt>
      <trkpt lat="48.47957" lon="6.90184">
        <ele>398.12</ele>
        <time>2013-08-25T09:32:09Z</time>
      </trkpt>
      <trkpt lat="48.47959" lon="6.90185">
        <ele>398.12</ele>
        <time>2013-08-25T09:32:10Z</time>
      </trkpt>
      <trkpt lat="48.47962" lon="6.90187">
        <ele>398.12</ele>
        <time>2013-08-25T09:32:11Z</time>
      </trkpt>
      <trkpt lat="48.47988" lon="6.90206">
        <ele>398.12</ele>
        <time>2013-08-25T09:32:21Z</time>
      </trkpt>
      <trkpt lat="48.47993" lon="6.90214">
        <ele>398.6</ele>
        <time>2013-08-25T09:32:26Z</time>
      </trkpt>
      <trkpt lat="48.47996" lon="6.90227">
        <ele>398.6</ele>
        <time>2013-08-25T09:32:31Z</time>
      </trkpt>
      <trkpt lat="48.48" lon="6.90238">
        <ele>398.6</ele>
        <time>2013-08-25T09:32:35Z</time>
      </trkpt>
      <trkpt lat="48.48003" lon="6.90243">
        <ele>398.6</ele>
        <time>2013-08-25T09:32:37Z</time>
      </trkpt>
      <trkpt lat="48.48004" lon="6.90247">
        <ele>398.6</ele>
        <time>2013-08-25T09:32:38Z</time>
      </trkpt>
      <trkpt lat="48.48005" lon="6.9025">
        <ele>398.6</ele>
        <time>2013-08-25T09:32:39Z</time>
      </trkpt>
      <trkpt lat="48.48006" lon="6.90254">
        <ele>398.6</ele>
        <time>2013-08-25T09:32:40Z</time>
      </trkpt>
      <trkpt lat="48.48007" lon="6.90257">
        <ele>398.6</ele>
        <time>2013-08-25T09:32:41Z</time>
      </trkpt>
      <trkpt lat="48.48008" lon="6.90261">
        <ele>398.6</ele>
        <time>2013-08-25T09:32:42Z</time>
      </trkpt>
      <trkpt lat="48.48009" lon="6.90264">
        <ele>398.6</ele>
        <time>2013-08-25T09:32:43Z</time>
      </trkpt>
      <trkpt lat="48.4801" lon="6.90268">
        <ele>398.6</ele>
        <time>2013-08-25T09:32:44Z</time>
      </trkpt>
      <trkpt lat="48.48012" lon="6.90271">
        <ele>398.6</ele>
        <time>2013-08-25T09:32:45Z</time>
      </trkpt>
      <trkpt lat="48.48012" lon="6.90275">
        <ele>399.08</ele>
        <time>2013-08-25T09:32:46Z</time>
      </trkpt>
      <trkpt lat="48.48013" lon="6.90279">
        <ele>399.08</ele>
        <time>2013-08-25T09:32:47Z</time>
      </trkpt>
      <trkpt lat="48.48014" lon="6.90283">
        <ele>399.08</ele>
        <time>2013-08-25T09:32:48Z</time>
      </trkpt>
      <trkpt lat="48.48015" lon="6.90287">
        <ele>399.08</ele>
        <time>2013-08-25T09:32:49Z</time>
      </trkpt>
      <trkpt lat="48.48016" lon="6.9029">
        <ele>399.08</ele>
        <time>2013-08-25T09:32:50Z</time>
      </trkpt>
      <trkpt lat="48.48025" lon="6.90332">
        <ele>400.05</ele>
        <time>2013-08-25T09:33:04Z</time>
      </trkpt>
      <trkpt lat="48.48026" lon="6.90334">
        <ele>400.05</ele>
        <time>2013-08-25T09:33:05Z</time>
      </trkpt>
      <trkpt lat="48.48026" lon="6.90336">
        <ele>400.05</ele>
        <time>2013-08-25T09:33:06Z</time>
      </trkpt>
      <trkpt lat="48.48027" lon="6.90339">
        <ele>400.53</ele>
        <time>2013-08-25T09:33:07Z</time>
      </trkpt>
      <trkpt lat="48.48027" lon="6.90342">
        <ele>401.01</ele>
        <time>2013-08-25T09:33:08Z</time>
      </trkpt>
      <trkpt lat="48.48028" lon="6.90345">
        <ele>401.01</ele>
        <time>2013-08-25T09:33:09Z</time>
      </trkpt>
      <trkpt lat="48.48028" lon="6.90347">
        <ele>401.01</ele>
        <time>2013-08-25T09:33:10Z</time>
      </trkpt>
      <trkpt lat="48.48029" lon="6.9035">
        <ele>401.01</ele>
        <time>2013-08-25T09:33:11Z</time>
      </trkpt>
      <trkpt lat="48.48044" lon="6.90389">
        <ele>402.93</ele>
        <time>2013-08-25T09:33:24Z</time>
      </trkpt>
      <trkpt lat="48.48059" lon="6.9042">
        <ele>404.37</ele>
        <time>2013-08-25T09:33:38Z</time>
      </trkpt>
      <trkpt lat="48.48067" lon="6.9043">
        <ele>406.77</ele>
        <time>2013-08-25T09:33:46Z</time>
      </trkpt>
      <trkpt lat="48.48069" lon="6.90431">
        <ele>405.81</ele>
        <time>2013-08-25T09:33:48Z</time>
      </trkpt>
      <trkpt lat="48.4808" lon="6.90441">
        <ele>407.26</ele>
        <time>2013-08-25T09:34:03Z</time>
      </trkpt>
      <trkpt lat="48.48091" lon="6.90449">
        <ele>408.7</ele>
        <time>2013-08-25T09:34:18Z</time>
      </trkpt>
      <trkpt lat="48.48105" lon="6.90464">
        <ele>410.14</ele>
        <time>2013-08-25T09:34:30Z</time>
      </trkpt>
      <trkpt lat="48.48103" lon="6.90466">
        <ele>410.14</ele>
        <time>2013-08-25T09:34:34Z</time>
      </trkpt>
      <trkpt lat="48.48101" lon="6.90467">
        <ele>410.14</ele>
        <time>2013-08-25T09:34:53Z</time>
      </trkpt>
      <trkpt lat="48.48101" lon="6.90467">
        <ele>410.14</ele>
        <time>2013-08-25T09:35:22Z</time>
      </trkpt>
      <trkpt lat="48.48101" lon="6.90467">
        <ele>409.66</ele>
        <time>2013-08-25T09:35:48Z</time>
      </trkpt>
      <trkpt lat="48.48102" lon="6.90467">
        <ele>409.18</ele>
        <time>2013-08-25T09:36:19Z</time>
      </trkpt>
      <trkpt lat="48.48104" lon="6.9047">
        <ele>408.7</ele>
        <time>2013-08-25T09:36:24Z</time>
      </trkpt>
      <trkpt lat="48.48105" lon="6.90471">
        <ele>408.7</ele>
        <time>2013-08-25T09:36:25Z</time>
      </trkpt>
      <trkpt lat="48.48107" lon="6.9047">
        <ele>408.7</ele>
        <time>2013-08-25T09:36:26Z</time>
      </trkpt>
      <trkpt lat="48.48108" lon="6.90469">
        <ele>408.7</ele>
        <time>2013-08-25T09:36:27Z</time>
      </trkpt>
      <trkpt lat="48.48109" lon="6.90467">
        <ele>408.7</ele>
        <time>2013-08-25T09:36:28Z</time>
      </trkpt>
      <trkpt lat="48.48125" lon="6.90458">
        <ele>411.58</ele>
        <time>2013-08-25T09:36:43Z</time>
      </trkpt>
      <trkpt lat="48.48126" lon="6.9046">
        <ele>412.06</ele>
        <time>2013-08-25T09:36:44Z</time>
      </trkpt>
      <trkpt lat="48.48126" lon="6.90463">
        <ele>412.06</ele>
        <time>2013-08-25T09:36:45Z</time>
      </trkpt>
      <trkpt lat="48.48128" lon="6.90469">
        <ele>411.58</ele>
        <time>2013-08-25T09:36:47Z</time>
      </trkpt>
      <trkpt lat="48.48136" lon="6.90479">
        <ele>411.58</ele>
        <time>2013-08-25T09:36:51Z</time>
      </trkpt>
      <trkpt lat="48.48141" lon="6.90489">
        <ele>411.58</ele>
        <time>2013-08-25T09:36:55Z</time>
      </trkpt>
      <trkpt lat="48.48144" lon="6.90493">
        <ele>410.14</ele>
        <time>2013-08-25T09:36:57Z</time>
      </trkpt>
      <trkpt lat="48.48148" lon="6.90502">
        <ele>409.66</ele>
        <time>2013-08-25T09:37:00Z</time>
      </trkpt>
      <trkpt lat="48.4816" lon="6.90536">
        <ele>408.22</ele>
        <time>2013-08-25T09:37:14Z</time>
      </trkpt>
      <trkpt lat="48.48154" lon="6.90555">
        <ele>408.22</ele>
        <time>2013-08-25T09:37:27Z</time>
      </trkpt>
      <trkpt lat="48.48153" lon="6.90563">
        <ele>408.22</ele>
        <time>2013-08-25T09:37:30Z</time>
      </trkpt>
      <trkpt lat="48.4815" lon="6.90603">
        <ele>407.26</ele>
        <time>2013-08-25T09:37:40Z</time>
      </trkpt>
      <trkpt lat="48.48151" lon="6.90636">
        <ele>408.7</ele>
        <time>2013-08-25T09:37:48Z</time>
      </trkpt>
      <trkpt lat="48.48151" lon="6.90645">
        <ele>407.26</ele>
        <time>2013-08-25T09:37:50Z</time>
      </trkpt>
      <trkpt lat="48.48154" lon="6.90669">
        <ele>408.7</ele>
        <time>2013-08-25T09:37:59Z</time>
      </trkpt>
      <trkpt lat="48.48155" lon="6.9067">
        <ele>408.7</ele>
        <time>2013-08-25T09:38:00Z</time>
      </trkpt>
      <trkpt lat="48.48164" lon="6.90685">
        <ele>407.26</ele>
        <time>2013-08-25T09:38:05Z</time>
      </trkpt>
      <trkpt lat="48.48168" lon="6.90702">
        <ele>406.29</ele>
        <time>2013-08-25T09:38:11Z</time>
      </trkpt>
      <trkpt lat="48.48168" lon="6.90705">
        <ele>405.81</ele>
        <time>2013-08-25T09:38:13Z</time>
      </trkpt>
      <trkpt lat="48.48173" lon="6.90712">
        <ele>403.89</ele>
        <time>2013-08-25T09:38:17Z</time>
      </trkpt>
      <trkpt lat="48.48188" lon="6.90709">
        <ele>400.53</ele>
        <time>2013-08-25T09:38:25Z</time>
      </trkpt>
      <trkpt lat="48.48199" lon="6.90697">
        <ele>397.16</ele>
        <time>2013-08-25T09:38:33Z</time>
      </trkpt>
      <trkpt lat="48.48203" lon="6.90694">
        <ele>396.2</ele>
        <time>2013-08-25T09:38:35Z</time>
      </trkpt>
      <trkpt lat="48.48206" lon="6.9069">
        <ele>395.24</ele>
        <time>2013-08-25T09:38:37Z</time>
      </trkpt>
      <trkpt lat="48.48207" lon="6.90688">
        <ele>394.76</ele>
        <time>2013-08-25T09:38:38Z</time>
      </trkpt>
      <trkpt lat="48.48216" lon="6.9063">
        <ele>392.84</ele>
        <time>2013-08-25T09:38:49Z</time>
      </trkpt>
      <trkpt lat="48.48225" lon="6.90602">
        <ele>391.87</ele>
        <time>2013-08-25T09:38:55Z</time>
      </trkpt>
      <trkpt lat="48.48245" lon="6.90598">
        <ele>390.43</ele>
        <time>2013-08-25T09:39:07Z</time>
      </trkpt>
      <trkpt lat="48.48247" lon="6.90599">
        <ele>388.99</ele>
        <time>2013-08-25T09:39:10Z</time>
      </trkpt>
      <trkpt lat="48.48257" lon="6.90593">
        <ele>390.43</ele>
        <time>2013-08-25T09:39:18Z</time>
      </trkpt>
      <trkpt lat="48.48266" lon="6.90586">
        <ele>391.39</ele>
        <time>2013-08-25T09:39:22Z</time>
      </trkpt>
      <trkpt lat="48.48276" lon="6.90569">
        <ele>391.87</ele>
        <time>2013-08-25T09:39:29Z</time>
      </trkpt>
      <trkpt lat="48.483" lon="6.90568">
        <ele>393.8</ele>
        <time>2013-08-25T09:39:42Z</time>
      </trkpt>
      <trkpt lat="48.48308" lon="6.90579">
        <ele>395.72</ele>
        <time>2013-08-25T09:39:49Z</time>
      </trkpt>
      <trkpt lat="48.48324" lon="6.90605">
        <ele>395.72</ele>
        <time>2013-08-25T09:40:03Z</time>
      </trkpt>
      <trkpt lat="48.48338" lon="6.90627">
        <ele>397.16</ele>
        <time>2013-08-25T09:40:16Z</time>
      </trkpt>
      <trkpt lat="48.48346" lon="6.90639">
        <ele>397.16</ele>
        <time>2013-08-25T09:40:33Z</time>
      </trkpt>
      <trkpt lat="48.48346" lon="6.90639">
        <ele>397.16</ele>
        <time>2013-08-25T09:41:00Z</time>
      </trkpt>
      <trkpt lat="48.48347" lon="6.90639">
        <ele>397.16</ele>
        <time>2013-08-25T09:41:25Z</time>
      </trkpt>
      <trkpt lat="48.48347" lon="6.90639">
        <ele>398.6</ele>
        <time>2013-08-25T09:41:49Z</time>
      </trkpt>
      <trkpt lat="48.48347" lon="6.90639">
        <ele>397.64</ele>
        <time>2013-08-25T09:42:21Z</time>
      </trkpt>
      <trkpt lat="48.48347" lon="6.9064">
        <ele>397.64</ele>
        <time>2013-08-25T09:42:51Z</time>
      </trkpt>
      <trkpt lat="48.48348" lon="6.90644">
        <ele>397.16</ele>
        <time>2013-08-25T09:43:02Z</time>
      </trkpt>
      <trkpt lat="48.48354" lon="6.90656">
        <ele>398.12</ele>
        <time>2013-08-25T09:43:08Z</time>
      </trkpt>
      <trkpt lat="48.48372" lon="6.90684">
        <ele>398.6</ele>
        <time>2013-08-25T09:43:20Z</time>
      </trkpt>
      <trkpt lat="48.48374" lon="6.90688">
        <ele>399.08</ele>
        <time>2013-08-25T09:43:23Z</time>
      </trkpt>
      <trkpt lat="48.48383" lon="6.90719">
        <ele>400.05</ele>
        <time>2013-08-25T09:43:36Z</time>
      </trkpt>
      <trkpt lat="48.48383" lon="6.90733">
        <ele>400.53</ele>
        <time>2013-08-25T09:43:44Z</time>
      </trkpt>
      <trkpt lat="48.48396" lon="6.90755">
        <ele>402.45</ele>
        <time>2013-08-25T09:43:51Z</time>
      </trkpt>
      <trkpt lat="48.484" lon="6.90761">
        <ele>400.53</ele>
        <time>2013-08-25T09:43:53Z</time>
      </trkpt>
      <trkpt lat="48.48435" lon="6.90803">
        <ele>400.53</ele>
        <time>2013-08-25T09:44:06Z</time>
      </trkpt>
      <trkpt lat="48.48436" lon="6.90808">
        <ele>400.53</ele>
        <time>2013-08-25T09:44:09Z</time>
      </trkpt>
      <trkpt lat="48.48437" lon="6.90812">
        <ele>400.53</ele>
        <time>2013-08-25T09:44:11Z</time>
      </trkpt>
      <trkpt lat="48.48457" lon="6.90852">
        <ele>402.45</ele>
        <time>2013-08-25T09:44:26Z</time>
      </trkpt>
      <trkpt lat="48.48467" lon="6.90873">
        <ele>402.45</ele>
        <time>2013-08-25T09:44:33Z</time>
      </trkpt>
      <trkpt lat="48.48476" lon="6.90892">
        <ele>402.45</ele>
        <time>2013-08-25T09:44:41Z</time>
      </trkpt>
      <trkpt lat="48.48482" lon="6.90902">
        <ele>402.45</ele>
        <time>2013-08-25T09:44:45Z</time>
      </trkpt>
      <trkpt lat="48.48484" lon="6.90915">
        <ele>402.93</ele>
        <time>2013-08-25T09:44:50Z</time>
      </trkpt>
      <trkpt lat="48.48472" lon="6.90918">
        <ele>401.49</ele>
        <time>2013-08-25T09:44:55Z</time>
      </trkpt>
      <trkpt lat="48.48466" lon="6.90918">
        <ele>401.01</ele>
        <time>2013-08-25T09:44:58Z</time>
      </trkpt>
      <trkpt lat="48.48426" lon="6.90904">
        <ele>398.12</ele>
        <time>2013-08-25T09:45:12Z</time>
      </trkpt>
      <trkpt lat="48.48395" lon="6.90896">
        <ele>395.24</ele>
        <time>2013-08-25T09:45:23Z</time>
      </trkpt>
      <trkpt lat="48.48377" lon="6.90913">
        <ele>395.24</ele>
        <time>2013-08-25T09:45:34Z</time>
      </trkpt>
      <trkpt lat="48.48376" lon="6.90918">
        <ele>395.24</ele>
        <time>2013-08-25T09:45:37Z</time>
      </trkpt>
      <trkpt lat="48.48376" lon="6.90927">
        <ele>396.68</ele>
        <time>2013-08-25T09:45:40Z</time>
      </trkpt>
      <trkpt lat="48.48376" lon="6.9093">
        <ele>397.16</ele>
        <time>2013-08-25T09:45:41Z</time>
      </trkpt>
      <trkpt lat="48.48367" lon="6.90957">
        <ele>398.12</ele>
        <time>2013-08-25T09:45:52Z</time>
      </trkpt>
      <trkpt lat="48.48355" lon="6.9099">
        <ele>397.64</ele>
        <time>2013-08-25T09:46:05Z</time>
      </trkpt>
      <trkpt lat="48.48345" lon="6.91007">
        <ele>397.64</ele>
        <time>2013-08-25T09:46:14Z</time>
      </trkpt>
      <trkpt lat="48.48337" lon="6.9104">
        <ele>397.64</ele>
        <time>2013-08-25T09:46:27Z</time>
      </trkpt>
      <trkpt lat="48.48332" lon="6.9105">
        <ele>397.64</ele>
        <time>2013-08-25T09:46:32Z</time>
      </trkpt>
      <trkpt lat="48.4831" lon="6.91046">
        <ele>395.24</ele>
        <time>2013-08-25T09:46:43Z</time>
      </trkpt>
      <trkpt lat="48.48294" lon="6.91048">
        <ele>392.84</ele>
        <time>2013-08-25T09:46:50Z</time>
      </trkpt>
      <trkpt lat="48.4828" lon="6.91064">
        <ele>394.76</ele>
        <time>2013-08-25T09:47:01Z</time>
      </trkpt>
      <trkpt lat="48.48277" lon="6.91065">
        <ele>394.76</ele>
        <time>2013-08-25T09:47:05Z</time>
      </trkpt>
      <trkpt lat="48.48274" lon="6.91073">
        <ele>395.72</ele>
        <time>2013-08-25T09:47:09Z</time>
      </trkpt>
      <trkpt lat="48.4827" lon="6.91084">
        <ele>396.2</ele>
        <time>2013-08-25T09:47:14Z</time>
      </trkpt>
      <trkpt lat="48.48263" lon="6.91091">
        <ele>396.68</ele>
        <time>2013-08-25T09:47:21Z</time>
      </trkpt>
      <trkpt lat="48.48256" lon="6.91091">
        <ele>396.68</ele>
        <time>2013-08-25T09:47:25Z</time>
      </trkpt>
      <trkpt lat="48.48252" lon="6.91083">
        <ele>396.68</ele>
        <time>2013-08-25T09:47:38Z</time>
      </trkpt>
      <trkpt lat="48.48251" lon="6.91083">
        <ele>396.68</ele>
        <time>2013-08-25T09:48:14Z</time>
      </trkpt>
      <trkpt lat="48.48251" lon="6.91083">
        <ele>395.72</ele>
        <time>2013-08-25T09:48:47Z</time>
      </trkpt>
      <trkpt lat="48.48251" lon="6.91083">
        <ele>395.72</ele>
        <time>2013-08-25T09:48:48Z</time>
      </trkpt>
      <trkpt lat="48.48251" lon="6.91083">
        <ele>395.72</ele>
        <time>2013-08-25T09:49:07Z</time>
      </trkpt>
      <trkpt lat="48.48251" lon="6.91083">
        <ele>395.72</ele>
        <time>2013-08-25T09:49:41Z</time>
      </trkpt>
      <trkpt lat="48.48251" lon="6.91083">
        <ele>395.72</ele>
        <time>2013-08-25T09:50:13Z</time>
      </trkpt>
      <trkpt lat="48.4825" lon="6.91083">
        <ele>395.72</ele>
        <time>2013-08-25T09:50:51Z</time>
      </trkpt>
      <trkpt lat="48.4825" lon="6.91083">
        <ele>395.72</ele>
        <time>2013-08-25T09:51:24Z</time>
      </trkpt>
      <trkpt lat="48.4825" lon="6.91083">
        <ele>396.2</ele>
        <time>2013-08-25T09:51:55Z</time>
      </trkpt>
      <trkpt lat="48.4825" lon="6.91082">
        <ele>395.72</ele>
        <time>2013-08-25T09:52:30Z</time>
      </trkpt>
      <trkpt lat="48.4825" lon="6.91082">
        <ele>395.72</ele>
        <time>2013-08-25T09:53:04Z</time>
      </trkpt>
      <trkpt lat="48.4825" lon="6.91082">
        <ele>395.72</ele>
        <time>2013-08-25T09:53:34Z</time>
      </trkpt>
      <trkpt lat="48.48244" lon="6.91082">
        <ele>395.72</ele>
        <time>2013-08-25T09:53:46Z</time>
      </trkpt>
      <trkpt lat="48.48213" lon="6.91076">
        <ele>393.32</ele>
        <time>2013-08-25T09:54:02Z</time>
      </trkpt>
      <trkpt lat="48.48203" lon="6.91072">
        <ele>392.84</ele>
        <time>2013-08-25T09:54:07Z</time>
      </trkpt>
      <trkpt lat="48.48199" lon="6.91071">
        <ele>392.36</ele>
        <time>2013-08-25T09:54:09Z</time>
      </trkpt>
      <trkpt lat="48.48179" lon="6.91072">
        <ele>390.91</ele>
        <time>2013-08-25T09:54:22Z</time>
      </trkpt>
      <trkpt lat="48.48173" lon="6.91081">
        <ele>392.36</ele>
        <time>2013-08-25T09:54:31Z</time>
      </trkpt>
      <trkpt lat="48.48161" lon="6.91095">
        <ele>394.76</ele>
        <time>2013-08-25T09:54:44Z</time>
      </trkpt>
      <trkpt lat="48.48151" lon="6.91112">
        <ele>396.2</ele>
        <time>2013-08-25T09:54:57Z</time>
      </trkpt>
      <trkpt lat="48.48152" lon="6.91113">
        <ele>396.2</ele>
        <time>2013-08-25T09:55:16Z</time>
      </trkpt>
      <trkpt lat="48.48149" lon="6.91117">
        <ele>396.2</ele>
        <time>2013-08-25T09:55:36Z</time>
      </trkpt>
      <trkpt lat="48.48135" lon="6.91148">
        <ele>398.6</ele>
        <time>2013-08-25T09:55:50Z</time>
      </trkpt>
      <trkpt lat="48.48129" lon="6.9117">
        <ele>400.05</ele>
        <time>2013-08-25T09:55:59Z</time>
      </trkpt>
      <trkpt lat="48.4812" lon="6.91181">
        <ele>400.05</ele>
        <time>2013-08-25T09:56:05Z</time>
      </trkpt>
      <trkpt lat="48.48118" lon="6.9119">
        <ele>401.01</ele>
        <time>2013-08-25T09:56:09Z</time>
      </trkpt>
      <trkpt lat="48.48114" lon="6.91216">
        <ele>402.93</ele>
        <time>2013-08-25T09:56:23Z</time>
      </trkpt>
      <trkpt lat="48.48108" lon="6.91246">
        <ele>403.41</ele>
        <time>2013-08-25T09:56:35Z</time>
      </trkpt>
      <trkpt lat="48.48105" lon="6.91267">
        <ele>403.89</ele>
        <time>2013-08-25T09:56:42Z</time>
      </trkpt>
      <trkpt lat="48.48109" lon="6.91288">
        <ele>404.37</ele>
        <time>2013-08-25T09:56:51Z</time>
      </trkpt>
      <trkpt lat="48.48113" lon="6.91298">
        <ele>403.89</ele>
        <time>2013-08-25T09:56:55Z</time>
      </trkpt>
      <trkpt lat="48.48138" lon="6.91301">
        <ele>405.81</ele>
        <time>2013-08-25T09:57:07Z</time>
      </trkpt>
      <trkpt lat="48.48144" lon="6.91302">
        <ele>406.29</ele>
        <time>2013-08-25T09:57:11Z</time>
      </trkpt>
      <trkpt lat="48.48159" lon="6.91315">
        <ele>407.26</ele>
        <time>2013-08-25T09:57:23Z</time>
      </trkpt>
      <trkpt lat="48.48159" lon="6.91315">
        <ele>407.26</ele>
        <time>2013-08-25T09:57:51Z</time>
      </trkpt>
      <trkpt lat="48.4816" lon="6.91317">
        <ele>406.77</ele>
        <time>2013-08-25T09:58:16Z</time>
      </trkpt>
      <trkpt lat="48.48168" lon="6.91329">
        <ele>406.77</ele>
        <time>2013-08-25T09:58:26Z</time>
      </trkpt>
      <trkpt lat="48.4817" lon="6.91333">
        <ele>406.77</ele>
        <time>2013-08-25T09:58:36Z</time>
      </trkpt>
      <trkpt lat="48.4818" lon="6.91341">
        <ele>407.26</ele>
        <time>2013-08-25T09:58:47Z</time>
      </trkpt>
      <trkpt lat="48.48184" lon="6.91343">
        <ele>407.26</ele>
        <time>2013-08-25T09:59:05Z</time>
      </trkpt>
      <trkpt lat="48.48189" lon="6.91352">
        <ele>407.26</ele>
        <time>2013-08-25T09:59:12Z</time>
      </trkpt>
      <trkpt lat="48.48206" lon="6.91366">
        <ele>407.26</ele>
        <time>2013-08-25T09:59:27Z</time>
      </trkpt>
      <trkpt lat="48.48209" lon="6.91365">
        <ele>407.26</ele>
        <time>2013-08-25T09:59:29Z</time>
      </trkpt>
      <trkpt lat="48.48239" lon="6.91361">
        <ele>408.7</ele>
        <time>2013-08-25T09:59:45Z</time>
      </trkpt>
      <trkpt lat="48.48243" lon="6.91358">
        <ele>408.7</ele>
        <time>2013-08-25T09:59:48Z</time>
      </trkpt>
      <trkpt lat="48.48249" lon="6.91358">
        <ele>409.18</ele>
        <time>2013-08-25T09:59:52Z</time>
      </trkpt>
      <trkpt lat="48.48253" lon="6.91358">
        <ele>409.18</ele>
        <time>2013-08-25T09:59:54Z</time>
      </trkpt>
      <trkpt lat="48.4826" lon="6.91358">
        <ele>410.14</ele>
        <time>2013-08-25T10:00:00Z</time>
      </trkpt>
      <trkpt lat="48.48269" lon="6.91364">
        <ele>410.14</ele>
        <time>2013-08-25T10:00:07Z</time>
      </trkpt>
      <trkpt lat="48.48273" lon="6.91365">
        <ele>409.66</ele>
        <time>2013-08-25T10:00:10Z</time>
      </trkpt>
      <trkpt lat="48.4829" lon="6.91377">
        <ele>410.14</ele>
        <time>2013-08-25T10:00:24Z</time>
      </trkpt>
      <trkpt lat="48.48316" lon="6.91387">
        <ele>411.58</ele>
        <time>2013-08-25T10:00:39Z</time>
      </trkpt>
      <trkpt lat="48.48344" lon="6.91382">
        <ele>413.98</ele>
        <time>2013-08-25T10:00:52Z</time>
      </trkpt>
      <trkpt lat="48.48371" lon="6.9139">
        <ele>414.47</ele>
        <time>2013-08-25T10:01:07Z</time>
      </trkpt>
      <trkpt lat="48.48375" lon="6.91394">
        <ele>414.47</ele>
        <time>2013-08-25T10:01:12Z</time>
      </trkpt>
      <trkpt lat="48.48386" lon="6.91396">
        <ele>414.95</ele>
        <time>2013-08-25T10:01:19Z</time>
      </trkpt>
      <trkpt lat="48.48391" lon="6.91438">
        <ele>414.47</ele>
        <time>2013-08-25T10:01:34Z</time>
      </trkpt>
      <trkpt lat="48.48388" lon="6.91449">
        <ele>412.54</ele>
        <time>2013-08-25T10:01:39Z</time>
      </trkpt>
      <trkpt lat="48.48382" lon="6.9146">
        <ele>411.1</ele>
        <time>2013-08-25T10:01:43Z</time>
      </trkpt>
      <trkpt lat="48.48378" lon="6.91471">
        <ele>410.14</ele>
        <time>2013-08-25T10:01:49Z</time>
      </trkpt>
      <trkpt lat="48.48374" lon="6.91486">
        <ele>408.22</ele>
        <time>2013-08-25T10:01:54Z</time>
      </trkpt>
      <trkpt lat="48.48377" lon="6.91494">
        <ele>406.29</ele>
        <time>2013-08-25T10:02:01Z</time>
      </trkpt>
      <trkpt lat="48.48385" lon="6.91525">
        <ele>404.85</ele>
        <time>2013-08-25T10:02:11Z</time>
      </trkpt>
      <trkpt lat="48.48384" lon="6.91535">
        <ele>404.37</ele>
        <time>2013-08-25T10:02:15Z</time>
      </trkpt>
      <trkpt lat="48.48376" lon="6.91537">
        <ele>403.89</ele>
        <time>2013-08-25T10:02:32Z</time>
      </trkpt>
      <trkpt lat="48.48375" lon="6.91537">
        <ele>403.89</ele>
        <time>2013-08-25T10:02:58Z</time>
      </trkpt>
      <trkpt lat="48.48375" lon="6.91537">
        <ele>403.41</ele>
        <time>2013-08-25T10:03:23Z</time>
      </trkpt>
      <trkpt lat="48.48364" lon="6.91539">
        <ele>403.41</ele>
        <time>2013-08-25T10:03:29Z</time>
      </trkpt>
      <trkpt lat="48.4834" lon="6.91548">
        <ele>402.93</ele>
        <time>2013-08-25T10:03:40Z</time>
      </trkpt>
      <trkpt lat="48.48322" lon="6.91552">
        <ele>402.93</ele>
        <time>2013-08-25T10:03:53Z</time>
      </trkpt>
      <trkpt lat="48.4832" lon="6.91551">
        <ele>403.41</ele>
        <time>2013-08-25T10:04:07Z</time>
      </trkpt>
      <trkpt lat="48.48313" lon="6.91566">
        <ele>405.33</ele>
        <time>2013-08-25T10:04:14Z</time>
      </trkpt>
      <trkpt lat="48.48305" lon="6.9158">
        <ele>406.29</ele>
        <time>2013-08-25T10:04:27Z</time>
      </trkpt>
      <trkpt lat="48.48304" lon="6.91581">
        <ele>406.77</ele>
        <time>2013-08-25T10:04:28Z</time>
      </trkpt>
      <trkpt lat="48.48306" lon="6.91595">
        <ele>408.22</ele>
        <time>2013-08-25T10:04:37Z</time>
      </trkpt>
      <trkpt lat="48.48308" lon="6.91604">
        <ele>409.18</ele>
        <time>2013-08-25T10:04:41Z</time>
      </trkpt>
      <trkpt lat="48.48309" lon="6.91611">
        <ele>409.66</ele>
        <time>2013-08-25T10:04:45Z</time>
      </trkpt>
      <trkpt lat="48.4831" lon="6.91615">
        <ele>409.66</ele>
        <time>2013-08-25T10:04:47Z</time>
      </trkpt>
      <trkpt lat="48.48313" lon="6.9162">
        <ele>410.14</ele>
        <time>2013-08-25T10:04:50Z</time>
      </trkpt>
      <trkpt lat="48.48317" lon="6.91634">
        <ele>411.1</ele>
        <time>2013-08-25T10:04:57Z</time>
      </trkpt>
      <trkpt lat="48.48318" lon="6.91637">
        <ele>411.1</ele>
        <time>2013-08-25T10:04:58Z</time>
      </trkpt>
      <trkpt lat="48.48318" lon="6.91658">
        <ele>411.58</ele>
        <time>2013-08-25T10:05:08Z</time>
      </trkpt>
      <trkpt lat="48.48325" lon="6.91669">
        <ele>412.06</ele>
        <time>2013-08-25T10:05:22Z</time>
      </trkpt>
      <trkpt lat="48.48325" lon="6.91674">
        <ele>412.54</ele>
        <time>2013-08-25T10:05:29Z</time>
      </trkpt>
      <trkpt lat="48.48331" lon="6.91687">
        <ele>413.02</ele>
        <time>2013-08-25T10:05:39Z</time>
      </trkpt>
      <trkpt lat="48.48335" lon="6.91695">
        <ele>413.02</ele>
        <time>2013-08-25T10:05:43Z</time>
      </trkpt>
      <trkpt lat="48.48342" lon="6.91702">
        <ele>413.5</ele>
        <time>2013-08-25T10:05:48Z</time>
      </trkpt>
      <trkpt lat="48.48349" lon="6.91717">
        <ele>414.47</ele>
        <time>2013-08-25T10:05:54Z</time>
      </trkpt>
      <trkpt lat="48.48354" lon="6.91723">
        <ele>414.47</ele>
        <time>2013-08-25T10:05:57Z</time>
      </trkpt>
      <trkpt lat="48.48358" lon="6.91726">
        <ele>415.43</ele>
        <time>2013-08-25T10:06:00Z</time>
      </trkpt>
      <trkpt lat="48.48371" lon="6.9174">
        <ele>415.43</ele>
        <time>2013-08-25T10:06:08Z</time>
      </trkpt>
      <trkpt lat="48.48379" lon="6.91751">
        <ele>415.43</ele>
        <time>2013-08-25T10:06:13Z</time>
      </trkpt>
      <trkpt lat="48.48362" lon="6.91761">
        <ele>414.47</ele>
        <time>2013-08-25T10:06:23Z</time>
      </trkpt>
      <trkpt lat="48.48356" lon="6.91764">
        <ele>413.5</ele>
        <time>2013-08-25T10:06:36Z</time>
      </trkpt>
      <trkpt lat="48.48355" lon="6.91764">
        <ele>413.5</ele>
        <time>2013-08-25T10:06:52Z</time>
      </trkpt>
      <trkpt lat="48.48355" lon="6.91764">
        <ele>413.5</ele>
        <time>2013-08-25T10:07:18Z</time>
      </trkpt>
      <trkpt lat="48.48354" lon="6.91764">
        <ele>413.5</ele>
        <time>2013-08-25T10:07:21Z</time>
      </trkpt>
      <trkpt lat="48.48344" lon="6.91772">
        <ele>411.1</ele>
        <time>2013-08-25T10:07:27Z</time>
      </trkpt>
      <trkpt lat="48.48342" lon="6.91776">
        <ele>410.62</ele>
        <time>2013-08-25T10:07:29Z</time>
      </trkpt>
      <trkpt lat="48.4834" lon="6.91781">
        <ele>408.7</ele>
        <time>2013-08-25T10:07:32Z</time>
      </trkpt>
      <trkpt lat="48.4834" lon="6.91783">
        <ele>408.22</ele>
        <time>2013-08-25T10:07:33Z</time>
      </trkpt>
      <trkpt lat="48.48336" lon="6.91794">
        <ele>405.33</ele>
        <time>2013-08-25T10:07:39Z</time>
      </trkpt>
      <trkpt lat="48.48335" lon="6.91795">
        <ele>405.33</ele>
        <time>2013-08-25T10:07:40Z</time>
      </trkpt>
      <trkpt lat="48.4833" lon="6.91801">
        <ele>402.93</ele>
        <time>2013-08-25T10:07:45Z</time>
      </trkpt>
      <trkpt lat="48.4833" lon="6.91801">
        <ele>403.41</ele>
        <time>2013-08-25T10:07:50Z</time>
      </trkpt>
      <trkpt lat="48.48322" lon="6.91812">
        <ele>401.49</ele>
        <time>2013-08-25T10:07:56Z</time>
      </trkpt>
      <trkpt lat="48.4832" lon="6.91821">
        <ele>398.12</ele>
        <time>2013-08-25T10:08:02Z</time>
      </trkpt>
      <trkpt lat="48.4832" lon="6.91821">
        <ele>398.12</ele>
        <time>2013-08-25T10:08:03Z</time>
      </trkpt>
      <trkpt lat="48.48321" lon="6.9182">
        <ele>400.05</ele>
        <time>2013-08-25T10:08:20Z</time>
      </trkpt>
      <trkpt lat="48.48317" lon="6.91829">
        <ele>395.24</ele>
        <time>2013-08-25T10:08:28Z</time>
      </trkpt>
      <trkpt lat="48.48317" lon="6.91833">
        <ele>395.24</ele>
        <time>2013-08-25T10:08:29Z</time>
      </trkpt>
      <trkpt lat="48.48314" lon="6.91849">
        <ele>392.84</ele>
        <time>2013-08-25T10:08:34Z</time>
      </trkpt>
      <trkpt lat="48.48311" lon="6.91857">
        <ele>391.39</ele>
        <time>2013-08-25T10:08:47Z</time>
      </trkpt>
      <trkpt lat="48.48312" lon="6.91857">
        <ele>391.39</ele>
        <time>2013-08-25T10:09:13Z</time>
      </trkpt>
      <trkpt lat="48.48311" lon="6.91857">
        <ele>391.39</ele>
        <time>2013-08-25T10:09:36Z</time>
      </trkpt>
      <trkpt lat="48.48317" lon="6.9187">
        <ele>391.39</ele>
        <time>2013-08-25T10:09:56Z</time>
      </trkpt>
      <trkpt lat="48.48317" lon="6.9187">
        <ele>392.84</ele>
        <time>2013-08-25T10:10:03Z</time>
      </trkpt>
      <trkpt lat="48.48317" lon="6.9187">
        <ele>391.87</ele>
        <time>2013-08-25T10:10:06Z</time>
      </trkpt>
      <trkpt lat="48.48312" lon="6.91887">
        <ele>390.91</ele>
        <time>2013-08-25T10:10:18Z</time>
      </trkpt>
      <trkpt lat="48.48318" lon="6.91892">
        <ele>390.91</ele>
        <time>2013-08-25T10:10:22Z</time>
      </trkpt>
      <trkpt lat="48.48321" lon="6.91893">
        <ele>390.91</ele>
        <time>2013-08-25T10:10:24Z</time>
      </trkpt>
      <trkpt lat="48.48328" lon="6.91908">
        <ele>390.91</ele>
        <time>2013-08-25T10:10:31Z</time>
      </trkpt>
      <trkpt lat="48.48332" lon="6.91914">
        <ele>392.36</ele>
        <time>2013-08-25T10:10:34Z</time>
      </trkpt>
      <trkpt lat="48.48351" lon="6.9194">
        <ele>394.28</ele>
        <time>2013-08-25T10:10:47Z</time>
      </trkpt>
      <trkpt lat="48.48352" lon="6.91942">
        <ele>394.28</ele>
        <time>2013-08-25T10:10:48Z</time>
      </trkpt>
      <trkpt lat="48.48353" lon="6.91943">
        <ele>394.28</ele>
        <time>2013-08-25T10:10:49Z</time>
      </trkpt>
      <trkpt lat="48.4836" lon="6.91951">
        <ele>394.28</ele>
        <time>2013-08-25T10:10:53Z</time>
      </trkpt>
      <trkpt lat="48.48376" lon="6.91975">
        <ele>394.76</ele>
        <time>2013-08-25T10:11:07Z</time>
      </trkpt>
      <trkpt lat="48.48386" lon="6.91986">
        <ele>395.24</ele>
        <time>2013-08-25T10:11:14Z</time>
      </trkpt>
      <trkpt lat="48.48391" lon="6.91994">
        <ele>395.72</ele>
        <time>2013-08-25T10:11:18Z</time>
      </trkpt>
      <trkpt lat="48.48401" lon="6.92011">
        <ele>397.16</ele>
        <time>2013-08-25T10:11:25Z</time>
      </trkpt>
      <trkpt lat="48.48411" lon="6.92027">
        <ele>397.64</ele>
        <time>2013-08-25T10:11:33Z</time>
      </trkpt>
      <trkpt lat="48.48416" lon="6.92039">
        <ele>398.12</ele>
        <time>2013-08-25T10:11:41Z</time>
      </trkpt>
      <trkpt lat="48.48419" lon="6.92043">
        <ele>398.12</ele>
        <time>2013-08-25T10:11:43Z</time>
      </trkpt>
      <trkpt lat="48.48425" lon="6.92049">
        <ele>398.6</ele>
        <time>2013-08-25T10:11:47Z</time>
      </trkpt>
      <trkpt lat="48.48433" lon="6.92055">
        <ele>399.08</ele>
        <time>2013-08-25T10:11:51Z</time>
      </trkpt>
      <trkpt lat="48.48452" lon="6.92078">
        <ele>401.97</ele>
        <time>2013-08-25T10:12:03Z</time>
      </trkpt>
      <trkpt lat="48.48454" lon="6.92088">
        <ele>400.53</ele>
        <time>2013-08-25T10:12:07Z</time>
      </trkpt>
      <trkpt lat="48.48458" lon="6.92097">
        <ele>400.53</ele>
        <time>2013-08-25T10:12:12Z</time>
      </trkpt>
      <trkpt lat="48.48478" lon="6.92128">
        <ele>403.41</ele>
        <time>2013-08-25T10:12:24Z</time>
      </trkpt>
      <trkpt lat="48.48481" lon="6.92137">
        <ele>403.89</ele>
        <time>2013-08-25T10:12:29Z</time>
      </trkpt>
      <trkpt lat="48.48488" lon="6.92164">
        <ele>404.37</ele>
        <time>2013-08-25T10:12:41Z</time>
      </trkpt>
      <trkpt lat="48.48496" lon="6.92179">
        <ele>404.85</ele>
        <time>2013-08-25T10:12:50Z</time>
      </trkpt>
      <trkpt lat="48.48511" lon="6.92188">
        <ele>405.81</ele>
        <time>2013-08-25T10:13:03Z</time>
      </trkpt>
      <trkpt lat="48.48525" lon="6.92186">
        <ele>407.26</ele>
        <time>2013-08-25T10:13:13Z</time>
      </trkpt>
      <trkpt lat="48.48547" lon="6.92186">
        <ele>408.22</ele>
        <time>2013-08-25T10:13:28Z</time>
      </trkpt>
      <trkpt lat="48.48553" lon="6.92192">
        <ele>408.22</ele>
        <time>2013-08-25T10:13:34Z</time>
      </trkpt>
      <trkpt lat="48.48539" lon="6.92205">
        <ele>408.22</ele>
        <time>2013-08-25T10:13:49Z</time>
      </trkpt>
      <trkpt lat="48.48537" lon="6.92208">
        <ele>408.22</ele>
        <time>2013-08-25T10:13:51Z</time>
      </trkpt>
      <trkpt lat="48.48534" lon="6.92209">
        <ele>408.22</ele>
        <time>2013-08-25T10:13:53Z</time>
      </trkpt>
      <trkpt lat="48.48525" lon="6.92226">
        <ele>412.06</ele>
        <time>2013-08-25T10:14:04Z</time>
      </trkpt>
      <trkpt lat="48.48524" lon="6.9223">
        <ele>410.62</ele>
        <time>2013-08-25T10:14:15Z</time>
      </trkpt>
      <trkpt lat="48.48524" lon="6.9223">
        <ele>409.18</ele>
        <time>2013-08-25T10:14:30Z</time>
      </trkpt>
      <trkpt lat="48.48524" lon="6.9223">
        <ele>410.62</ele>
        <time>2013-08-25T10:14:32Z</time>
      </trkpt>
      <trkpt lat="48.48524" lon="6.9223">
        <ele>411.58</ele>
        <time>2013-08-25T10:14:39Z</time>
      </trkpt>
      <trkpt lat="48.48524" lon="6.92232">
        <ele>411.58</ele>
        <time>2013-08-25T10:15:00Z</time>
      </trkpt>
      <trkpt lat="48.48524" lon="6.92232">
        <ele>411.58</ele>
        <time>2013-08-25T10:15:22Z</time>
      </trkpt>
      <trkpt lat="48.48523" lon="6.92239">
        <ele>410.14</ele>
        <time>2013-08-25T10:15:26Z</time>
      </trkpt>
      <trkpt lat="48.48524" lon="6.92255">
        <ele>411.58</ele>
        <time>2013-08-25T10:15:34Z</time>
      </trkpt>
      <trkpt lat="48.48523" lon="6.92267">
        <ele>412.06</ele>
        <time>2013-08-25T10:15:39Z</time>
      </trkpt>
      <trkpt lat="48.48528" lon="6.92286">
        <ele>413.02</ele>
        <time>2013-08-25T10:15:47Z</time>
      </trkpt>
      <trkpt lat="48.48528" lon="6.92299">
        <ele>413.5</ele>
        <time>2013-08-25T10:15:52Z</time>
      </trkpt>
      <trkpt lat="48.48529" lon="6.9231">
        <ele>413.5</ele>
        <time>2013-08-25T10:15:56Z</time>
      </trkpt>
      <trkpt lat="48.48532" lon="6.92347">
        <ele>413.02</ele>
        <time>2013-08-25T10:16:08Z</time>
      </trkpt>
      <trkpt lat="48.48531" lon="6.92354">
        <ele>413.02</ele>
        <time>2013-08-25T10:16:11Z</time>
      </trkpt>
      <trkpt lat="48.48526" lon="6.92381">
        <ele>412.54</ele>
        <time>2013-08-25T10:16:21Z</time>
      </trkpt>
      <trkpt lat="48.48526" lon="6.92384">
        <ele>412.54</ele>
        <time>2013-08-25T10:16:22Z</time>
      </trkpt>
      <trkpt lat="48.48524" lon="6.92395">
        <ele>412.54</ele>
        <time>2013-08-25T10:16:27Z</time>
      </trkpt>
      <trkpt lat="48.48517" lon="6.92409">
        <ele>413.98</ele>
        <time>2013-08-25T10:16:33Z</time>
      </trkpt>
      <trkpt lat="48.48517" lon="6.92414">
        <ele>414.95</ele>
        <time>2013-08-25T10:16:44Z</time>
      </trkpt>
      <trkpt lat="48.48517" lon="6.92414">
        <ele>414.95</ele>
        <time>2013-08-25T10:17:14Z</time>
      </trkpt>
      <trkpt lat="48.48517" lon="6.92414">
        <ele>414.95</ele>
        <time>2013-08-25T10:17:40Z</time>
      </trkpt>
      <trkpt lat="48.48513" lon="6.92411">
        <ele>414.95</ele>
        <time>2013-08-25T10:17:44Z</time>
      </trkpt>
      <trkpt lat="48.48487" lon="6.92398">
        <ele>416.39</ele>
        <time>2013-08-25T10:17:57Z</time>
      </trkpt>
      <trkpt lat="48.48477" lon="6.92383">
        <ele>418.79</ele>
        <time>2013-08-25T10:18:07Z</time>
      </trkpt>
      <trkpt lat="48.48474" lon="6.92381">
        <ele>419.27</ele>
        <time>2013-08-25T10:18:24Z</time>
      </trkpt>
      <trkpt lat="48.48465" lon="6.92362">
        <ele>421.68</ele>
        <time>2013-08-25T10:18:39Z</time>
      </trkpt>
      <trkpt lat="48.48453" lon="6.92354">
        <ele>424.08</ele>
        <time>2013-08-25T10:18:55Z</time>
      </trkpt>
      <trkpt lat="48.4845" lon="6.92351">
        <ele>425.04</ele>
        <time>2013-08-25T10:19:07Z</time>
      </trkpt>
      <trkpt lat="48.48436" lon="6.92347">
        <ele>427.92</ele>
        <time>2013-08-25T10:19:23Z</time>
      </trkpt>
      <trkpt lat="48.48431" lon="6.92342">
        <ele>430.81</ele>
        <time>2013-08-25T10:19:38Z</time>
      </trkpt>
      <trkpt lat="48.48421" lon="6.92342">
        <ele>432.25</ele>
        <time>2013-08-25T10:19:55Z</time>
      </trkpt>
      <trkpt lat="48.48421" lon="6.92342">
        <ele>432.73</ele>
        <time>2013-08-25T10:20:20Z</time>
      </trkpt>
      <trkpt lat="48.48419" lon="6.92341">
        <ele>432.73</ele>
        <time>2013-08-25T10:20:43Z</time>
      </trkpt>
      <trkpt lat="48.48418" lon="6.92339">
        <ele>432.73</ele>
        <time>2013-08-25T10:21:06Z</time>
      </trkpt>
      <trkpt lat="48.48413" lon="6.92338">
        <ele>434.17</ele>
        <time>2013-08-25T10:21:22Z</time>
      </trkpt>
      <trkpt lat="48.48412" lon="6.92339">
        <ele>433.69</ele>
        <time>2013-08-25T10:21:43Z</time>
      </trkpt>
      <trkpt lat="48.4841" lon="6.92338">
        <ele>434.65</ele>
        <time>2013-08-25T10:22:00Z</time>
      </trkpt>
      <trkpt lat="48.48399" lon="6.92341">
        <ele>437.06</ele>
        <time>2013-08-25T10:22:09Z</time>
      </trkpt>
      <trkpt lat="48.48387" lon="6.92343">
        <ele>437.54</ele>
        <time>2013-08-25T10:22:22Z</time>
      </trkpt>
      <trkpt lat="48.48376" lon="6.92343">
        <ele>438.02</ele>
        <time>2013-08-25T10:22:33Z</time>
      </trkpt>
      <trkpt lat="48.48363" lon="6.92356">
        <ele>439.94</ele>
        <time>2013-08-25T10:22:48Z</time>
      </trkpt>
      <trkpt lat="48.48359" lon="6.92358">
        <ele>441.86</ele>
        <time>2013-08-25T10:23:03Z</time>
      </trkpt>
      <trkpt lat="48.48348" lon="6.92366">
        <ele>445.23</ele>
        <time>2013-08-25T10:23:18Z</time>
      </trkpt>
      <trkpt lat="48.48339" lon="6.92373">
        <ele>446.67</ele>
        <time>2013-08-25T10:23:33Z</time>
      </trkpt>
      <trkpt lat="48.48337" lon="6.92377">
        <ele>448.11</ele>
        <time>2013-08-25T10:23:46Z</time>
      </trkpt>
      <trkpt lat="48.48325" lon="6.92393">
        <ele>449.55</ele>
        <time>2013-08-25T10:24:00Z</time>
      </trkpt>
      <trkpt lat="48.48323" lon="6.92394">
        <ele>451.48</ele>
        <time>2013-08-25T10:24:10Z</time>
      </trkpt>
      <trkpt lat="48.48323" lon="6.92394">
        <ele>450.52</ele>
        <time>2013-08-25T10:24:12Z</time>
      </trkpt>
      <trkpt lat="48.48322" lon="6.92395">
        <ele>450.03</ele>
        <time>2013-08-25T10:24:36Z</time>
      </trkpt>
      <trkpt lat="48.48323" lon="6.92394">
        <ele>450.03</ele>
        <time>2013-08-25T10:25:07Z</time>
      </trkpt>
      <trkpt lat="48.48323" lon="6.92395">
        <ele>450.03</ele>
        <time>2013-08-25T10:25:29Z</time>
      </trkpt>
      <trkpt lat="48.48323" lon="6.92395">
        <ele>450.03</ele>
        <time>2013-08-25T10:25:55Z</time>
      </trkpt>
      <trkpt lat="48.48324" lon="6.92395">
        <ele>450.52</ele>
        <time>2013-08-25T10:26:14Z</time>
      </trkpt>
      <trkpt lat="48.48322" lon="6.92396">
        <ele>450.52</ele>
        <time>2013-08-25T10:26:38Z</time>
      </trkpt>
      <trkpt lat="48.48321" lon="6.92397">
        <ele>450.52</ele>
        <time>2013-08-25T10:26:41Z</time>
      </trkpt>
      <trkpt lat="48.483" lon="6.92423">
        <ele>452.44</ele>
        <time>2013-08-25T10:26:52Z</time>
      </trkpt>
      <trkpt lat="48.48285" lon="6.92441">
        <ele>454.84</ele>
        <time>2013-08-25T10:27:04Z</time>
      </trkpt>
      <trkpt lat="48.4828" lon="6.92445">
        <ele>455.32</ele>
        <time>2013-08-25T10:27:07Z</time>
      </trkpt>
      <trkpt lat="48.48276" lon="6.92448">
        <ele>455.32</ele>
        <time>2013-08-25T10:27:09Z</time>
      </trkpt>
      <trkpt lat="48.48268" lon="6.92466">
        <ele>456.28</ele>
        <time>2013-08-25T10:27:20Z</time>
      </trkpt>
      <trkpt lat="48.48268" lon="6.92478">
        <ele>456.76</ele>
        <time>2013-08-25T10:27:28Z</time>
      </trkpt>
      <trkpt lat="48.48269" lon="6.92481">
        <ele>456.76</ele>
        <time>2013-08-25T10:27:30Z</time>
      </trkpt>
      <trkpt lat="48.48274" lon="6.92486">
        <ele>457.24</ele>
        <time>2013-08-25T10:27:34Z</time>
      </trkpt>
      <trkpt lat="48.48279" lon="6.92495">
        <ele>457.24</ele>
        <time>2013-08-25T10:27:38Z</time>
      </trkpt>
      <trkpt lat="48.48288" lon="6.92532">
        <ele>457.72</ele>
        <time>2013-08-25T10:27:51Z</time>
      </trkpt>
      <trkpt lat="48.48304" lon="6.92574">
        <ele>458.21</ele>
        <time>2013-08-25T10:28:04Z</time>
      </trkpt>
      <trkpt lat="48.48319" lon="6.92621">
        <ele>458.69</ele>
        <time>2013-08-25T10:28:16Z</time>
      </trkpt>
      <trkpt lat="48.48332" lon="6.92645">
        <ele>458.69</ele>
        <time>2013-08-25T10:28:29Z</time>
      </trkpt>
      <trkpt lat="48.48335" lon="6.92649">
        <ele>458.69</ele>
        <time>2013-08-25T10:28:32Z</time>
      </trkpt>
      <trkpt lat="48.48338" lon="6.92656">
        <ele>458.69</ele>
        <time>2013-08-25T10:28:36Z</time>
      </trkpt>
      <trkpt lat="48.48347" lon="6.92665">
        <ele>458.69</ele>
        <time>2013-08-25T10:28:41Z</time>
      </trkpt>
      <trkpt lat="48.48361" lon="6.9269">
        <ele>460.13</ele>
        <time>2013-08-25T10:28:52Z</time>
      </trkpt>
      <trkpt lat="48.48369" lon="6.92726">
        <ele>460.61</ele>
        <time>2013-08-25T10:29:02Z</time>
      </trkpt>
      <trkpt lat="48.48374" lon="6.92736">
        <ele>461.09</ele>
        <time>2013-08-25T10:29:05Z</time>
      </trkpt>
      <trkpt lat="48.48391" lon="6.92775">
        <ele>462.53</ele>
        <time>2013-08-25T10:29:19Z</time>
      </trkpt>
      <trkpt lat="48.48396" lon="6.92785">
        <ele>463.01</ele>
        <time>2013-08-25T10:29:23Z</time>
      </trkpt>
      <trkpt lat="48.48399" lon="6.92795">
        <ele>463.49</ele>
        <time>2013-08-25T10:29:27Z</time>
      </trkpt>
      <trkpt lat="48.48404" lon="6.92814">
        <ele>463.97</ele>
        <time>2013-08-25T10:29:33Z</time>
      </trkpt>
      <trkpt lat="48.48399" lon="6.92843">
        <ele>463.97</ele>
        <time>2013-08-25T10:29:42Z</time>
      </trkpt>
      <trkpt lat="48.48396" lon="6.92851">
        <ele>464.45</ele>
        <time>2013-08-25T10:29:44Z</time>
      </trkpt>
      <trkpt lat="48.48395" lon="6.92856">
        <ele>464.45</ele>
        <time>2013-08-25T10:29:45Z</time>
      </trkpt>
      <trkpt lat="48.48397" lon="6.92883">
        <ele>465.9</ele>
        <time>2013-08-25T10:29:56Z</time>
      </trkpt>
      <trkpt lat="48.48407" lon="6.92902">
        <ele>467.34</ele>
        <time>2013-08-25T10:30:09Z</time>
      </trkpt>
      <trkpt lat="48.48412" lon="6.92906">
        <ele>469.74</ele>
        <time>2013-08-25T10:30:13Z</time>
      </trkpt>
      <trkpt lat="48.48415" lon="6.92909">
        <ele>468.3</ele>
        <time>2013-08-25T10:30:15Z</time>
      </trkpt>
      <trkpt lat="48.4842" lon="6.92925">
        <ele>468.3</ele>
        <time>2013-08-25T10:30:21Z</time>
      </trkpt>
      <trkpt lat="48.48416" lon="6.92945">
        <ele>468.3</ele>
        <time>2013-08-25T10:30:29Z</time>
      </trkpt>
      <trkpt lat="48.48411" lon="6.92977">
        <ele>469.74</ele>
        <time>2013-08-25T10:30:42Z</time>
      </trkpt>
      <trkpt lat="48.484" lon="6.93002">
        <ele>469.74</ele>
        <time>2013-08-25T10:30:50Z</time>
      </trkpt>
      <trkpt lat="48.48392" lon="6.93022">
        <ele>470.22</ele>
        <time>2013-08-25T10:30:59Z</time>
      </trkpt>
      <trkpt lat="48.48386" lon="6.93027">
        <ele>470.7</ele>
        <time>2013-08-25T10:31:03Z</time>
      </trkpt>
      <trkpt lat="48.48355" lon="6.93049">
        <ele>472.14</ele>
        <time>2013-08-25T10:31:17Z</time>
      </trkpt>
      <trkpt lat="48.48324" lon="6.93067">
        <ele>474.07</ele>
        <time>2013-08-25T10:31:29Z</time>
      </trkpt>
      <trkpt lat="48.48303" lon="6.93081">
        <ele>475.99</ele>
        <time>2013-08-25T10:31:42Z</time>
      </trkpt>
      <trkpt lat="48.48284" lon="6.9309">
        <ele>477.91</ele>
        <time>2013-08-25T10:31:53Z</time>
      </trkpt>
      <trkpt lat="48.4827" lon="6.931">
        <ele>479.84</ele>
        <time>2013-08-25T10:32:06Z</time>
      </trkpt>
      <trkpt lat="48.48263" lon="6.93104">
        <ele>480.32</ele>
        <time>2013-08-25T10:32:20Z</time>
      </trkpt>
      <trkpt lat="48.48263" lon="6.93104">
        <ele>480.32</ele>
        <time>2013-08-25T10:32:46Z</time>
      </trkpt>
      <trkpt lat="48.48264" lon="6.93103">
        <ele>480.32</ele>
        <time>2013-08-25T10:33:13Z</time>
      </trkpt>
      <trkpt lat="48.48263" lon="6.93103">
        <ele>480.32</ele>
        <time>2013-08-25T10:33:32Z</time>
      </trkpt>
      <trkpt lat="48.48263" lon="6.93103">
        <ele>480.32</ele>
        <time>2013-08-25T10:33:55Z</time>
      </trkpt>
      <trkpt lat="48.48254" lon="6.93103">
        <ele>481.76</ele>
        <time>2013-08-25T10:34:15Z</time>
      </trkpt>
      <trkpt lat="48.4823" lon="6.9311">
        <ele>481.76</ele>
        <time>2013-08-25T10:34:26Z</time>
      </trkpt>
      <trkpt lat="48.48208" lon="6.93111">
        <ele>481.76</ele>
        <time>2013-08-25T10:34:36Z</time>
      </trkpt>
      <trkpt lat="48.482" lon="6.93108">
        <ele>482.24</ele>
        <time>2013-08-25T10:34:40Z</time>
      </trkpt>
      <trkpt lat="48.48195" lon="6.93107">
        <ele>482.24</ele>
        <time>2013-08-25T10:34:42Z</time>
      </trkpt>
      <trkpt lat="48.48181" lon="6.93104">
        <ele>482.24</ele>
        <time>2013-08-25T10:34:49Z</time>
      </trkpt>
      <trkpt lat="48.48177" lon="6.93104">
        <ele>483.2</ele>
        <time>2013-08-25T10:34:51Z</time>
      </trkpt>
      <trkpt lat="48.48164" lon="6.93096">
        <ele>483.2</ele>
        <time>2013-08-25T10:34:57Z</time>
      </trkpt>
      <trkpt lat="48.48145" lon="6.93082">
        <ele>481.76</ele>
        <time>2013-08-25T10:35:06Z</time>
      </trkpt>
      <trkpt lat="48.48138" lon="6.93077">
        <ele>480.32</ele>
        <time>2013-08-25T10:35:09Z</time>
      </trkpt>
      <trkpt lat="48.48132" lon="6.93074">
        <ele>481.76</ele>
        <time>2013-08-25T10:35:12Z</time>
      </trkpt>
      <trkpt lat="48.4812" lon="6.93064">
        <ele>480.32</ele>
        <time>2013-08-25T10:35:19Z</time>
      </trkpt>
      <trkpt lat="48.48103" lon="6.93044">
        <ele>478.87</ele>
        <time>2013-08-25T10:35:30Z</time>
      </trkpt>
      <trkpt lat="48.48085" lon="6.93031">
        <ele>479.84</ele>
        <time>2013-08-25T10:35:38Z</time>
      </trkpt>
      <trkpt lat="48.48072" lon="6.93009">
        <ele>478.87</ele>
        <time>2013-08-25T10:35:45Z</time>
      </trkpt>
      <trkpt lat="48.48064" lon="6.92999">
        <ele>478.87</ele>
        <time>2013-08-25T10:35:50Z</time>
      </trkpt>
      <trkpt lat="48.48061" lon="6.92989">
        <ele>479.35</ele>
        <time>2013-08-25T10:35:54Z</time>
      </trkpt>
      <trkpt lat="48.48057" lon="6.92978">
        <ele>477.91</ele>
        <time>2013-08-25T10:36:00Z</time>
      </trkpt>
      <trkpt lat="48.48054" lon="6.9297">
        <ele>478.87</ele>
        <time>2013-08-25T10:36:12Z</time>
      </trkpt>
      <trkpt lat="48.48054" lon="6.9297">
        <ele>478.39</ele>
        <time>2013-08-25T10:36:35Z</time>
      </trkpt>
      <trkpt lat="48.48053" lon="6.92969">
        <ele>478.39</ele>
        <time>2013-08-25T10:37:02Z</time>
      </trkpt>
      <trkpt lat="48.48053" lon="6.92969">
        <ele>478.39</ele>
        <time>2013-08-25T10:37:18Z</time>
      </trkpt>
      <trkpt lat="48.48048" lon="6.92964">
        <ele>478.39</ele>
        <time>2013-08-25T10:37:22Z</time>
      </trkpt>
      <trkpt lat="48.48037" lon="6.92949">
        <ele>477.91</ele>
        <time>2013-08-25T10:37:28Z</time>
      </trkpt>
      <trkpt lat="48.48029" lon="6.92938">
        <ele>476.95</ele>
        <time>2013-08-25T10:37:32Z</time>
      </trkpt>
      <trkpt lat="48.48023" lon="6.9293">
        <ele>476.47</ele>
        <time>2013-08-25T10:37:34Z</time>
      </trkpt>
      <trkpt lat="48.48019" lon="6.92926">
        <ele>476.47</ele>
        <time>2013-08-25T10:37:35Z</time>
      </trkpt>
      <trkpt lat="48.48015" lon="6.92924">
        <ele>476.47</ele>
        <time>2013-08-25T10:37:36Z</time>
      </trkpt>
      <trkpt lat="48.48012" lon="6.92921">
        <ele>476.47</ele>
        <time>2013-08-25T10:37:37Z</time>
      </trkpt>
      <trkpt lat="48.48009" lon="6.92917">
        <ele>475.99</ele>
        <time>2013-08-25T10:37:38Z</time>
      </trkpt>
      <trkpt lat="48.47996" lon="6.92902">
        <ele>475.51</ele>
        <time>2013-08-25T10:37:42Z</time>
      </trkpt>
      <trkpt lat="48.47993" lon="6.92898">
        <ele>475.03</ele>
        <time>2013-08-25T10:37:43Z</time>
      </trkpt>
      <trkpt lat="48.4799" lon="6.92893">
        <ele>475.03</ele>
        <time>2013-08-25T10:37:44Z</time>
      </trkpt>
      <trkpt lat="48.47987" lon="6.92888">
        <ele>475.03</ele>
        <time>2013-08-25T10:37:45Z</time>
      </trkpt>
      <trkpt lat="48.47984" lon="6.92881">
        <ele>474.07</ele>
        <time>2013-08-25T10:37:46Z</time>
      </trkpt>
      <trkpt lat="48.47979" lon="6.92876">
        <ele>474.07</ele>
        <time>2013-08-25T10:37:47Z</time>
      </trkpt>
      <trkpt lat="48.47975" lon="6.92871">
        <ele>474.07</ele>
        <time>2013-08-25T10:37:48Z</time>
      </trkpt>
      <trkpt lat="48.47946" lon="6.92841">
        <ele>472.14</ele>
        <time>2013-08-25T10:37:55Z</time>
      </trkpt>
      <trkpt lat="48.47943" lon="6.92836">
        <ele>472.14</ele>
        <time>2013-08-25T10:37:56Z</time>
      </trkpt>
      <trkpt lat="48.47935" lon="6.92818">
        <ele>471.66</ele>
        <time>2013-08-25T10:37:59Z</time>
      </trkpt>
      <trkpt lat="48.47922" lon="6.928">
        <ele>470.7</ele>
        <time>2013-08-25T10:38:02Z</time>
      </trkpt>
      <trkpt lat="48.47911" lon="6.92791">
        <ele>469.74</ele>
        <time>2013-08-25T10:38:05Z</time>
      </trkpt>
      <trkpt lat="48.47906" lon="6.92787">
        <ele>469.74</ele>
        <time>2013-08-25T10:38:06Z</time>
      </trkpt>
      <trkpt lat="48.4787" lon="6.92757">
        <ele>467.82</ele>
        <time>2013-08-25T10:38:14Z</time>
      </trkpt>
      <trkpt lat="48.4784" lon="6.92733">
        <ele>467.82</ele>
        <time>2013-08-25T10:38:21Z</time>
      </trkpt>
      <trkpt lat="48.47809" lon="6.92712">
        <ele>469.26</ele>
        <time>2013-08-25T10:38:30Z</time>
      </trkpt>
      <trkpt lat="48.4778" lon="6.92694">
        <ele>469.26</ele>
        <time>2013-08-25T10:38:42Z</time>
      </trkpt>
      <trkpt lat="48.47757" lon="6.92674">
        <ele>469.74</ele>
        <time>2013-08-25T10:38:52Z</time>
      </trkpt>
      <trkpt lat="48.47747" lon="6.92663">
        <ele>469.74</ele>
        <time>2013-08-25T10:38:58Z</time>
      </trkpt>
      <trkpt lat="48.47744" lon="6.92662">
        <ele>469.74</ele>
        <time>2013-08-25T10:38:59Z</time>
      </trkpt>
      <trkpt lat="48.47742" lon="6.92661">
        <ele>469.74</ele>
        <time>2013-08-25T10:39:00Z</time>
      </trkpt>
      <trkpt lat="48.47737" lon="6.92659">
        <ele>469.74</ele>
        <time>2013-08-25T10:39:10Z</time>
      </trkpt>
      <trkpt lat="48.47737" lon="6.92659">
        <ele>469.74</ele>
        <time>2013-08-25T10:39:35Z</time>
      </trkpt>
      <trkpt lat="48.47736" lon="6.92659">
        <ele>469.74</ele>
        <time>2013-08-25T10:40:03Z</time>
      </trkpt>
      <trkpt lat="48.47737" lon="6.92659">
        <ele>469.74</ele>
        <time>2013-08-25T10:40:30Z</time>
      </trkpt>
      <trkpt lat="48.47737" lon="6.92659">
        <ele>469.74</ele>
        <time>2013-08-25T10:41:00Z</time>
      </trkpt>
      <trkpt lat="48.47736" lon="6.92659">
        <ele>469.74</ele>
        <time>2013-08-25T10:41:28Z</time>
      </trkpt>
      <trkpt lat="48.47736" lon="6.92659">
        <ele>469.74</ele>
        <time>2013-08-25T10:41:52Z</time>
      </trkpt>
      <trkpt lat="48.47736" lon="6.92659">
        <ele>469.74</ele>
        <time>2013-08-25T10:42:15Z</time>
      </trkpt>
      <trkpt lat="48.47736" lon="6.92659">
        <ele>469.74</ele>
        <time>2013-08-25T10:42:36Z</time>
      </trkpt>
      <trkpt lat="48.47735" lon="6.92657">
        <ele>469.74</ele>
        <time>2013-08-25T10:42:56Z</time>
      </trkpt>
      <trkpt lat="48.47735" lon="6.92656">
        <ele>469.74</ele>
        <time>2013-08-25T10:43:16Z</time>
      </trkpt>
      <trkpt lat="48.47735" lon="6.92656">
        <ele>469.74</ele>
        <time>2013-08-25T10:43:44Z</time>
      </trkpt>
      <trkpt lat="48.47733" lon="6.92656">
        <ele>469.74</ele>
        <time>2013-08-25T10:44:12Z</time>
      </trkpt>
      <trkpt lat="48.47733" lon="6.92655">
        <ele>469.74</ele>
        <time>2013-08-25T10:44:38Z</time>
      </trkpt>
      <trkpt lat="48.47732" lon="6.92656">
        <ele>469.74</ele>
        <time>2013-08-25T10:45:06Z</time>
      </trkpt>
      <trkpt lat="48.47732" lon="6.92655">
        <ele>469.74</ele>
        <time>2013-08-25T10:45:33Z</time>
      </trkpt>
      <trkpt lat="48.47732" lon="6.92655">
        <ele>469.74</ele>
        <time>2013-08-25T10:46:00Z</time>
      </trkpt>
      <trkpt lat="48.47732" lon="6.92653">
        <ele>469.74</ele>
        <time>2013-08-25T10:46:08Z</time>
      </trkpt>
      <trkpt lat="48.47733" lon="6.92654">
        <ele>469.74</ele>
        <time>2013-08-25T10:46:12Z</time>
      </trkpt>
      <trkpt lat="48.47734" lon="6.92655">
        <ele>469.74</ele>
        <time>2013-08-25T10:46:13Z</time>
      </trkpt>
      <trkpt lat="48.47735" lon="6.92656">
        <ele>469.74</ele>
        <time>2013-08-25T10:46:14Z</time>
      </trkpt>
      <trkpt lat="48.47738" lon="6.92658">
        <ele>469.74</ele>
        <time>2013-08-25T10:46:15Z</time>
      </trkpt>
      <trkpt lat="48.4774" lon="6.92659">
        <ele>469.74</ele>
        <time>2013-08-25T10:46:16Z</time>
      </trkpt>
      <trkpt lat="48.47743" lon="6.9266">
        <ele>469.74</ele>
        <time>2013-08-25T10:46:17Z</time>
      </trkpt>
      <trkpt lat="48.47751" lon="6.92663">
        <ele>471.66</ele>
        <time>2013-08-25T10:46:20Z</time>
      </trkpt>
      <trkpt lat="48.47754" lon="6.92664">
        <ele>470.22</ele>
        <time>2013-08-25T10:46:21Z</time>
      </trkpt>
      <trkpt lat="48.47756" lon="6.92666">
        <ele>470.22</ele>
        <time>2013-08-25T10:46:22Z</time>
      </trkpt>
      <trkpt lat="48.47759" lon="6.92668">
        <ele>470.22</ele>
        <time>2013-08-25T10:46:23Z</time>
      </trkpt>
      <trkpt lat="48.47785" lon="6.92686">
        <ele>468.78</ele>
        <time>2013-08-25T10:46:33Z</time>
      </trkpt>
      <trkpt lat="48.47787" lon="6.92687">
        <ele>468.78</ele>
        <time>2013-08-25T10:46:34Z</time>
      </trkpt>
      <trkpt lat="48.47811" lon="6.92708">
        <ele>468.78</ele>
        <time>2013-08-25T10:46:47Z</time>
      </trkpt>
      <trkpt lat="48.47825" lon="6.9272">
        <ele>468.3</ele>
        <time>2013-08-25T10:46:58Z</time>
      </trkpt>
      <trkpt lat="48.47835" lon="6.92728">
        <ele>468.3</ele>
        <time>2013-08-25T10:47:09Z</time>
      </trkpt>
      <trkpt lat="48.47837" lon="6.92729">
        <ele>468.3</ele>
        <time>2013-08-25T10:47:10Z</time>
      </trkpt>
      <trkpt lat="48.47859" lon="6.92744">
        <ele>468.3</ele>
        <time>2013-08-25T10:47:20Z</time>
      </trkpt>
      <trkpt lat="48.47861" lon="6.92746">
        <ele>468.3</ele>
        <time>2013-08-25T10:47:21Z</time>
      </trkpt>
      <trkpt lat="48.47863" lon="6.92748">
        <ele>468.3</ele>
        <time>2013-08-25T10:47:22Z</time>
      </trkpt>
      <trkpt lat="48.47864" lon="6.9275">
        <ele>468.3</ele>
        <time>2013-08-25T10:47:23Z</time>
      </trkpt>
      <trkpt lat="48.47866" lon="6.92752">
        <ele>469.74</ele>
        <time>2013-08-25T10:47:24Z</time>
      </trkpt>
      <trkpt lat="48.47868" lon="6.92754">
        <ele>469.74</ele>
        <time>2013-08-25T10:47:25Z</time>
      </trkpt>
      <trkpt lat="48.4787" lon="6.92756">
        <ele>469.74</ele>
        <time>2013-08-25T10:47:26Z</time>
      </trkpt>
      <trkpt lat="48.47872" lon="6.92758">
        <ele>469.74</ele>
        <time>2013-08-25T10:47:27Z</time>
      </trkpt>
      <trkpt lat="48.47874" lon="6.92759">
        <ele>469.74</ele>
        <time>2013-08-25T10:47:28Z</time>
      </trkpt>
      <trkpt lat="48.47876" lon="6.9276">
        <ele>469.74</ele>
        <time>2013-08-25T10:47:29Z</time>
      </trkpt>
      <trkpt lat="48.47884" lon="6.92765">
        <ele>470.22</ele>
        <time>2013-08-25T10:47:34Z</time>
      </trkpt>
      <trkpt lat="48.47886" lon="6.92767">
        <ele>470.22</ele>
        <time>2013-08-25T10:47:35Z</time>
      </trkpt>
      <trkpt lat="48.47888" lon="6.92769">
        <ele>470.22</ele>
        <time>2013-08-25T10:47:36Z</time>
      </trkpt>
      <trkpt lat="48.47891" lon="6.9277">
        <ele>470.22</ele>
        <time>2013-08-25T10:47:37Z</time>
      </trkpt>
      <trkpt lat="48.47893" lon="6.92771">
        <ele>470.7</ele>
        <time>2013-08-25T10:47:38Z</time>
      </trkpt>
      <trkpt lat="48.47895" lon="6.92772">
        <ele>470.22</ele>
        <time>2013-08-25T10:47:39Z</time>
      </trkpt>
      <trkpt lat="48.47897" lon="6.92773">
        <ele>470.7</ele>
        <time>2013-08-25T10:47:40Z</time>
      </trkpt>
      <trkpt lat="48.47899" lon="6.92774">
        <ele>470.7</ele>
        <time>2013-08-25T10:47:41Z</time>
      </trkpt>
      <trkpt lat="48.47901" lon="6.92775">
        <ele>471.18</ele>
        <time>2013-08-25T10:47:42Z</time>
      </trkpt>
      <trkpt lat="48.47904" lon="6.92777">
        <ele>471.18</ele>
        <time>2013-08-25T10:47:43Z</time>
      </trkpt>
      <trkpt lat="48.47907" lon="6.92779">
        <ele>471.18</ele>
        <time>2013-08-25T10:47:44Z</time>
      </trkpt>
      <trkpt lat="48.47916" lon="6.92791">
        <ele>471.66</ele>
        <time>2013-08-25T10:47:49Z</time>
      </trkpt>
      <trkpt lat="48.47941" lon="6.92829">
        <ele>473.11</ele>
        <time>2013-08-25T10:48:04Z</time>
      </trkpt>
      <trkpt lat="48.47963" lon="6.92852">
        <ele>474.07</ele>
        <time>2013-08-25T10:48:17Z</time>
      </trkpt>
      <trkpt lat="48.47982" lon="6.92875">
        <ele>474.55</ele>
        <time>2013-08-25T10:48:27Z</time>
      </trkpt>
      <trkpt lat="48.47996" lon="6.92894">
        <ele>475.99</ele>
        <time>2013-08-25T10:48:37Z</time>
      </trkpt>
      <trkpt lat="48.48015" lon="6.92909">
        <ele>476.47</ele>
        <time>2013-08-25T10:48:47Z</time>
      </trkpt>
      <trkpt lat="48.48028" lon="6.92931">
        <ele>477.91</ele>
        <time>2013-08-25T10:48:56Z</time>
      </trkpt>
      <trkpt lat="48.4803" lon="6.92934">
        <ele>477.43</ele>
        <time>2013-08-25T10:49:06Z</time>
      </trkpt>
      <trkpt lat="48.48034" lon="6.9294">
        <ele>477.91</ele>
        <time>2013-08-25T10:49:10Z</time>
      </trkpt>
      <trkpt lat="48.48037" lon="6.92946">
        <ele>477.91</ele>
        <time>2013-08-25T10:49:13Z</time>
      </trkpt>
      <trkpt lat="48.48042" lon="6.92954">
        <ele>478.39</ele>
        <time>2013-08-25T10:49:17Z</time>
      </trkpt>
      <trkpt lat="48.48057" lon="6.92969">
        <ele>478.39</ele>
        <time>2013-08-25T10:49:29Z</time>
      </trkpt>
      <trkpt lat="48.48057" lon="6.92969">
        <ele>478.87</ele>
        <time>2013-08-25T10:49:34Z</time>
      </trkpt>
      <trkpt lat="48.48061" lon="6.9298">
        <ele>478.87</ele>
        <time>2013-08-25T10:49:39Z</time>
      </trkpt>
      <trkpt lat="48.48067" lon="6.92991">
        <ele>478.87</ele>
        <time>2013-08-25T10:49:44Z</time>
      </trkpt>
      <trkpt lat="48.48084" lon="6.9302">
        <ele>479.84</ele>
        <time>2013-08-25T10:49:56Z</time>
      </trkpt>
      <trkpt lat="48.48105" lon="6.93045">
        <ele>480.8</ele>
        <time>2013-08-25T10:50:08Z</time>
      </trkpt>
      <trkpt lat="48.48125" lon="6.93056">
        <ele>481.28</ele>
        <time>2013-08-25T10:50:19Z</time>
      </trkpt>
      <trkpt lat="48.48128" lon="6.93059">
        <ele>482.72</ele>
        <time>2013-08-25T10:50:22Z</time>
      </trkpt>
      <trkpt lat="48.48129" lon="6.93059">
        <ele>481.28</ele>
        <time>2013-08-25T10:50:24Z</time>
      </trkpt>
      <trkpt lat="48.48129" lon="6.93059">
        <ele>481.28</ele>
        <time>2013-08-25T10:50:36Z</time>
      </trkpt>
      <trkpt lat="48.48131" lon="6.93063">
        <ele>481.28</ele>
        <time>2013-08-25T10:50:38Z</time>
      </trkpt>
      <trkpt lat="48.48145" lon="6.93073">
        <ele>481.28</ele>
        <time>2013-08-25T10:50:45Z</time>
      </trkpt>
      <trkpt lat="48.48152" lon="6.93074">
        <ele>481.28</ele>
        <time>2013-08-25T10:50:48Z</time>
      </trkpt>
      <trkpt lat="48.48159" lon="6.9308">
        <ele>481.28</ele>
        <time>2013-08-25T10:50:52Z</time>
      </trkpt>
      <trkpt lat="48.48186" lon="6.93097">
        <ele>482.72</ele>
        <time>2013-08-25T10:51:02Z</time>
      </trkpt>
      <trkpt lat="48.48211" lon="6.931">
        <ele>482.24</ele>
        <time>2013-08-25T10:51:13Z</time>
      </trkpt>
      <trkpt lat="48.48223" lon="6.93099">
        <ele>481.28</ele>
        <time>2013-08-25T10:51:17Z</time>
      </trkpt>
      <trkpt lat="48.48258" lon="6.93098">
        <ele>480.8</ele>
        <time>2013-08-25T10:51:30Z</time>
      </trkpt>
      <trkpt lat="48.48263" lon="6.93102">
        <ele>480.8</ele>
        <time>2013-08-25T10:51:32Z</time>
      </trkpt>
      <trkpt lat="48.4827" lon="6.93111">
        <ele>482.24</ele>
        <time>2013-08-25T10:51:36Z</time>
      </trkpt>
      <trkpt lat="48.48277" lon="6.93119">
        <ele>482.72</ele>
        <time>2013-08-25T10:51:40Z</time>
      </trkpt>
      <trkpt lat="48.48279" lon="6.93125">
        <ele>482.72</ele>
        <time>2013-08-25T10:51:42Z</time>
      </trkpt>
      <trkpt lat="48.48287" lon="6.93146">
        <ele>482.72</ele>
        <time>2013-08-25T10:51:51Z</time>
      </trkpt>
      <trkpt lat="48.4829" lon="6.93154">
        <ele>482.72</ele>
        <time>2013-08-25T10:51:55Z</time>
      </trkpt>
      <trkpt lat="48.48299" lon="6.93171">
        <ele>486.08</ele>
        <time>2013-08-25T10:52:05Z</time>
      </trkpt>
      <trkpt lat="48.483" lon="6.93173">
        <ele>486.08</ele>
        <time>2013-08-25T10:52:06Z</time>
      </trkpt>
      <trkpt lat="48.483" lon="6.93175">
        <ele>486.08</ele>
        <time>2013-08-25T10:52:07Z</time>
      </trkpt>
      <trkpt lat="48.48311" lon="6.93199">
        <ele>487.05</ele>
        <time>2013-08-25T10:52:21Z</time>
      </trkpt>
      <trkpt lat="48.48313" lon="6.93202">
        <ele>488.01</ele>
        <time>2013-08-25T10:52:23Z</time>
      </trkpt>
      <trkpt lat="48.48317" lon="6.93207">
        <ele>488.01</ele>
        <time>2013-08-25T10:52:27Z</time>
      </trkpt>
      <trkpt lat="48.48325" lon="6.93218">
        <ele>488.01</ele>
        <time>2013-08-25T10:52:32Z</time>
      </trkpt>
      <trkpt lat="48.4834" lon="6.93259">
        <ele>487.53</ele>
        <time>2013-08-25T10:52:46Z</time>
      </trkpt>
      <trkpt lat="48.48347" lon="6.93275">
        <ele>486.08</ele>
        <time>2013-08-25T10:52:50Z</time>
      </trkpt>
      <trkpt lat="48.48371" lon="6.93319">
        <ele>483.2</ele>
        <time>2013-08-25T10:53:00Z</time>
      </trkpt>
      <trkpt lat="48.48399" lon="6.93337">
        <ele>480.32</ele>
        <time>2013-08-25T10:53:08Z</time>
      </trkpt>
      <trkpt lat="48.48412" lon="6.93349">
        <ele>477.43</ele>
        <time>2013-08-25T10:53:11Z</time>
      </trkpt>
      <trkpt lat="48.48421" lon="6.93362">
        <ele>476.95</ele>
        <time>2013-08-25T10:53:13Z</time>
      </trkpt>
      <trkpt lat="48.48428" lon="6.93375">
        <ele>476.95</ele>
        <time>2013-08-25T10:53:15Z</time>
      </trkpt>
      <trkpt lat="48.48442" lon="6.93414">
        <ele>476.95</ele>
        <time>2013-08-25T10:53:21Z</time>
      </trkpt>
      <trkpt lat="48.48467" lon="6.93469">
        <ele>476.47</ele>
        <time>2013-08-25T10:53:31Z</time>
      </trkpt>
      <trkpt lat="48.4847" lon="6.93476">
        <ele>476.47</ele>
        <time>2013-08-25T10:53:32Z</time>
      </trkpt>
      <trkpt lat="48.48481" lon="6.93509">
        <ele>474.55</ele>
        <time>2013-08-25T10:53:36Z</time>
      </trkpt>
      <trkpt lat="48.48483" lon="6.93528">
        <ele>474.07</ele>
        <time>2013-08-25T10:53:38Z</time>
      </trkpt>
      <trkpt lat="48.48482" lon="6.93547">
        <ele>473.59</ele>
        <time>2013-08-25T10:53:40Z</time>
      </trkpt>
      <trkpt lat="48.48482" lon="6.93563">
        <ele>473.59</ele>
        <time>2013-08-25T10:53:42Z</time>
      </trkpt>
      <trkpt lat="48.48481" lon="6.93569">
        <ele>473.59</ele>
        <time>2013-08-25T10:53:43Z</time>
      </trkpt>
      <trkpt lat="48.4848" lon="6.93574">
        <ele>473.59</ele>
        <time>2013-08-25T10:53:44Z</time>
      </trkpt>
      <trkpt lat="48.48478" lon="6.93587">
        <ele>474.07</ele>
        <time>2013-08-25T10:53:54Z</time>
      </trkpt>
      <trkpt lat="48.48479" lon="6.93588">
        <ele>475.03</ele>
        <time>2013-08-25T10:54:01Z</time>
      </trkpt>
      <trkpt lat="48.48479" lon="6.93588">
        <ele>475.03</ele>
        <time>2013-08-25T10:54:28Z</time>
      </trkpt>
      <trkpt lat="48.48478" lon="6.9359">
        <ele>475.03</ele>
        <time>2013-08-25T10:54:51Z</time>
      </trkpt>
      <trkpt lat="48.48477" lon="6.93589">
        <ele>475.03</ele>
        <time>2013-08-25T10:54:52Z</time>
      </trkpt>
      <trkpt lat="48.48475" lon="6.93589">
        <ele>475.03</ele>
        <time>2013-08-25T10:54:53Z</time>
      </trkpt>
      <trkpt lat="48.48474" lon="6.93589">
        <ele>475.03</ele>
        <time>2013-08-25T10:54:54Z</time>
      </trkpt>
      <trkpt lat="48.48465" lon="6.93592">
        <ele>474.07</ele>
        <time>2013-08-25T10:55:07Z</time>
      </trkpt>
      <trkpt lat="48.48464" lon="6.93596">
        <ele>475.03</ele>
        <time>2013-08-25T10:55:09Z</time>
      </trkpt>
      <trkpt lat="48.48469" lon="6.93604">
        <ele>475.51</ele>
        <time>2013-08-25T10:55:14Z</time>
      </trkpt>
      <trkpt lat="48.48467" lon="6.93607">
        <ele>475.51</ele>
        <time>2013-08-25T10:55:15Z</time>
      </trkpt>
      <trkpt lat="48.48464" lon="6.93609">
        <ele>475.51</ele>
        <time>2013-08-25T10:55:16Z</time>
      </trkpt>
      <trkpt lat="48.48463" lon="6.93611">
        <ele>475.99</ele>
        <time>2013-08-25T10:55:17Z</time>
      </trkpt>
      <trkpt lat="48.48461" lon="6.93613">
        <ele>475.99</ele>
        <time>2013-08-25T10:55:18Z</time>
      </trkpt>
      <trkpt lat="48.4846" lon="6.93614">
        <ele>476.47</ele>
        <time>2013-08-25T10:55:19Z</time>
      </trkpt>
      <trkpt lat="48.48451" lon="6.93625">
        <ele>477.43</ele>
        <time>2013-08-25T10:55:25Z</time>
      </trkpt>
      <trkpt lat="48.4845" lon="6.93627">
        <ele>477.43</ele>
        <time>2013-08-25T10:55:26Z</time>
      </trkpt>
      <trkpt lat="48.48448" lon="6.93629">
        <ele>477.91</ele>
        <time>2013-08-25T10:55:27Z</time>
      </trkpt>
      <trkpt lat="48.48447" lon="6.93631">
        <ele>477.91</ele>
        <time>2013-08-25T10:55:28Z</time>
      </trkpt>
      <trkpt lat="48.48446" lon="6.93634">
        <ele>478.87</ele>
        <time>2013-08-25T10:55:29Z</time>
      </trkpt>
      <trkpt lat="48.48444" lon="6.93637">
        <ele>478.39</ele>
        <time>2013-08-25T10:55:30Z</time>
      </trkpt>
      <trkpt lat="48.48443" lon="6.93639">
        <ele>478.87</ele>
        <time>2013-08-25T10:55:31Z</time>
      </trkpt>
      <trkpt lat="48.48429" lon="6.93658">
        <ele>480.32</ele>
        <time>2013-08-25T10:55:42Z</time>
      </trkpt>
      <trkpt lat="48.4841" lon="6.93679">
        <ele>480.8</ele>
        <time>2013-08-25T10:55:55Z</time>
      </trkpt>
      <trkpt lat="48.48398" lon="6.93691">
        <ele>479.35</ele>
        <time>2013-08-25T10:56:00Z</time>
      </trkpt>
      <trkpt lat="48.48369" lon="6.93724">
        <ele>478.39</ele>
        <time>2013-08-25T10:56:13Z</time>
      </trkpt>
      <trkpt lat="48.48351" lon="6.93755">
        <ele>482.24</ele>
        <time>2013-08-25T10:56:24Z</time>
      </trkpt>
      <trkpt lat="48.48352" lon="6.93757">
        <ele>482.24</ele>
        <time>2013-08-25T10:56:25Z</time>
      </trkpt>
      <trkpt lat="48.48352" lon="6.93763">
        <ele>482.24</ele>
        <time>2013-08-25T10:56:27Z</time>
      </trkpt>
      <trkpt lat="48.4835" lon="6.9377">
        <ele>482.72</ele>
        <time>2013-08-25T10:56:30Z</time>
      </trkpt>
      <trkpt lat="48.48342" lon="6.93797">
        <ele>484.16</ele>
        <time>2013-08-25T10:56:45Z</time>
      </trkpt>
      <trkpt lat="48.48345" lon="6.93803">
        <ele>484.64</ele>
        <time>2013-08-25T10:56:49Z</time>
      </trkpt>
      <trkpt lat="48.48349" lon="6.93812">
        <ele>486.56</ele>
        <time>2013-08-25T10:57:05Z</time>
      </trkpt>
      <trkpt lat="48.48349" lon="6.93812">
        <ele>486.56</ele>
        <time>2013-08-25T10:57:30Z</time>
      </trkpt>
      <trkpt lat="48.48349" lon="6.93811">
        <ele>486.56</ele>
        <time>2013-08-25T10:57:54Z</time>
      </trkpt>
      <trkpt lat="48.48349" lon="6.93811">
        <ele>485.12</ele>
        <time>2013-08-25T10:58:21Z</time>
      </trkpt>
      <trkpt lat="48.48349" lon="6.93811">
        <ele>485.12</ele>
        <time>2013-08-25T10:58:45Z</time>
      </trkpt>
      <trkpt lat="48.48349" lon="6.9381">
        <ele>485.12</ele>
        <time>2013-08-25T10:59:13Z</time>
      </trkpt>
      <trkpt lat="48.48349" lon="6.9381">
        <ele>485.12</ele>
        <time>2013-08-25T10:59:33Z</time>
      </trkpt>
      <trkpt lat="48.48348" lon="6.93813">
        <ele>485.12</ele>
        <time>2013-08-25T10:59:46Z</time>
      </trkpt>
      <trkpt lat="48.48346" lon="6.93812">
        <ele>485.12</ele>
        <time>2013-08-25T10:59:48Z</time>
      </trkpt>
      <trkpt lat="48.48303" lon="6.93791">
        <ele>487.05</ele>
        <time>2013-08-25T11:00:03Z</time>
      </trkpt>
      <trkpt lat="48.48251" lon="6.93773">
        <ele>488.01</ele>
        <time>2013-08-25T11:00:17Z</time>
      </trkpt>
      <trkpt lat="48.48217" lon="6.93762">
        <ele>488.49</ele>
        <time>2013-08-25T11:00:30Z</time>
      </trkpt>
      <trkpt lat="48.48183" lon="6.93764">
        <ele>488.97</ele>
        <time>2013-08-25T11:00:44Z</time>
      </trkpt>
      <trkpt lat="48.48136" lon="6.93771">
        <ele>488.97</ele>
        <time>2013-08-25T11:00:57Z</time>
      </trkpt>
      <trkpt lat="48.48086" lon="6.93773">
        <ele>488.97</ele>
        <time>2013-08-25T11:01:10Z</time>
      </trkpt>
      <trkpt lat="48.48066" lon="6.93771">
        <ele>488.97</ele>
        <time>2013-08-25T11:01:15Z</time>
      </trkpt>
      <trkpt lat="48.48061" lon="6.93771">
        <ele>488.97</ele>
        <time>2013-08-25T11:01:16Z</time>
      </trkpt>
      <trkpt lat="48.48042" lon="6.93771">
        <ele>488.97</ele>
        <time>2013-08-25T11:01:20Z</time>
      </trkpt>
      <trkpt lat="48.48029" lon="6.9377">
        <ele>488.97</ele>
        <time>2013-08-25T11:01:23Z</time>
      </trkpt>
      <trkpt lat="48.48025" lon="6.9377">
        <ele>488.97</ele>
        <time>2013-08-25T11:01:24Z</time>
      </trkpt>
      <trkpt lat="48.48021" lon="6.9377">
        <ele>488.97</ele>
        <time>2013-08-25T11:01:25Z</time>
      </trkpt>
      <trkpt lat="48.47993" lon="6.93759">
        <ele>489.45</ele>
        <time>2013-08-25T11:01:36Z</time>
      </trkpt>
      <trkpt lat="48.4797" lon="6.93744">
        <ele>491.37</ele>
        <time>2013-08-25T11:01:49Z</time>
      </trkpt>
      <trkpt lat="48.47964" lon="6.93732">
        <ele>491.85</ele>
        <time>2013-08-25T11:01:55Z</time>
      </trkpt>
      <trkpt lat="48.47959" lon="6.93725">
        <ele>491.85</ele>
        <time>2013-08-25T11:02:00Z</time>
      </trkpt>
      <trkpt lat="48.47958" lon="6.93723">
        <ele>492.33</ele>
        <time>2013-08-25T11:02:01Z</time>
      </trkpt>
      <trkpt lat="48.47956" lon="6.93721">
        <ele>492.33</ele>
        <time>2013-08-25T11:02:02Z</time>
      </trkpt>
      <trkpt lat="48.47916" lon="6.93682">
        <ele>493.77</ele>
        <time>2013-08-25T11:02:17Z</time>
      </trkpt>
      <trkpt lat="48.47899" lon="6.93643">
        <ele>494.26</ele>
        <time>2013-08-25T11:02:30Z</time>
      </trkpt>
      <trkpt lat="48.47886" lon="6.93593">
        <ele>494.26</ele>
        <time>2013-08-25T11:02:41Z</time>
      </trkpt>
      <trkpt lat="48.47859" lon="6.93525">
        <ele>493.29</ele>
        <time>2013-08-25T11:02:55Z</time>
      </trkpt>
      <trkpt lat="48.47822" lon="6.93458">
        <ele>492.81</ele>
        <time>2013-08-25T11:03:10Z</time>
      </trkpt>
      <trkpt lat="48.47786" lon="6.93403">
        <ele>492.81</ele>
        <time>2013-08-25T11:03:23Z</time>
      </trkpt>
      <trkpt lat="48.47754" lon="6.93364">
        <ele>492.33</ele>
        <time>2013-08-25T11:03:34Z</time>
      </trkpt>
      <trkpt lat="48.47706" lon="6.93336">
        <ele>492.33</ele>
        <time>2013-08-25T11:03:48Z</time>
      </trkpt>
      <trkpt lat="48.47662" lon="6.93339">
        <ele>491.85</ele>
        <time>2013-08-25T11:04:00Z</time>
      </trkpt>
      <trkpt lat="48.47651" lon="6.93341">
        <ele>491.37</ele>
        <time>2013-08-25T11:04:02Z</time>
      </trkpt>
      <trkpt lat="48.47646" lon="6.93342">
        <ele>490.89</ele>
        <time>2013-08-25T11:04:03Z</time>
      </trkpt>
      <trkpt lat="48.47641" lon="6.93345">
        <ele>490.41</ele>
        <time>2013-08-25T11:04:04Z</time>
      </trkpt>
      <trkpt lat="48.47635" lon="6.93348">
        <ele>490.41</ele>
        <time>2013-08-25T11:04:05Z</time>
      </trkpt>
      <trkpt lat="48.47629" lon="6.93352">
        <ele>489.45</ele>
        <time>2013-08-25T11:04:06Z</time>
      </trkpt>
      <trkpt lat="48.47599" lon="6.93377">
        <ele>486.08</ele>
        <time>2013-08-25T11:04:11Z</time>
      </trkpt>
      <trkpt lat="48.47593" lon="6.93382">
        <ele>486.08</ele>
        <time>2013-08-25T11:04:12Z</time>
      </trkpt>
      <trkpt lat="48.47551" lon="6.93409">
        <ele>482.24</ele>
        <time>2013-08-25T11:04:18Z</time>
      </trkpt>
      <trkpt lat="48.47486" lon="6.93432">
        <ele>484.16</ele>
        <time>2013-08-25T11:04:29Z</time>
      </trkpt>
      <trkpt lat="48.47481" lon="6.93433">
        <ele>484.16</ele>
        <time>2013-08-25T11:04:30Z</time>
      </trkpt>
      <trkpt lat="48.47426" lon="6.93437">
        <ele>486.56</ele>
        <time>2013-08-25T11:04:44Z</time>
      </trkpt>
      <trkpt lat="48.47388" lon="6.93416">
        <ele>485.6</ele>
        <time>2013-08-25T11:04:56Z</time>
      </trkpt>
      <trkpt lat="48.47383" lon="6.9341">
        <ele>485.6</ele>
        <time>2013-08-25T11:04:57Z</time>
      </trkpt>
      <trkpt lat="48.47338" lon="6.93344">
        <ele>483.68</ele>
        <time>2013-08-25T11:05:09Z</time>
      </trkpt>
      <trkpt lat="48.47319" lon="6.93305">
        <ele>482.72</ele>
        <time>2013-08-25T11:05:14Z</time>
      </trkpt>
      <trkpt lat="48.4731" lon="6.93293">
        <ele>482.24</ele>
        <time>2013-08-25T11:05:16Z</time>
      </trkpt>
      <trkpt lat="48.47306" lon="6.93287">
        <ele>482.24</ele>
        <time>2013-08-25T11:05:17Z</time>
      </trkpt>
      <trkpt lat="48.47247" lon="6.93252">
        <ele>480.32</ele>
        <time>2013-08-25T11:05:30Z</time>
      </trkpt>
      <trkpt lat="48.47201" lon="6.93234">
        <ele>480.8</ele>
        <time>2013-08-25T11:05:43Z</time>
      </trkpt>
      <trkpt lat="48.47155" lon="6.93211">
        <ele>480.32</ele>
        <time>2013-08-25T11:05:53Z</time>
      </trkpt>
      <trkpt lat="48.47122" lon="6.93158">
        <ele>478.87</ele>
        <time>2013-08-25T11:06:03Z</time>
      </trkpt>
      <trkpt lat="48.47106" lon="6.93097">
        <ele>475.51</ele>
        <time>2013-08-25T11:06:11Z</time>
      </trkpt>
      <trkpt lat="48.47098" lon="6.93045">
        <ele>472.14</ele>
        <time>2013-08-25T11:06:18Z</time>
      </trkpt>
      <trkpt lat="48.47089" lon="6.92983">
        <ele>469.26</ele>
        <time>2013-08-25T11:06:26Z</time>
      </trkpt>
      <trkpt lat="48.47082" lon="6.92949">
        <ele>468.3</ele>
        <time>2013-08-25T11:06:30Z</time>
      </trkpt>
      <trkpt lat="48.47062" lon="6.92904">
        <ele>466.86</ele>
        <time>2013-08-25T11:06:34Z</time>
      </trkpt>
      <trkpt lat="48.47051" lon="6.9288">
        <ele>465.42</ele>
        <time>2013-08-25T11:06:36Z</time>
      </trkpt>
      <trkpt lat="48.47027" lon="6.92812">
        <ele>462.05</ele>
        <time>2013-08-25T11:06:42Z</time>
      </trkpt>
      <trkpt lat="48.4701" lon="6.92753">
        <ele>458.69</ele>
        <time>2013-08-25T11:06:47Z</time>
      </trkpt>
      <trkpt lat="48.47007" lon="6.9274">
        <ele>458.69</ele>
        <time>2013-08-25T11:06:48Z</time>
      </trkpt>
      <trkpt lat="48.46998" lon="6.92689">
        <ele>455.8</ele>
        <time>2013-08-25T11:06:52Z</time>
      </trkpt>
      <trkpt lat="48.46992" lon="6.92649">
        <ele>453.88</ele>
        <time>2013-08-25T11:06:55Z</time>
      </trkpt>
      <trkpt lat="48.46982" lon="6.92609">
        <ele>451.96</ele>
        <time>2013-08-25T11:06:58Z</time>
      </trkpt>
      <trkpt lat="48.46961" lon="6.92555">
        <ele>449.07</ele>
        <time>2013-08-25T11:07:02Z</time>
      </trkpt>
      <trkpt lat="48.46942" lon="6.92494">
        <ele>444.75</ele>
        <time>2013-08-25T11:07:07Z</time>
      </trkpt>
      <trkpt lat="48.46937" lon="6.92483">
        <ele>444.75</ele>
        <time>2013-08-25T11:07:08Z</time>
      </trkpt>
      <trkpt lat="48.46917" lon="6.92439">
        <ele>441.38</ele>
        <time>2013-08-25T11:07:12Z</time>
      </trkpt>
      <trkpt lat="48.46906" lon="6.92416">
        <ele>440.42</ele>
        <time>2013-08-25T11:07:14Z</time>
      </trkpt>
      <trkpt lat="48.46886" lon="6.92372">
        <ele>437.54</ele>
        <time>2013-08-25T11:07:18Z</time>
      </trkpt>
      <trkpt lat="48.46863" lon="6.92328">
        <ele>434.17</ele>
        <time>2013-08-25T11:07:22Z</time>
      </trkpt>
      <trkpt lat="48.46857" lon="6.92318">
        <ele>434.17</ele>
        <time>2013-08-25T11:07:23Z</time>
      </trkpt>
      <trkpt lat="48.46835" lon="6.92275">
        <ele>430.33</ele>
        <time>2013-08-25T11:07:27Z</time>
      </trkpt>
      <trkpt lat="48.46824" lon="6.92255">
        <ele>429.85</ele>
        <time>2013-08-25T11:07:29Z</time>
      </trkpt>
      <trkpt lat="48.46802" lon="6.92219">
        <ele>426.48</ele>
        <time>2013-08-25T11:07:33Z</time>
      </trkpt>
      <trkpt lat="48.46782" lon="6.92212">
        <ele>425.04</ele>
        <time>2013-08-25T11:07:35Z</time>
      </trkpt>
      <trkpt lat="48.46734" lon="6.92214">
        <ele>422.16</ele>
        <time>2013-08-25T11:07:38Z</time>
      </trkpt>
      <trkpt lat="48.46724" lon="6.92211">
        <ele>420.71</ele>
        <time>2013-08-25T11:07:39Z</time>
      </trkpt>
      <trkpt lat="48.46716" lon="6.92209">
        <ele>420.71</ele>
        <time>2013-08-25T11:07:40Z</time>
      </trkpt>
      <trkpt lat="48.46708" lon="6.92207">
        <ele>420.71</ele>
        <time>2013-08-25T11:07:41Z</time>
      </trkpt>
      <trkpt lat="48.467" lon="6.92206">
        <ele>420.23</ele>
        <time>2013-08-25T11:07:42Z</time>
      </trkpt>
      <trkpt lat="48.46693" lon="6.92206">
        <ele>419.75</ele>
        <time>2013-08-25T11:07:43Z</time>
      </trkpt>
      <trkpt lat="48.46685" lon="6.92217">
        <ele>418.79</ele>
        <time>2013-08-25T11:07:44Z</time>
      </trkpt>
      <trkpt lat="48.46677" lon="6.92231">
        <ele>417.83</ele>
        <time>2013-08-25T11:07:45Z</time>
      </trkpt>
      <trkpt lat="48.46668" lon="6.92246">
        <ele>417.35</ele>
        <time>2013-08-25T11:07:46Z</time>
      </trkpt>
      <trkpt lat="48.46641" lon="6.92281">
        <ele>415.91</ele>
        <time>2013-08-25T11:07:49Z</time>
      </trkpt>
      <trkpt lat="48.46607" lon="6.92328">
        <ele>413.02</ele>
        <time>2013-08-25T11:07:53Z</time>
      </trkpt>
      <trkpt lat="48.46654" lon="6.9242">
        <ele>410.14</ele>
        <time>2013-08-25T11:07:57Z</time>
      </trkpt>
      <trkpt lat="48.46662" lon="6.92462">
        <ele>406.77</ele>
        <time>2013-08-25T11:08:01Z</time>
      </trkpt>
      <trkpt lat="48.46678" lon="6.92512">
        <ele>403.89</ele>
        <time>2013-08-25T11:08:06Z</time>
      </trkpt>
      <trkpt lat="48.46691" lon="6.92566">
        <ele>400.53</ele>
        <time>2013-08-25T11:08:11Z</time>
      </trkpt>
      <trkpt lat="48.46694" lon="6.92577">
        <ele>400.05</ele>
        <time>2013-08-25T11:08:12Z</time>
      </trkpt>
      <trkpt lat="48.46699" lon="6.92602">
        <ele>398.12</ele>
        <time>2013-08-25T11:08:14Z</time>
      </trkpt>
      <trkpt lat="48.46722" lon="6.92716">
        <ele>394.76</ele>
        <time>2013-08-25T11:08:23Z</time>
      </trkpt>
      <trkpt lat="48.46742" lon="6.92827">
        <ele>395.24</ele>
        <time>2013-08-25T11:08:33Z</time>
      </trkpt>
      <trkpt lat="48.46759" lon="6.92915">
        <ele>396.68</ele>
        <time>2013-08-25T11:08:46Z</time>
      </trkpt>
      <trkpt lat="48.46752" lon="6.92967">
        <ele>397.16</ele>
        <time>2013-08-25T11:08:56Z</time>
      </trkpt>
      <trkpt lat="48.46752" lon="6.92972">
        <ele>398.12</ele>
        <time>2013-08-25T11:08:57Z</time>
      </trkpt>
      <trkpt lat="48.46752" lon="6.92976">
        <ele>398.12</ele>
        <time>2013-08-25T11:08:58Z</time>
      </trkpt>
      <trkpt lat="48.46752" lon="6.9298">
        <ele>398.12</ele>
        <time>2013-08-25T11:08:59Z</time>
      </trkpt>
      <trkpt lat="48.46752" lon="6.92983">
        <ele>398.12</ele>
        <time>2013-08-25T11:09:00Z</time>
      </trkpt>
      <trkpt lat="48.46753" lon="6.92986">
        <ele>398.12</ele>
        <time>2013-08-25T11:09:01Z</time>
      </trkpt>
      <trkpt lat="48.46754" lon="6.92986">
        <ele>398.6</ele>
        <time>2013-08-25T11:09:02Z</time>
      </trkpt>
      <trkpt lat="48.46757" lon="6.92985">
        <ele>398.6</ele>
        <time>2013-08-25T11:09:03Z</time>
      </trkpt>
      <trkpt lat="48.4676" lon="6.92984">
        <ele>399.08</ele>
        <time>2013-08-25T11:09:14Z</time>
      </trkpt>
      <trkpt lat="48.46761" lon="6.92983">
        <ele>398.6</ele>
        <time>2013-08-25T11:09:31Z</time>
      </trkpt>
      <trkpt lat="48.46761" lon="6.92984">
        <ele>398.6</ele>
        <time>2013-08-25T11:10:05Z</time>
      </trkpt>
      <trkpt lat="48.46761" lon="6.92984">
        <ele>399.57</ele>
        <time>2013-08-25T11:10:36Z</time>
      </trkpt>
      <trkpt lat="48.46762" lon="6.92982">
        <ele>399.57</ele>
        <time>2013-08-25T11:11:03Z</time>
      </trkpt>
      <trkpt lat="48.46762" lon="6.92982">
        <ele>399.57</ele>
        <time>2013-08-25T11:11:32Z</time>
      </trkpt>
      <trkpt lat="48.46762" lon="6.92982">
        <ele>399.57</ele>
        <time>2013-08-25T11:11:54Z</time>
      </trkpt>
      <trkpt lat="48.46762" lon="6.92982">
        <ele>399.57</ele>
        <time>2013-08-25T11:12:17Z</time>
      </trkpt>
      <trkpt lat="48.46762" lon="6.92982">
        <ele>399.57</ele>
        <time>2013-08-25T11:12:43Z</time>
      </trkpt>
      <trkpt lat="48.46762" lon="6.92982">
        <ele>399.57</ele>
        <time>2013-08-25T11:13:10Z</time>
      </trkpt>
      <trkpt lat="48.46763" lon="6.92982">
        <ele>399.57</ele>
        <time>2013-08-25T11:13:31Z</time>
      </trkpt>
      <trkpt lat="48.46763" lon="6.92982">
        <ele>399.57</ele>
        <time>2013-08-25T11:14:00Z</time>
      </trkpt>
      <trkpt lat="48.46763" lon="6.92982">
        <ele>399.57</ele>
        <time>2013-08-25T11:14:13Z</time>
      </trkpt>
      <trkpt lat="48.46763" lon="6.92982">
        <ele>399.57</ele>
        <time>2013-08-25T11:14:45Z</time>
      </trkpt>
      <trkpt lat="48.46763" lon="6.92982">
        <ele>399.57</ele>
        <time>2013-08-25T11:15:16Z</time>
      </trkpt>
      <trkpt lat="48.46763" lon="6.9298">
        <ele>399.57</ele>
        <time>2013-08-25T11:15:45Z</time>
      </trkpt>
      <trkpt lat="48.46763" lon="6.9298">
        <ele>399.57</ele>
        <time>2013-08-25T11:16:13Z</time>
      </trkpt>
      <trkpt lat="48.46763" lon="6.92979">
        <ele>399.57</ele>
        <time>2013-08-25T11:16:44Z</time>
      </trkpt>
      <trkpt lat="48.46763" lon="6.92979">
        <ele>399.57</ele>
        <time>2013-08-25T11:17:15Z</time>
      </trkpt>
      <trkpt lat="48.46762" lon="6.9298">
        <ele>399.57</ele>
        <time>2013-08-25T11:17:46Z</time>
      </trkpt>
      <trkpt lat="48.46763" lon="6.92978">
        <ele>399.57</ele>
        <time>2013-08-25T11:18:20Z</time>
      </trkpt>
      <trkpt lat="48.46763" lon="6.92978">
        <ele>399.57</ele>
        <time>2013-08-25T11:18:58Z</time>
      </trkpt>
      <trkpt lat="48.46763" lon="6.92977">
        <ele>399.57</ele>
        <time>2013-08-25T11:19:33Z</time>
      </trkpt>
      <trkpt lat="48.46763" lon="6.92978">
        <ele>399.57</ele>
        <time>2013-08-25T11:20:06Z</time>
      </trkpt>
      <trkpt lat="48.46763" lon="6.92977">
        <ele>399.57</ele>
        <time>2013-08-25T11:20:38Z</time>
      </trkpt>
      <trkpt lat="48.46763" lon="6.92977">
        <ele>399.57</ele>
        <time>2013-08-25T11:21:11Z</time>
      </trkpt>
      <trkpt lat="48.46763" lon="6.92977">
        <ele>399.57</ele>
        <time>2013-08-25T11:21:47Z</time>
      </trkpt>
      <trkpt lat="48.46763" lon="6.92977">
        <ele>399.57</ele>
        <time>2013-08-25T11:22:22Z</time>
      </trkpt>
      <trkpt lat="48.46762" lon="6.92977">
        <ele>399.57</ele>
        <time>2013-08-25T11:22:53Z</time>
      </trkpt>
      <trkpt lat="48.46762" lon="6.92976">
        <ele>399.57</ele>
        <time>2013-08-25T11:23:23Z</time>
      </trkpt>
      <trkpt lat="48.46762" lon="6.92976">
        <ele>399.57</ele>
        <time>2013-08-25T11:23:55Z</time>
      </trkpt>
      <trkpt lat="48.46763" lon="6.92977">
        <ele>397.64</ele>
        <time>2013-08-25T11:24:25Z</time>
      </trkpt>
      <trkpt lat="48.46763" lon="6.92977">
        <ele>397.64</ele>
        <time>2013-08-25T11:24:26Z</time>
      </trkpt>
      <trkpt lat="48.46762" lon="6.92977">
        <ele>397.64</ele>
        <time>2013-08-25T11:24:41Z</time>
      </trkpt>
      <trkpt lat="48.46762" lon="6.92977">
        <ele>397.64</ele>
        <time>2013-08-25T11:25:13Z</time>
      </trkpt>
    </trkseg>
  </trk>
</gpx>